<?xml version="1.0" encoding="UTF-8" standalone="no" ?>
<gpx xmlns="http://www.topografix.com/GPX/1/1" xmlns:xsi="http://www.w3.org/2001/XMLSchema-instance" xsi:schemaLocation="http://www.topografix.com/GPX/1/1 http://www.topografix.com/GPX/1/1/gpx.xsd" version="1.1" creator="VisuGPX - https://www.visugpx.com">
  <metadata>
    <name>Chazey/Theizé</name>
    <desc><![CDATA[Circuit tres roulant, beaucoup de petites routes, idéal par temps de pluie, car peu boueux]]></desc>
  </metadata>
  <trk>
    <name><![CDATA[09-JAN-16 02:07:26 PM]]></name>
    <trkseg>
      <trkpt lat="45.87682" lon="4.71354">
        <ele>307.76</ele>
        <time>2016-01-09T09:05:33Z</time>
      </trkpt>
      <trkpt lat="45.87681" lon="4.71352">
        <ele>308.24</ele>
        <time>2016-01-09T09:05:34Z</time>
      </trkpt>
      <trkpt lat="45.8768" lon="4.71354">
        <ele>302.95</ele>
        <time>2016-01-09T09:05:44Z</time>
      </trkpt>
      <trkpt lat="45.87679" lon="4.71354">
        <ele>299.59</ele>
        <time>2016-01-09T09:05:45Z</time>
      </trkpt>
      <trkpt lat="45.87679" lon="4.71354">
        <ele>294.78</ele>
        <time>2016-01-09T09:05:47Z</time>
      </trkpt>
      <trkpt lat="45.87677" lon="4.71354">
        <ele>289.49</ele>
        <time>2016-01-09T09:05:49Z</time>
      </trkpt>
      <trkpt lat="45.87677" lon="4.71355">
        <ele>285.65</ele>
        <time>2016-01-09T09:05:51Z</time>
      </trkpt>
      <trkpt lat="45.87677" lon="4.71356">
        <ele>281.8</ele>
        <time>2016-01-09T09:05:53Z</time>
      </trkpt>
      <trkpt lat="45.87676" lon="4.71356">
        <ele>277.96</ele>
        <time>2016-01-09T09:05:55Z</time>
      </trkpt>
      <trkpt lat="45.87676" lon="4.71357">
        <ele>274.59</ele>
        <time>2016-01-09T09:05:57Z</time>
      </trkpt>
      <trkpt lat="45.87675" lon="4.71357">
        <ele>271.23</ele>
        <time>2016-01-09T09:05:59Z</time>
      </trkpt>
      <trkpt lat="45.87674" lon="4.71357">
        <ele>267.38</ele>
        <time>2016-01-09T09:06:02Z</time>
      </trkpt>
      <trkpt lat="45.87674" lon="4.71358">
        <ele>264.02</ele>
        <time>2016-01-09T09:06:05Z</time>
      </trkpt>
      <trkpt lat="45.87675" lon="4.71358">
        <ele>260.65</ele>
        <time>2016-01-09T09:06:09Z</time>
      </trkpt>
      <trkpt lat="45.87675" lon="4.71358">
        <ele>257.29</ele>
        <time>2016-01-09T09:06:13Z</time>
      </trkpt>
      <trkpt lat="45.87675" lon="4.71359">
        <ele>253.93</ele>
        <time>2016-01-09T09:06:18Z</time>
      </trkpt>
      <trkpt lat="45.87674" lon="4.71359">
        <ele>251.52</ele>
        <time>2016-01-09T09:06:23Z</time>
      </trkpt>
      <trkpt lat="45.87674" lon="4.7136">
        <ele>250.08</ele>
        <time>2016-01-09T09:06:27Z</time>
      </trkpt>
      <trkpt lat="45.87674" lon="4.71361">
        <ele>247.68</ele>
        <time>2016-01-09T09:06:34Z</time>
      </trkpt>
      <trkpt lat="45.87675" lon="4.71362">
        <ele>244.31</ele>
        <time>2016-01-09T09:06:50Z</time>
      </trkpt>
      <trkpt lat="45.87674" lon="4.71363">
        <ele>241.43</ele>
        <time>2016-01-09T09:07:06Z</time>
      </trkpt>
      <trkpt lat="45.87674" lon="4.71363">
        <ele>238.06</ele>
        <time>2016-01-09T09:07:29Z</time>
      </trkpt>
      <trkpt lat="45.87674" lon="4.71361">
        <ele>238.06</ele>
        <time>2016-01-09T09:08:16Z</time>
      </trkpt>
      <trkpt lat="45.87674" lon="4.71361">
        <ele>237.58</ele>
        <time>2016-01-09T09:08:54Z</time>
      </trkpt>
      <trkpt lat="45.87674" lon="4.71361">
        <ele>235.18</ele>
        <time>2016-01-09T09:09:10Z</time>
      </trkpt>
      <trkpt lat="45.87674" lon="4.71361">
        <ele>241.91</ele>
        <time>2016-01-09T09:09:11Z</time>
      </trkpt>
      <trkpt lat="45.87674" lon="4.71361">
        <ele>238.06</ele>
        <time>2016-01-09T09:09:12Z</time>
      </trkpt>
      <trkpt lat="45.87674" lon="4.71361">
        <ele>237.58</ele>
        <time>2016-01-09T09:09:43Z</time>
      </trkpt>
      <trkpt lat="45.87674" lon="4.7136">
        <ele>237.58</ele>
        <time>2016-01-09T09:10:18Z</time>
      </trkpt>
      <trkpt lat="45.87674" lon="4.7136">
        <ele>237.58</ele>
        <time>2016-01-09T09:10:52Z</time>
      </trkpt>
      <trkpt lat="45.87674" lon="4.7136">
        <ele>237.1</ele>
        <time>2016-01-09T09:11:24Z</time>
      </trkpt>
      <trkpt lat="45.87674" lon="4.71359">
        <ele>237.58</ele>
        <time>2016-01-09T09:11:57Z</time>
      </trkpt>
      <trkpt lat="45.87674" lon="4.71358">
        <ele>233.74</ele>
        <time>2016-01-09T09:12:19Z</time>
      </trkpt>
      <trkpt lat="45.87674" lon="4.71358">
        <ele>239.51</ele>
        <time>2016-01-09T09:12:20Z</time>
      </trkpt>
      <trkpt lat="45.87674" lon="4.71358">
        <ele>242.87</ele>
        <time>2016-01-09T09:12:21Z</time>
      </trkpt>
      <trkpt lat="45.87674" lon="4.71358">
        <ele>236.14</ele>
        <time>2016-01-09T09:12:22Z</time>
      </trkpt>
      <trkpt lat="45.87674" lon="4.71358">
        <ele>237.58</ele>
        <time>2016-01-09T09:12:23Z</time>
      </trkpt>
      <trkpt lat="45.87674" lon="4.71357">
        <ele>236.14</ele>
        <time>2016-01-09T09:12:33Z</time>
      </trkpt>
      <trkpt lat="45.87674" lon="4.71357">
        <ele>239.99</ele>
        <time>2016-01-09T09:12:43Z</time>
      </trkpt>
      <trkpt lat="45.87674" lon="4.71357">
        <ele>239.02</ele>
        <time>2016-01-09T09:12:44Z</time>
      </trkpt>
      <trkpt lat="45.87674" lon="4.71357">
        <ele>239.51</ele>
        <time>2016-01-09T09:12:45Z</time>
      </trkpt>
      <trkpt lat="45.87674" lon="4.71357">
        <ele>234.22</ele>
        <time>2016-01-09T09:12:49Z</time>
      </trkpt>
      <trkpt lat="45.87674" lon="4.71357">
        <ele>238.54</ele>
        <time>2016-01-09T09:12:50Z</time>
      </trkpt>
      <trkpt lat="45.87674" lon="4.71356">
        <ele>238.06</ele>
        <time>2016-01-09T09:12:58Z</time>
      </trkpt>
      <trkpt lat="45.87662" lon="4.71357">
        <ele>237.1</ele>
        <time>2016-01-09T09:13:05Z</time>
      </trkpt>
      <trkpt lat="45.87648" lon="4.71359">
        <ele>236.62</ele>
        <time>2016-01-09T09:13:10Z</time>
      </trkpt>
      <trkpt lat="45.8764" lon="4.71358">
        <ele>237.58</ele>
        <time>2016-01-09T09:13:20Z</time>
      </trkpt>
      <trkpt lat="45.87639" lon="4.71358">
        <ele>237.58</ele>
        <time>2016-01-09T09:13:33Z</time>
      </trkpt>
      <trkpt lat="45.87639" lon="4.71358">
        <ele>237.1</ele>
        <time>2016-01-09T09:13:59Z</time>
      </trkpt>
      <trkpt lat="45.87639" lon="4.71358">
        <ele>237.58</ele>
        <time>2016-01-09T09:14:27Z</time>
      </trkpt>
      <trkpt lat="45.87639" lon="4.71358">
        <ele>237.1</ele>
        <time>2016-01-09T09:14:58Z</time>
      </trkpt>
      <trkpt lat="45.87639" lon="4.71357">
        <ele>236.62</ele>
        <time>2016-01-09T09:15:29Z</time>
      </trkpt>
      <trkpt lat="45.87639" lon="4.71357">
        <ele>236.62</ele>
        <time>2016-01-09T09:15:58Z</time>
      </trkpt>
      <trkpt lat="45.87639" lon="4.71358">
        <ele>236.14</ele>
        <time>2016-01-09T09:16:27Z</time>
      </trkpt>
      <trkpt lat="45.87639" lon="4.71357">
        <ele>236.14</ele>
        <time>2016-01-09T09:16:52Z</time>
      </trkpt>
      <trkpt lat="45.87639" lon="4.71357">
        <ele>236.14</ele>
        <time>2016-01-09T09:17:00Z</time>
      </trkpt>
      <trkpt lat="45.87638" lon="4.71353">
        <ele>236.14</ele>
        <time>2016-01-09T09:17:03Z</time>
      </trkpt>
      <trkpt lat="45.8764" lon="4.71305">
        <ele>236.62</ele>
        <time>2016-01-09T09:17:15Z</time>
      </trkpt>
      <trkpt lat="45.87644" lon="4.71302">
        <ele>236.14</ele>
        <time>2016-01-09T09:17:16Z</time>
      </trkpt>
      <trkpt lat="45.87648" lon="4.71301">
        <ele>236.14</ele>
        <time>2016-01-09T09:17:17Z</time>
      </trkpt>
      <trkpt lat="45.87684" lon="4.71273">
        <ele>235.66</ele>
        <time>2016-01-09T09:17:28Z</time>
      </trkpt>
      <trkpt lat="45.87719" lon="4.71239">
        <ele>235.18</ele>
        <time>2016-01-09T09:17:40Z</time>
      </trkpt>
      <trkpt lat="45.87757" lon="4.71202">
        <ele>235.66</ele>
        <time>2016-01-09T09:17:53Z</time>
      </trkpt>
      <trkpt lat="45.87794" lon="4.71164">
        <ele>235.18</ele>
        <time>2016-01-09T09:18:05Z</time>
      </trkpt>
      <trkpt lat="45.87796" lon="4.7116">
        <ele>235.66</ele>
        <time>2016-01-09T09:18:06Z</time>
      </trkpt>
      <trkpt lat="45.87797" lon="4.71154">
        <ele>235.18</ele>
        <time>2016-01-09T09:18:07Z</time>
      </trkpt>
      <trkpt lat="45.87799" lon="4.71149">
        <ele>235.18</ele>
        <time>2016-01-09T09:18:08Z</time>
      </trkpt>
      <trkpt lat="45.878" lon="4.71143">
        <ele>235.66</ele>
        <time>2016-01-09T09:18:09Z</time>
      </trkpt>
      <trkpt lat="45.87801" lon="4.71137">
        <ele>234.7</ele>
        <time>2016-01-09T09:18:10Z</time>
      </trkpt>
      <trkpt lat="45.87803" lon="4.71131">
        <ele>234.7</ele>
        <time>2016-01-09T09:18:11Z</time>
      </trkpt>
      <trkpt lat="45.87808" lon="4.71112">
        <ele>234.22</ele>
        <time>2016-01-09T09:18:14Z</time>
      </trkpt>
      <trkpt lat="45.8781" lon="4.71106">
        <ele>234.7</ele>
        <time>2016-01-09T09:18:15Z</time>
      </trkpt>
      <trkpt lat="45.87813" lon="4.71093">
        <ele>233.74</ele>
        <time>2016-01-09T09:18:17Z</time>
      </trkpt>
      <trkpt lat="45.87815" lon="4.71087">
        <ele>233.74</ele>
        <time>2016-01-09T09:18:18Z</time>
      </trkpt>
      <trkpt lat="45.87817" lon="4.71081">
        <ele>234.22</ele>
        <time>2016-01-09T09:18:19Z</time>
      </trkpt>
      <trkpt lat="45.87818" lon="4.71074">
        <ele>234.22</ele>
        <time>2016-01-09T09:18:20Z</time>
      </trkpt>
      <trkpt lat="45.87819" lon="4.71068">
        <ele>233.74</ele>
        <time>2016-01-09T09:18:21Z</time>
      </trkpt>
      <trkpt lat="45.87835" lon="4.71003">
        <ele>233.26</ele>
        <time>2016-01-09T09:18:34Z</time>
      </trkpt>
      <trkpt lat="45.87838" lon="4.70993">
        <ele>233.26</ele>
        <time>2016-01-09T09:18:48Z</time>
      </trkpt>
      <trkpt lat="45.87848" lon="4.70962">
        <ele>233.26</ele>
        <time>2016-01-09T09:18:55Z</time>
      </trkpt>
      <trkpt lat="45.87849" lon="4.70956">
        <ele>232.78</ele>
        <time>2016-01-09T09:18:56Z</time>
      </trkpt>
      <trkpt lat="45.8785" lon="4.7095">
        <ele>233.26</ele>
        <time>2016-01-09T09:18:57Z</time>
      </trkpt>
      <trkpt lat="45.87851" lon="4.70944">
        <ele>233.26</ele>
        <time>2016-01-09T09:18:58Z</time>
      </trkpt>
      <trkpt lat="45.87853" lon="4.70939">
        <ele>233.26</ele>
        <time>2016-01-09T09:18:59Z</time>
      </trkpt>
      <trkpt lat="45.87854" lon="4.70934">
        <ele>232.78</ele>
        <time>2016-01-09T09:19:00Z</time>
      </trkpt>
      <trkpt lat="45.87855" lon="4.70928">
        <ele>232.78</ele>
        <time>2016-01-09T09:19:01Z</time>
      </trkpt>
      <trkpt lat="45.87857" lon="4.70923">
        <ele>233.26</ele>
        <time>2016-01-09T09:19:02Z</time>
      </trkpt>
      <trkpt lat="45.87858" lon="4.70918">
        <ele>232.78</ele>
        <time>2016-01-09T09:19:03Z</time>
      </trkpt>
      <trkpt lat="45.87859" lon="4.70913">
        <ele>232.78</ele>
        <time>2016-01-09T09:19:04Z</time>
      </trkpt>
      <trkpt lat="45.8786" lon="4.70907">
        <ele>232.78</ele>
        <time>2016-01-09T09:19:05Z</time>
      </trkpt>
      <trkpt lat="45.87864" lon="4.7089">
        <ele>233.26</ele>
        <time>2016-01-09T09:19:08Z</time>
      </trkpt>
      <trkpt lat="45.87865" lon="4.70885">
        <ele>232.78</ele>
        <time>2016-01-09T09:19:09Z</time>
      </trkpt>
      <trkpt lat="45.87882" lon="4.70795">
        <ele>233.26</ele>
        <time>2016-01-09T09:19:26Z</time>
      </trkpt>
      <trkpt lat="45.87892" lon="4.70723">
        <ele>233.26</ele>
        <time>2016-01-09T09:19:40Z</time>
      </trkpt>
      <trkpt lat="45.87902" lon="4.70642">
        <ele>234.22</ele>
        <time>2016-01-09T09:19:55Z</time>
      </trkpt>
      <trkpt lat="45.87905" lon="4.70621">
        <ele>233.74</ele>
        <time>2016-01-09T09:19:59Z</time>
      </trkpt>
      <trkpt lat="45.87906" lon="4.70615">
        <ele>233.74</ele>
        <time>2016-01-09T09:20:00Z</time>
      </trkpt>
      <trkpt lat="45.87919" lon="4.70524">
        <ele>234.22</ele>
        <time>2016-01-09T09:20:17Z</time>
      </trkpt>
      <trkpt lat="45.87935" lon="4.70454">
        <ele>236.62</ele>
        <time>2016-01-09T09:20:33Z</time>
      </trkpt>
      <trkpt lat="45.87947" lon="4.70397">
        <ele>238.54</ele>
        <time>2016-01-09T09:20:47Z</time>
      </trkpt>
      <trkpt lat="45.87957" lon="4.70345">
        <ele>240.47</ele>
        <time>2016-01-09T09:21:00Z</time>
      </trkpt>
      <trkpt lat="45.87963" lon="4.70288">
        <ele>241.43</ele>
        <time>2016-01-09T09:21:15Z</time>
      </trkpt>
      <trkpt lat="45.87978" lon="4.70231">
        <ele>241.43</ele>
        <time>2016-01-09T09:21:28Z</time>
      </trkpt>
      <trkpt lat="45.88015" lon="4.70193">
        <ele>239.99</ele>
        <time>2016-01-09T09:21:39Z</time>
      </trkpt>
      <trkpt lat="45.88026" lon="4.70182">
        <ele>239.51</ele>
        <time>2016-01-09T09:21:42Z</time>
      </trkpt>
      <trkpt lat="45.88029" lon="4.70177">
        <ele>239.51</ele>
        <time>2016-01-09T09:21:43Z</time>
      </trkpt>
      <trkpt lat="45.88032" lon="4.70172">
        <ele>239.02</ele>
        <time>2016-01-09T09:21:44Z</time>
      </trkpt>
      <trkpt lat="45.88034" lon="4.70166">
        <ele>239.51</ele>
        <time>2016-01-09T09:21:45Z</time>
      </trkpt>
      <trkpt lat="45.88037" lon="4.70161">
        <ele>239.51</ele>
        <time>2016-01-09T09:21:46Z</time>
      </trkpt>
      <trkpt lat="45.88039" lon="4.70156">
        <ele>239.02</ele>
        <time>2016-01-09T09:21:47Z</time>
      </trkpt>
      <trkpt lat="45.88043" lon="4.70146">
        <ele>239.51</ele>
        <time>2016-01-09T09:21:49Z</time>
      </trkpt>
      <trkpt lat="45.88047" lon="4.70134">
        <ele>239.51</ele>
        <time>2016-01-09T09:21:51Z</time>
      </trkpt>
      <trkpt lat="45.8805" lon="4.7013">
        <ele>239.99</ele>
        <time>2016-01-09T09:21:52Z</time>
      </trkpt>
      <trkpt lat="45.88076" lon="4.70086">
        <ele>241.91</ele>
        <time>2016-01-09T09:22:05Z</time>
      </trkpt>
      <trkpt lat="45.88088" lon="4.70048">
        <ele>245.27</ele>
        <time>2016-01-09T09:22:18Z</time>
      </trkpt>
      <trkpt lat="45.88096" lon="4.70015">
        <ele>246.72</ele>
        <time>2016-01-09T09:22:30Z</time>
      </trkpt>
      <trkpt lat="45.881" lon="4.70002">
        <ele>247.68</ele>
        <time>2016-01-09T09:22:35Z</time>
      </trkpt>
      <trkpt lat="45.88106" lon="4.69966">
        <ele>250.08</ele>
        <time>2016-01-09T09:22:49Z</time>
      </trkpt>
      <trkpt lat="45.88106" lon="4.69928">
        <ele>251.52</ele>
        <time>2016-01-09T09:23:05Z</time>
      </trkpt>
      <trkpt lat="45.88107" lon="4.69895">
        <ele>253.44</ele>
        <time>2016-01-09T09:23:18Z</time>
      </trkpt>
      <trkpt lat="45.88112" lon="4.69857">
        <ele>254.89</ele>
        <time>2016-01-09T09:23:33Z</time>
      </trkpt>
      <trkpt lat="45.88119" lon="4.69825">
        <ele>256.81</ele>
        <time>2016-01-09T09:23:47Z</time>
      </trkpt>
      <trkpt lat="45.88125" lon="4.6979">
        <ele>258.73</ele>
        <time>2016-01-09T09:23:57Z</time>
      </trkpt>
      <trkpt lat="45.88135" lon="4.69734">
        <ele>259.69</ele>
        <time>2016-01-09T09:24:15Z</time>
      </trkpt>
      <trkpt lat="45.88149" lon="4.69679">
        <ele>260.65</ele>
        <time>2016-01-09T09:24:32Z</time>
      </trkpt>
      <trkpt lat="45.88155" lon="4.69634">
        <ele>262.1</ele>
        <time>2016-01-09T09:24:46Z</time>
      </trkpt>
      <trkpt lat="45.88164" lon="4.69578">
        <ele>263.54</ele>
        <time>2016-01-09T09:25:03Z</time>
      </trkpt>
      <trkpt lat="45.88168" lon="4.69533">
        <ele>265.46</ele>
        <time>2016-01-09T09:25:17Z</time>
      </trkpt>
      <trkpt lat="45.88172" lon="4.69488">
        <ele>267.86</ele>
        <time>2016-01-09T09:25:31Z</time>
      </trkpt>
      <trkpt lat="45.88178" lon="4.69434">
        <ele>270.27</ele>
        <time>2016-01-09T09:25:49Z</time>
      </trkpt>
      <trkpt lat="45.88187" lon="4.69386">
        <ele>272.67</ele>
        <time>2016-01-09T09:26:06Z</time>
      </trkpt>
      <trkpt lat="45.88196" lon="4.69342">
        <ele>275.56</ele>
        <time>2016-01-09T09:26:22Z</time>
      </trkpt>
      <trkpt lat="45.88206" lon="4.69295">
        <ele>278.44</ele>
        <time>2016-01-09T09:26:40Z</time>
      </trkpt>
      <trkpt lat="45.88223" lon="4.69284">
        <ele>279.4</ele>
        <time>2016-01-09T09:26:51Z</time>
      </trkpt>
      <trkpt lat="45.88258" lon="4.69281">
        <ele>279.4</ele>
        <time>2016-01-09T09:27:04Z</time>
      </trkpt>
      <trkpt lat="45.88307" lon="4.69281">
        <ele>279.88</ele>
        <time>2016-01-09T09:27:20Z</time>
      </trkpt>
      <trkpt lat="45.88343" lon="4.6928">
        <ele>279.4</ele>
        <time>2016-01-09T09:27:31Z</time>
      </trkpt>
      <trkpt lat="45.88397" lon="4.69274">
        <ele>279.88</ele>
        <time>2016-01-09T09:27:46Z</time>
      </trkpt>
      <trkpt lat="45.88455" lon="4.69277">
        <ele>279.4</ele>
        <time>2016-01-09T09:28:00Z</time>
      </trkpt>
      <trkpt lat="45.88503" lon="4.69286">
        <ele>278.92</ele>
        <time>2016-01-09T09:28:11Z</time>
      </trkpt>
      <trkpt lat="45.88508" lon="4.69285">
        <ele>278.92</ele>
        <time>2016-01-09T09:28:12Z</time>
      </trkpt>
      <trkpt lat="45.88512" lon="4.69283">
        <ele>278.92</ele>
        <time>2016-01-09T09:28:13Z</time>
      </trkpt>
      <trkpt lat="45.88515" lon="4.69281">
        <ele>278.92</ele>
        <time>2016-01-09T09:28:14Z</time>
      </trkpt>
      <trkpt lat="45.88519" lon="4.69277">
        <ele>279.4</ele>
        <time>2016-01-09T09:28:15Z</time>
      </trkpt>
      <trkpt lat="45.88522" lon="4.69272">
        <ele>279.4</ele>
        <time>2016-01-09T09:28:16Z</time>
      </trkpt>
      <trkpt lat="45.88524" lon="4.69267">
        <ele>279.4</ele>
        <time>2016-01-09T09:28:17Z</time>
      </trkpt>
      <trkpt lat="45.88525" lon="4.69261">
        <ele>279.4</ele>
        <time>2016-01-09T09:28:18Z</time>
      </trkpt>
      <trkpt lat="45.88527" lon="4.69255">
        <ele>279.4</ele>
        <time>2016-01-09T09:28:19Z</time>
      </trkpt>
      <trkpt lat="45.88527" lon="4.69249">
        <ele>278.92</ele>
        <time>2016-01-09T09:28:20Z</time>
      </trkpt>
      <trkpt lat="45.88528" lon="4.69243">
        <ele>279.88</ele>
        <time>2016-01-09T09:28:21Z</time>
      </trkpt>
      <trkpt lat="45.88529" lon="4.69237">
        <ele>278.92</ele>
        <time>2016-01-09T09:28:22Z</time>
      </trkpt>
      <trkpt lat="45.8853" lon="4.69231">
        <ele>279.4</ele>
        <time>2016-01-09T09:28:23Z</time>
      </trkpt>
      <trkpt lat="45.88531" lon="4.69226">
        <ele>279.88</ele>
        <time>2016-01-09T09:28:24Z</time>
      </trkpt>
      <trkpt lat="45.88533" lon="4.69221">
        <ele>279.4</ele>
        <time>2016-01-09T09:28:25Z</time>
      </trkpt>
      <trkpt lat="45.88536" lon="4.69216">
        <ele>279.88</ele>
        <time>2016-01-09T09:28:26Z</time>
      </trkpt>
      <trkpt lat="45.88539" lon="4.69213">
        <ele>280.36</ele>
        <time>2016-01-09T09:28:27Z</time>
      </trkpt>
      <trkpt lat="45.88542" lon="4.69211">
        <ele>280.36</ele>
        <time>2016-01-09T09:28:28Z</time>
      </trkpt>
      <trkpt lat="45.88546" lon="4.69209">
        <ele>279.88</ele>
        <time>2016-01-09T09:28:29Z</time>
      </trkpt>
      <trkpt lat="45.8855" lon="4.69208">
        <ele>279.88</ele>
        <time>2016-01-09T09:28:30Z</time>
      </trkpt>
      <trkpt lat="45.88554" lon="4.69207">
        <ele>280.84</ele>
        <time>2016-01-09T09:28:31Z</time>
      </trkpt>
      <trkpt lat="45.88617" lon="4.69196">
        <ele>280.84</ele>
        <time>2016-01-09T09:28:46Z</time>
      </trkpt>
      <trkpt lat="45.88656" lon="4.69197">
        <ele>280.84</ele>
        <time>2016-01-09T09:28:56Z</time>
      </trkpt>
      <trkpt lat="45.88657" lon="4.69194">
        <ele>280.84</ele>
        <time>2016-01-09T09:28:57Z</time>
      </trkpt>
      <trkpt lat="45.88657" lon="4.69191">
        <ele>280.36</ele>
        <time>2016-01-09T09:28:58Z</time>
      </trkpt>
      <trkpt lat="45.88657" lon="4.69187">
        <ele>280.84</ele>
        <time>2016-01-09T09:28:59Z</time>
      </trkpt>
      <trkpt lat="45.88656" lon="4.69183">
        <ele>280.36</ele>
        <time>2016-01-09T09:29:00Z</time>
      </trkpt>
      <trkpt lat="45.88645" lon="4.69125">
        <ele>281.8</ele>
        <time>2016-01-09T09:29:14Z</time>
      </trkpt>
      <trkpt lat="45.88622" lon="4.69082">
        <ele>284.21</ele>
        <time>2016-01-09T09:29:28Z</time>
      </trkpt>
      <trkpt lat="45.88591" lon="4.69034">
        <ele>285.65</ele>
        <time>2016-01-09T09:29:45Z</time>
      </trkpt>
      <trkpt lat="45.8857" lon="4.69002">
        <ele>287.57</ele>
        <time>2016-01-09T09:29:58Z</time>
      </trkpt>
      <trkpt lat="45.88551" lon="4.68975">
        <ele>289.97</ele>
        <time>2016-01-09T09:30:11Z</time>
      </trkpt>
      <trkpt lat="45.88534" lon="4.68954">
        <ele>291.9</ele>
        <time>2016-01-09T09:30:24Z</time>
      </trkpt>
      <trkpt lat="45.88517" lon="4.68929">
        <ele>294.78</ele>
        <time>2016-01-09T09:30:38Z</time>
      </trkpt>
      <trkpt lat="45.88503" lon="4.68897">
        <ele>297.67</ele>
        <time>2016-01-09T09:30:54Z</time>
      </trkpt>
      <trkpt lat="45.88497" lon="4.68885">
        <ele>298.15</ele>
        <time>2016-01-09T09:31:00Z</time>
      </trkpt>
      <trkpt lat="45.88496" lon="4.68883">
        <ele>298.63</ele>
        <time>2016-01-09T09:31:01Z</time>
      </trkpt>
      <trkpt lat="45.88481" lon="4.68851">
        <ele>301.03</ele>
        <time>2016-01-09T09:31:18Z</time>
      </trkpt>
      <trkpt lat="45.88467" lon="4.68819">
        <ele>303.43</ele>
        <time>2016-01-09T09:31:35Z</time>
      </trkpt>
      <trkpt lat="45.88459" lon="4.68797">
        <ele>305.36</ele>
        <time>2016-01-09T09:31:46Z</time>
      </trkpt>
      <trkpt lat="45.88459" lon="4.68794">
        <ele>305.36</ele>
        <time>2016-01-09T09:31:47Z</time>
      </trkpt>
      <trkpt lat="45.88451" lon="4.68765">
        <ele>308.72</ele>
        <time>2016-01-09T09:32:01Z</time>
      </trkpt>
      <trkpt lat="45.8845" lon="4.6876">
        <ele>308.24</ele>
        <time>2016-01-09T09:32:03Z</time>
      </trkpt>
      <trkpt lat="45.88449" lon="4.68758">
        <ele>309.2</ele>
        <time>2016-01-09T09:32:04Z</time>
      </trkpt>
      <trkpt lat="45.88449" lon="4.68756">
        <ele>309.2</ele>
        <time>2016-01-09T09:32:05Z</time>
      </trkpt>
      <trkpt lat="45.88449" lon="4.68753">
        <ele>309.2</ele>
        <time>2016-01-09T09:32:06Z</time>
      </trkpt>
      <trkpt lat="45.88449" lon="4.68751">
        <ele>309.68</ele>
        <time>2016-01-09T09:32:07Z</time>
      </trkpt>
      <trkpt lat="45.88462" lon="4.68721">
        <ele>312.09</ele>
        <time>2016-01-09T09:32:23Z</time>
      </trkpt>
      <trkpt lat="45.88477" lon="4.68693">
        <ele>314.49</ele>
        <time>2016-01-09T09:32:39Z</time>
      </trkpt>
      <trkpt lat="45.88487" lon="4.68677">
        <ele>315.45</ele>
        <time>2016-01-09T09:32:49Z</time>
      </trkpt>
      <trkpt lat="45.88488" lon="4.68648">
        <ele>317.37</ele>
        <time>2016-01-09T09:33:02Z</time>
      </trkpt>
      <trkpt lat="45.88487" lon="4.68618">
        <ele>320.74</ele>
        <time>2016-01-09T09:33:16Z</time>
      </trkpt>
      <trkpt lat="45.88489" lon="4.68596">
        <ele>323.14</ele>
        <time>2016-01-09T09:33:27Z</time>
      </trkpt>
      <trkpt lat="45.88489" lon="4.68594">
        <ele>322.66</ele>
        <time>2016-01-09T09:33:28Z</time>
      </trkpt>
      <trkpt lat="45.88489" lon="4.68593">
        <ele>323.14</ele>
        <time>2016-01-09T09:33:29Z</time>
      </trkpt>
      <trkpt lat="45.88489" lon="4.68591">
        <ele>323.62</ele>
        <time>2016-01-09T09:33:30Z</time>
      </trkpt>
      <trkpt lat="45.88489" lon="4.68589">
        <ele>323.62</ele>
        <time>2016-01-09T09:33:31Z</time>
      </trkpt>
      <trkpt lat="45.88489" lon="4.68588">
        <ele>324.1</ele>
        <time>2016-01-09T09:33:32Z</time>
      </trkpt>
      <trkpt lat="45.8849" lon="4.68587">
        <ele>324.1</ele>
        <time>2016-01-09T09:33:33Z</time>
      </trkpt>
      <trkpt lat="45.8849" lon="4.68585">
        <ele>324.1</ele>
        <time>2016-01-09T09:33:34Z</time>
      </trkpt>
      <trkpt lat="45.88491" lon="4.68584">
        <ele>324.58</ele>
        <time>2016-01-09T09:33:35Z</time>
      </trkpt>
      <trkpt lat="45.88491" lon="4.68582">
        <ele>324.58</ele>
        <time>2016-01-09T09:33:36Z</time>
      </trkpt>
      <trkpt lat="45.88492" lon="4.6858">
        <ele>325.06</ele>
        <time>2016-01-09T09:33:37Z</time>
      </trkpt>
      <trkpt lat="45.88493" lon="4.68578">
        <ele>325.06</ele>
        <time>2016-01-09T09:33:38Z</time>
      </trkpt>
      <trkpt lat="45.88493" lon="4.68576">
        <ele>325.54</ele>
        <time>2016-01-09T09:33:39Z</time>
      </trkpt>
      <trkpt lat="45.88499" lon="4.68565">
        <ele>326.5</ele>
        <time>2016-01-09T09:33:46Z</time>
      </trkpt>
      <trkpt lat="45.885" lon="4.68564">
        <ele>326.99</ele>
        <time>2016-01-09T09:33:47Z</time>
      </trkpt>
      <trkpt lat="45.88501" lon="4.68562">
        <ele>327.47</ele>
        <time>2016-01-09T09:33:48Z</time>
      </trkpt>
      <trkpt lat="45.88501" lon="4.6856">
        <ele>327.95</ele>
        <time>2016-01-09T09:33:49Z</time>
      </trkpt>
      <trkpt lat="45.88502" lon="4.68558">
        <ele>327.47</ele>
        <time>2016-01-09T09:33:50Z</time>
      </trkpt>
      <trkpt lat="45.88503" lon="4.68556">
        <ele>327.47</ele>
        <time>2016-01-09T09:33:51Z</time>
      </trkpt>
      <trkpt lat="45.88503" lon="4.68555">
        <ele>328.43</ele>
        <time>2016-01-09T09:33:52Z</time>
      </trkpt>
      <trkpt lat="45.88504" lon="4.68554">
        <ele>328.43</ele>
        <time>2016-01-09T09:33:53Z</time>
      </trkpt>
      <trkpt lat="45.88505" lon="4.68552">
        <ele>327.95</ele>
        <time>2016-01-09T09:33:54Z</time>
      </trkpt>
      <trkpt lat="45.88506" lon="4.68551">
        <ele>328.43</ele>
        <time>2016-01-09T09:33:55Z</time>
      </trkpt>
      <trkpt lat="45.88506" lon="4.68549">
        <ele>328.91</ele>
        <time>2016-01-09T09:33:56Z</time>
      </trkpt>
      <trkpt lat="45.88507" lon="4.68548">
        <ele>329.39</ele>
        <time>2016-01-09T09:33:57Z</time>
      </trkpt>
      <trkpt lat="45.88507" lon="4.68546">
        <ele>328.91</ele>
        <time>2016-01-09T09:33:58Z</time>
      </trkpt>
      <trkpt lat="45.88508" lon="4.68544">
        <ele>329.39</ele>
        <time>2016-01-09T09:33:59Z</time>
      </trkpt>
      <trkpt lat="45.88508" lon="4.68543">
        <ele>329.39</ele>
        <time>2016-01-09T09:34:00Z</time>
      </trkpt>
      <trkpt lat="45.88509" lon="4.68541">
        <ele>329.39</ele>
        <time>2016-01-09T09:34:01Z</time>
      </trkpt>
      <trkpt lat="45.8851" lon="4.68539">
        <ele>330.83</ele>
        <time>2016-01-09T09:34:02Z</time>
      </trkpt>
      <trkpt lat="45.8851" lon="4.68537">
        <ele>329.87</ele>
        <time>2016-01-09T09:34:03Z</time>
      </trkpt>
      <trkpt lat="45.88511" lon="4.68536">
        <ele>330.35</ele>
        <time>2016-01-09T09:34:04Z</time>
      </trkpt>
      <trkpt lat="45.88512" lon="4.68535">
        <ele>330.35</ele>
        <time>2016-01-09T09:34:05Z</time>
      </trkpt>
      <trkpt lat="45.88514" lon="4.68534">
        <ele>330.83</ele>
        <time>2016-01-09T09:34:06Z</time>
      </trkpt>
      <trkpt lat="45.88515" lon="4.68533">
        <ele>330.83</ele>
        <time>2016-01-09T09:34:07Z</time>
      </trkpt>
      <trkpt lat="45.88516" lon="4.68532">
        <ele>330.83</ele>
        <time>2016-01-09T09:34:08Z</time>
      </trkpt>
      <trkpt lat="45.88517" lon="4.6853">
        <ele>331.31</ele>
        <time>2016-01-09T09:34:09Z</time>
      </trkpt>
      <trkpt lat="45.88528" lon="4.68505">
        <ele>334.2</ele>
        <time>2016-01-09T09:34:24Z</time>
      </trkpt>
      <trkpt lat="45.88534" lon="4.68486">
        <ele>336.6</ele>
        <time>2016-01-09T09:34:36Z</time>
      </trkpt>
      <trkpt lat="45.88534" lon="4.68485">
        <ele>336.6</ele>
        <time>2016-01-09T09:34:37Z</time>
      </trkpt>
      <trkpt lat="45.88534" lon="4.68483">
        <ele>336.6</ele>
        <time>2016-01-09T09:34:38Z</time>
      </trkpt>
      <trkpt lat="45.88534" lon="4.68481">
        <ele>337.08</ele>
        <time>2016-01-09T09:34:39Z</time>
      </trkpt>
      <trkpt lat="45.88534" lon="4.68479">
        <ele>336.6</ele>
        <time>2016-01-09T09:34:40Z</time>
      </trkpt>
      <trkpt lat="45.88534" lon="4.68478">
        <ele>337.56</ele>
        <time>2016-01-09T09:34:41Z</time>
      </trkpt>
      <trkpt lat="45.88535" lon="4.68476">
        <ele>338.04</ele>
        <time>2016-01-09T09:34:42Z</time>
      </trkpt>
      <trkpt lat="45.88535" lon="4.68474">
        <ele>337.56</ele>
        <time>2016-01-09T09:34:43Z</time>
      </trkpt>
      <trkpt lat="45.88536" lon="4.68472">
        <ele>337.56</ele>
        <time>2016-01-09T09:34:44Z</time>
      </trkpt>
      <trkpt lat="45.88536" lon="4.6847">
        <ele>337.56</ele>
        <time>2016-01-09T09:34:45Z</time>
      </trkpt>
      <trkpt lat="45.88538" lon="4.68452">
        <ele>339.96</ele>
        <time>2016-01-09T09:34:57Z</time>
      </trkpt>
      <trkpt lat="45.88543" lon="4.68445">
        <ele>340.92</ele>
        <time>2016-01-09T09:35:04Z</time>
      </trkpt>
      <trkpt lat="45.88545" lon="4.68444">
        <ele>340.44</ele>
        <time>2016-01-09T09:35:17Z</time>
      </trkpt>
      <trkpt lat="45.88546" lon="4.68443">
        <ele>340.44</ele>
        <time>2016-01-09T09:35:35Z</time>
      </trkpt>
      <trkpt lat="45.88547" lon="4.68442">
        <ele>340.44</ele>
        <time>2016-01-09T09:35:54Z</time>
      </trkpt>
      <trkpt lat="45.88547" lon="4.68442">
        <ele>339.96</ele>
        <time>2016-01-09T09:36:21Z</time>
      </trkpt>
      <trkpt lat="45.88548" lon="4.68442">
        <ele>339.96</ele>
        <time>2016-01-09T09:36:47Z</time>
      </trkpt>
      <trkpt lat="45.88549" lon="4.68442">
        <ele>339.96</ele>
        <time>2016-01-09T09:37:17Z</time>
      </trkpt>
      <trkpt lat="45.88549" lon="4.68442">
        <ele>339.96</ele>
        <time>2016-01-09T09:37:39Z</time>
      </trkpt>
      <trkpt lat="45.88552" lon="4.68439">
        <ele>339.96</ele>
        <time>2016-01-09T09:38:00Z</time>
      </trkpt>
      <trkpt lat="45.88562" lon="4.68427">
        <ele>339.96</ele>
        <time>2016-01-09T09:38:07Z</time>
      </trkpt>
      <trkpt lat="45.88583" lon="4.68403">
        <ele>340.92</ele>
        <time>2016-01-09T09:38:19Z</time>
      </trkpt>
      <trkpt lat="45.88608" lon="4.68373">
        <ele>340.44</ele>
        <time>2016-01-09T09:38:31Z</time>
      </trkpt>
      <trkpt lat="45.88625" lon="4.68339">
        <ele>339</ele>
        <time>2016-01-09T09:38:39Z</time>
      </trkpt>
      <trkpt lat="45.88624" lon="4.68336">
        <ele>339</ele>
        <time>2016-01-09T09:38:40Z</time>
      </trkpt>
      <trkpt lat="45.88622" lon="4.68334">
        <ele>339.48</ele>
        <time>2016-01-09T09:38:41Z</time>
      </trkpt>
      <trkpt lat="45.88606" lon="4.683">
        <ele>342.85</ele>
        <time>2016-01-09T09:38:55Z</time>
      </trkpt>
      <trkpt lat="45.88584" lon="4.6827">
        <ele>345.25</ele>
        <time>2016-01-09T09:39:10Z</time>
      </trkpt>
      <trkpt lat="45.88558" lon="4.68242">
        <ele>346.69</ele>
        <time>2016-01-09T09:39:25Z</time>
      </trkpt>
      <trkpt lat="45.88525" lon="4.68207">
        <ele>347.65</ele>
        <time>2016-01-09T09:39:40Z</time>
      </trkpt>
      <trkpt lat="45.88477" lon="4.68163">
        <ele>348.62</ele>
        <time>2016-01-09T09:39:55Z</time>
      </trkpt>
      <trkpt lat="45.88473" lon="4.6816">
        <ele>349.58</ele>
        <time>2016-01-09T09:39:56Z</time>
      </trkpt>
      <trkpt lat="45.8847" lon="4.68157">
        <ele>348.13</ele>
        <time>2016-01-09T09:39:57Z</time>
      </trkpt>
      <trkpt lat="45.88412" lon="4.68115">
        <ele>350.06</ele>
        <time>2016-01-09T09:40:13Z</time>
      </trkpt>
      <trkpt lat="45.88358" lon="4.68072">
        <ele>350.54</ele>
        <time>2016-01-09T09:40:27Z</time>
      </trkpt>
      <trkpt lat="45.88315" lon="4.68027">
        <ele>351.5</ele>
        <time>2016-01-09T09:40:41Z</time>
      </trkpt>
      <trkpt lat="45.88285" lon="4.67986">
        <ele>354.38</ele>
        <time>2016-01-09T09:40:55Z</time>
      </trkpt>
      <trkpt lat="45.8826" lon="4.67964">
        <ele>357.27</ele>
        <time>2016-01-09T09:41:09Z</time>
      </trkpt>
      <trkpt lat="45.88252" lon="4.67951">
        <ele>358.23</ele>
        <time>2016-01-09T09:41:17Z</time>
      </trkpt>
      <trkpt lat="45.88254" lon="4.67949">
        <ele>358.71</ele>
        <time>2016-01-09T09:41:18Z</time>
      </trkpt>
      <trkpt lat="45.8828" lon="4.67916">
        <ele>359.19</ele>
        <time>2016-01-09T09:41:33Z</time>
      </trkpt>
      <trkpt lat="45.88301" lon="4.67863">
        <ele>358.23</ele>
        <time>2016-01-09T09:41:47Z</time>
      </trkpt>
      <trkpt lat="45.8831" lon="4.67845">
        <ele>356.79</ele>
        <time>2016-01-09T09:41:53Z</time>
      </trkpt>
      <trkpt lat="45.88314" lon="4.67846">
        <ele>356.31</ele>
        <time>2016-01-09T09:41:54Z</time>
      </trkpt>
      <trkpt lat="45.88342" lon="4.67877">
        <ele>353.42</ele>
        <time>2016-01-09T09:42:03Z</time>
      </trkpt>
      <trkpt lat="45.88348" lon="4.67885">
        <ele>352.46</ele>
        <time>2016-01-09T09:42:05Z</time>
      </trkpt>
      <trkpt lat="45.88367" lon="4.67903">
        <ele>349.1</ele>
        <time>2016-01-09T09:42:11Z</time>
      </trkpt>
      <trkpt lat="45.88368" lon="4.67905">
        <ele>348.62</ele>
        <time>2016-01-09T09:42:12Z</time>
      </trkpt>
      <trkpt lat="45.88368" lon="4.67905">
        <ele>348.62</ele>
        <time>2016-01-09T09:42:25Z</time>
      </trkpt>
      <trkpt lat="45.88371" lon="4.67905">
        <ele>348.13</ele>
        <time>2016-01-09T09:42:29Z</time>
      </trkpt>
      <trkpt lat="45.88373" lon="4.67905">
        <ele>347.65</ele>
        <time>2016-01-09T09:42:30Z</time>
      </trkpt>
      <trkpt lat="45.88377" lon="4.67904">
        <ele>347.17</ele>
        <time>2016-01-09T09:42:32Z</time>
      </trkpt>
      <trkpt lat="45.88394" lon="4.67891">
        <ele>344.29</ele>
        <time>2016-01-09T09:42:42Z</time>
      </trkpt>
      <trkpt lat="45.88393" lon="4.67891">
        <ele>339.96</ele>
        <time>2016-01-09T09:42:43Z</time>
      </trkpt>
      <trkpt lat="45.88393" lon="4.67891">
        <ele>346.21</ele>
        <time>2016-01-09T09:42:45Z</time>
      </trkpt>
      <trkpt lat="45.88393" lon="4.6789">
        <ele>344.77</ele>
        <time>2016-01-09T09:42:46Z</time>
      </trkpt>
      <trkpt lat="45.88395" lon="4.67888">
        <ele>344.29</ele>
        <time>2016-01-09T09:42:52Z</time>
      </trkpt>
      <trkpt lat="45.88396" lon="4.67886">
        <ele>344.29</ele>
        <time>2016-01-09T09:42:53Z</time>
      </trkpt>
      <trkpt lat="45.88398" lon="4.67885">
        <ele>343.81</ele>
        <time>2016-01-09T09:42:54Z</time>
      </trkpt>
      <trkpt lat="45.884" lon="4.67884">
        <ele>343.81</ele>
        <time>2016-01-09T09:42:55Z</time>
      </trkpt>
      <trkpt lat="45.88402" lon="4.67882">
        <ele>343.33</ele>
        <time>2016-01-09T09:42:56Z</time>
      </trkpt>
      <trkpt lat="45.88427" lon="4.67857">
        <ele>339</ele>
        <time>2016-01-09T09:43:06Z</time>
      </trkpt>
      <trkpt lat="45.88443" lon="4.67841">
        <ele>336.6</ele>
        <time>2016-01-09T09:43:13Z</time>
      </trkpt>
      <trkpt lat="45.88461" lon="4.6782">
        <ele>333.71</ele>
        <time>2016-01-09T09:43:19Z</time>
      </trkpt>
      <trkpt lat="45.88465" lon="4.67817">
        <ele>333.23</ele>
        <time>2016-01-09T09:43:20Z</time>
      </trkpt>
      <trkpt lat="45.88486" lon="4.67795">
        <ele>329.39</ele>
        <time>2016-01-09T09:43:26Z</time>
      </trkpt>
      <trkpt lat="45.88501" lon="4.67779">
        <ele>326.02</ele>
        <time>2016-01-09T09:43:32Z</time>
      </trkpt>
      <trkpt lat="45.88505" lon="4.67775">
        <ele>326.5</ele>
        <time>2016-01-09T09:43:33Z</time>
      </trkpt>
      <trkpt lat="45.88526" lon="4.67753">
        <ele>323.14</ele>
        <time>2016-01-09T09:43:39Z</time>
      </trkpt>
      <trkpt lat="45.88529" lon="4.6775">
        <ele>323.14</ele>
        <time>2016-01-09T09:43:40Z</time>
      </trkpt>
      <trkpt lat="45.88532" lon="4.67749">
        <ele>322.66</ele>
        <time>2016-01-09T09:43:41Z</time>
      </trkpt>
      <trkpt lat="45.88534" lon="4.67749">
        <ele>323.14</ele>
        <time>2016-01-09T09:43:42Z</time>
      </trkpt>
      <trkpt lat="45.88536" lon="4.6775">
        <ele>322.18</ele>
        <time>2016-01-09T09:43:43Z</time>
      </trkpt>
      <trkpt lat="45.88537" lon="4.67751">
        <ele>322.66</ele>
        <time>2016-01-09T09:43:56Z</time>
      </trkpt>
      <trkpt lat="45.88537" lon="4.67751">
        <ele>322.18</ele>
        <time>2016-01-09T09:44:13Z</time>
      </trkpt>
      <trkpt lat="45.88538" lon="4.67752">
        <ele>322.66</ele>
        <time>2016-01-09T09:44:32Z</time>
      </trkpt>
      <trkpt lat="45.88542" lon="4.67756">
        <ele>322.18</ele>
        <time>2016-01-09T09:44:34Z</time>
      </trkpt>
      <trkpt lat="45.88587" lon="4.678">
        <ele>320.26</ele>
        <time>2016-01-09T09:44:46Z</time>
      </trkpt>
      <trkpt lat="45.8861" lon="4.67826">
        <ele>318.33</ele>
        <time>2016-01-09T09:44:51Z</time>
      </trkpt>
      <trkpt lat="45.88616" lon="4.67829">
        <ele>317.85</ele>
        <time>2016-01-09T09:44:52Z</time>
      </trkpt>
      <trkpt lat="45.88635" lon="4.67837">
        <ele>316.89</ele>
        <time>2016-01-09T09:44:55Z</time>
      </trkpt>
      <trkpt lat="45.88641" lon="4.67839">
        <ele>316.41</ele>
        <time>2016-01-09T09:44:56Z</time>
      </trkpt>
      <trkpt lat="45.88692" lon="4.67865">
        <ele>314.49</ele>
        <time>2016-01-09T09:45:03Z</time>
      </trkpt>
      <trkpt lat="45.8876" lon="4.679">
        <ele>311.6</ele>
        <time>2016-01-09T09:45:13Z</time>
      </trkpt>
      <trkpt lat="45.88789" lon="4.67917">
        <ele>309.68</ele>
        <time>2016-01-09T09:45:18Z</time>
      </trkpt>
      <trkpt lat="45.88795" lon="4.67917">
        <ele>309.68</ele>
        <time>2016-01-09T09:45:19Z</time>
      </trkpt>
      <trkpt lat="45.88801" lon="4.67915">
        <ele>308.72</ele>
        <time>2016-01-09T09:45:20Z</time>
      </trkpt>
      <trkpt lat="45.88806" lon="4.67911">
        <ele>308.72</ele>
        <time>2016-01-09T09:45:21Z</time>
      </trkpt>
      <trkpt lat="45.8881" lon="4.67904">
        <ele>308.72</ele>
        <time>2016-01-09T09:45:22Z</time>
      </trkpt>
      <trkpt lat="45.88813" lon="4.67898">
        <ele>308.24</ele>
        <time>2016-01-09T09:45:23Z</time>
      </trkpt>
      <trkpt lat="45.88814" lon="4.67893">
        <ele>308.24</ele>
        <time>2016-01-09T09:45:24Z</time>
      </trkpt>
      <trkpt lat="45.88819" lon="4.67885">
        <ele>308.24</ele>
        <time>2016-01-09T09:45:26Z</time>
      </trkpt>
      <trkpt lat="45.88823" lon="4.67883">
        <ele>308.24</ele>
        <time>2016-01-09T09:45:27Z</time>
      </trkpt>
      <trkpt lat="45.88828" lon="4.67883">
        <ele>308.24</ele>
        <time>2016-01-09T09:45:28Z</time>
      </trkpt>
      <trkpt lat="45.88833" lon="4.67883">
        <ele>308.24</ele>
        <time>2016-01-09T09:45:29Z</time>
      </trkpt>
      <trkpt lat="45.88837" lon="4.67883">
        <ele>308.24</ele>
        <time>2016-01-09T09:45:30Z</time>
      </trkpt>
      <trkpt lat="45.8884" lon="4.67881">
        <ele>308.24</ele>
        <time>2016-01-09T09:45:31Z</time>
      </trkpt>
      <trkpt lat="45.88844" lon="4.6788">
        <ele>309.2</ele>
        <time>2016-01-09T09:45:32Z</time>
      </trkpt>
      <trkpt lat="45.8886" lon="4.67875">
        <ele>309.2</ele>
        <time>2016-01-09T09:45:37Z</time>
      </trkpt>
      <trkpt lat="45.88863" lon="4.67874">
        <ele>309.68</ele>
        <time>2016-01-09T09:45:38Z</time>
      </trkpt>
      <trkpt lat="45.88896" lon="4.67851">
        <ele>311.6</ele>
        <time>2016-01-09T09:45:53Z</time>
      </trkpt>
      <trkpt lat="45.88914" lon="4.67839">
        <ele>314.49</ele>
        <time>2016-01-09T09:46:04Z</time>
      </trkpt>
      <trkpt lat="45.88929" lon="4.67832">
        <ele>317.85</ele>
        <time>2016-01-09T09:46:16Z</time>
      </trkpt>
      <trkpt lat="45.88931" lon="4.67832">
        <ele>317.85</ele>
        <time>2016-01-09T09:46:17Z</time>
      </trkpt>
      <trkpt lat="45.88947" lon="4.67829">
        <ele>320.26</ele>
        <time>2016-01-09T09:46:30Z</time>
      </trkpt>
      <trkpt lat="45.88967" lon="4.67827">
        <ele>324.1</ele>
        <time>2016-01-09T09:46:43Z</time>
      </trkpt>
      <trkpt lat="45.88971" lon="4.67825">
        <ele>324.58</ele>
        <time>2016-01-09T09:46:47Z</time>
      </trkpt>
      <trkpt lat="45.88972" lon="4.67823">
        <ele>324.58</ele>
        <time>2016-01-09T09:46:48Z</time>
      </trkpt>
      <trkpt lat="45.88972" lon="4.67821">
        <ele>324.1</ele>
        <time>2016-01-09T09:46:49Z</time>
      </trkpt>
      <trkpt lat="45.88971" lon="4.67788">
        <ele>325.54</ele>
        <time>2016-01-09T09:47:06Z</time>
      </trkpt>
      <trkpt lat="45.88969" lon="4.67759">
        <ele>328.91</ele>
        <time>2016-01-09T09:47:23Z</time>
      </trkpt>
      <trkpt lat="45.88969" lon="4.67733">
        <ele>329.87</ele>
        <time>2016-01-09T09:47:37Z</time>
      </trkpt>
      <trkpt lat="45.88966" lon="4.67708">
        <ele>332.75</ele>
        <time>2016-01-09T09:47:51Z</time>
      </trkpt>
      <trkpt lat="45.88962" lon="4.67681">
        <ele>334.68</ele>
        <time>2016-01-09T09:48:06Z</time>
      </trkpt>
      <trkpt lat="45.88959" lon="4.67652">
        <ele>337.56</ele>
        <time>2016-01-09T09:48:22Z</time>
      </trkpt>
      <trkpt lat="45.88956" lon="4.67629">
        <ele>339.48</ele>
        <time>2016-01-09T09:48:35Z</time>
      </trkpt>
      <trkpt lat="45.88955" lon="4.67618">
        <ele>340.44</ele>
        <time>2016-01-09T09:48:41Z</time>
      </trkpt>
      <trkpt lat="45.88955" lon="4.67616">
        <ele>340.92</ele>
        <time>2016-01-09T09:48:42Z</time>
      </trkpt>
      <trkpt lat="45.88955" lon="4.67614">
        <ele>340.44</ele>
        <time>2016-01-09T09:48:43Z</time>
      </trkpt>
      <trkpt lat="45.88955" lon="4.67612">
        <ele>340.44</ele>
        <time>2016-01-09T09:48:44Z</time>
      </trkpt>
      <trkpt lat="45.88955" lon="4.67611">
        <ele>340.44</ele>
        <time>2016-01-09T09:48:45Z</time>
      </trkpt>
      <trkpt lat="45.88956" lon="4.67582">
        <ele>343.33</ele>
        <time>2016-01-09T09:49:01Z</time>
      </trkpt>
      <trkpt lat="45.88956" lon="4.67576">
        <ele>343.81</ele>
        <time>2016-01-09T09:49:04Z</time>
      </trkpt>
      <trkpt lat="45.88956" lon="4.67574">
        <ele>344.29</ele>
        <time>2016-01-09T09:49:05Z</time>
      </trkpt>
      <trkpt lat="45.88956" lon="4.67573">
        <ele>344.29</ele>
        <time>2016-01-09T09:49:06Z</time>
      </trkpt>
      <trkpt lat="45.88956" lon="4.67571">
        <ele>344.29</ele>
        <time>2016-01-09T09:49:07Z</time>
      </trkpt>
      <trkpt lat="45.88957" lon="4.67569">
        <ele>345.25</ele>
        <time>2016-01-09T09:49:08Z</time>
      </trkpt>
      <trkpt lat="45.88957" lon="4.67567">
        <ele>344.77</ele>
        <time>2016-01-09T09:49:09Z</time>
      </trkpt>
      <trkpt lat="45.88957" lon="4.67566">
        <ele>345.25</ele>
        <time>2016-01-09T09:49:10Z</time>
      </trkpt>
      <trkpt lat="45.88958" lon="4.67565">
        <ele>345.25</ele>
        <time>2016-01-09T09:49:11Z</time>
      </trkpt>
      <trkpt lat="45.88965" lon="4.6754">
        <ele>347.17</ele>
        <time>2016-01-09T09:49:27Z</time>
      </trkpt>
      <trkpt lat="45.88971" lon="4.67513">
        <ele>349.58</ele>
        <time>2016-01-09T09:49:43Z</time>
      </trkpt>
      <trkpt lat="45.88978" lon="4.67486">
        <ele>351.98</ele>
        <time>2016-01-09T09:50:00Z</time>
      </trkpt>
      <trkpt lat="45.88986" lon="4.67459">
        <ele>354.86</ele>
        <time>2016-01-09T09:50:16Z</time>
      </trkpt>
      <trkpt lat="45.88987" lon="4.67457">
        <ele>355.34</ele>
        <time>2016-01-09T09:50:17Z</time>
      </trkpt>
      <trkpt lat="45.88996" lon="4.67436">
        <ele>357.75</ele>
        <time>2016-01-09T09:50:30Z</time>
      </trkpt>
      <trkpt lat="45.88997" lon="4.67434">
        <ele>358.23</ele>
        <time>2016-01-09T09:50:31Z</time>
      </trkpt>
      <trkpt lat="45.88997" lon="4.67433">
        <ele>358.71</ele>
        <time>2016-01-09T09:50:32Z</time>
      </trkpt>
      <trkpt lat="45.88998" lon="4.67432">
        <ele>358.71</ele>
        <time>2016-01-09T09:50:33Z</time>
      </trkpt>
      <trkpt lat="45.88999" lon="4.6743">
        <ele>358.71</ele>
        <time>2016-01-09T09:50:34Z</time>
      </trkpt>
      <trkpt lat="45.88999" lon="4.67428">
        <ele>359.19</ele>
        <time>2016-01-09T09:50:35Z</time>
      </trkpt>
      <trkpt lat="45.89" lon="4.67427">
        <ele>359.19</ele>
        <time>2016-01-09T09:50:36Z</time>
      </trkpt>
      <trkpt lat="45.89001" lon="4.67425">
        <ele>359.19</ele>
        <time>2016-01-09T09:50:37Z</time>
      </trkpt>
      <trkpt lat="45.89001" lon="4.67424">
        <ele>359.67</ele>
        <time>2016-01-09T09:50:38Z</time>
      </trkpt>
      <trkpt lat="45.89002" lon="4.67423">
        <ele>359.67</ele>
        <time>2016-01-09T09:50:39Z</time>
      </trkpt>
      <trkpt lat="45.89003" lon="4.67421">
        <ele>360.15</ele>
        <time>2016-01-09T09:50:40Z</time>
      </trkpt>
      <trkpt lat="45.89004" lon="4.6742">
        <ele>360.15</ele>
        <time>2016-01-09T09:50:41Z</time>
      </trkpt>
      <trkpt lat="45.89005" lon="4.67418">
        <ele>360.63</ele>
        <time>2016-01-09T09:50:42Z</time>
      </trkpt>
      <trkpt lat="45.89005" lon="4.67417">
        <ele>360.63</ele>
        <time>2016-01-09T09:50:43Z</time>
      </trkpt>
      <trkpt lat="45.89006" lon="4.67416">
        <ele>361.59</ele>
        <time>2016-01-09T09:50:44Z</time>
      </trkpt>
      <trkpt lat="45.89007" lon="4.67414">
        <ele>361.11</ele>
        <time>2016-01-09T09:50:45Z</time>
      </trkpt>
      <trkpt lat="45.89008" lon="4.6741">
        <ele>362.07</ele>
        <time>2016-01-09T09:50:48Z</time>
      </trkpt>
      <trkpt lat="45.89008" lon="4.67387">
        <ele>364</ele>
        <time>2016-01-09T09:51:00Z</time>
      </trkpt>
      <trkpt lat="45.89008" lon="4.67385">
        <ele>364.96</ele>
        <time>2016-01-09T09:51:01Z</time>
      </trkpt>
      <trkpt lat="45.89008" lon="4.67384">
        <ele>364.48</ele>
        <time>2016-01-09T09:51:02Z</time>
      </trkpt>
      <trkpt lat="45.89008" lon="4.67382">
        <ele>364.48</ele>
        <time>2016-01-09T09:51:03Z</time>
      </trkpt>
      <trkpt lat="45.89007" lon="4.6738">
        <ele>364.96</ele>
        <time>2016-01-09T09:51:04Z</time>
      </trkpt>
      <trkpt lat="45.89007" lon="4.67379">
        <ele>365.44</ele>
        <time>2016-01-09T09:51:05Z</time>
      </trkpt>
      <trkpt lat="45.89007" lon="4.67377">
        <ele>365.92</ele>
        <time>2016-01-09T09:51:06Z</time>
      </trkpt>
      <trkpt lat="45.89006" lon="4.67372">
        <ele>366.4</ele>
        <time>2016-01-09T09:51:09Z</time>
      </trkpt>
      <trkpt lat="45.89005" lon="4.67367">
        <ele>367.36</ele>
        <time>2016-01-09T09:51:13Z</time>
      </trkpt>
      <trkpt lat="45.89002" lon="4.6734">
        <ele>370.73</ele>
        <time>2016-01-09T09:51:28Z</time>
      </trkpt>
      <trkpt lat="45.89002" lon="4.67338">
        <ele>370.73</ele>
        <time>2016-01-09T09:51:29Z</time>
      </trkpt>
      <trkpt lat="45.89002" lon="4.67312">
        <ele>374.09</ele>
        <time>2016-01-09T09:51:44Z</time>
      </trkpt>
      <trkpt lat="45.89003" lon="4.67284">
        <ele>377.94</ele>
        <time>2016-01-09T09:52:01Z</time>
      </trkpt>
      <trkpt lat="45.89011" lon="4.6726">
        <ele>380.34</ele>
        <time>2016-01-09T09:52:16Z</time>
      </trkpt>
      <trkpt lat="45.89011" lon="4.6726">
        <ele>380.34</ele>
        <time>2016-01-09T09:52:33Z</time>
      </trkpt>
      <trkpt lat="45.89011" lon="4.67259">
        <ele>379.86</ele>
        <time>2016-01-09T09:52:58Z</time>
      </trkpt>
      <trkpt lat="45.89012" lon="4.67257">
        <ele>376.49</ele>
        <time>2016-01-09T09:53:07Z</time>
      </trkpt>
      <trkpt lat="45.89012" lon="4.67257">
        <ele>380.82</ele>
        <time>2016-01-09T09:53:08Z</time>
      </trkpt>
      <trkpt lat="45.89012" lon="4.67257">
        <ele>379.86</ele>
        <time>2016-01-09T09:53:12Z</time>
      </trkpt>
      <trkpt lat="45.89011" lon="4.67256">
        <ele>381.3</ele>
        <time>2016-01-09T09:53:22Z</time>
      </trkpt>
      <trkpt lat="45.89012" lon="4.67251">
        <ele>381.3</ele>
        <time>2016-01-09T09:53:25Z</time>
      </trkpt>
      <trkpt lat="45.89013" lon="4.67249">
        <ele>381.3</ele>
        <time>2016-01-09T09:53:26Z</time>
      </trkpt>
      <trkpt lat="45.89014" lon="4.67248">
        <ele>380.82</ele>
        <time>2016-01-09T09:53:27Z</time>
      </trkpt>
      <trkpt lat="45.89016" lon="4.67244">
        <ele>381.3</ele>
        <time>2016-01-09T09:53:30Z</time>
      </trkpt>
      <trkpt lat="45.89017" lon="4.67242">
        <ele>382.74</ele>
        <time>2016-01-09T09:53:31Z</time>
      </trkpt>
      <trkpt lat="45.89017" lon="4.67241">
        <ele>382.74</ele>
        <time>2016-01-09T09:53:32Z</time>
      </trkpt>
      <trkpt lat="45.89023" lon="4.67228">
        <ele>384.66</ele>
        <time>2016-01-09T09:53:41Z</time>
      </trkpt>
      <trkpt lat="45.89024" lon="4.67226">
        <ele>384.66</ele>
        <time>2016-01-09T09:53:42Z</time>
      </trkpt>
      <trkpt lat="45.89034" lon="4.67203">
        <ele>387.55</ele>
        <time>2016-01-09T09:53:57Z</time>
      </trkpt>
      <trkpt lat="45.89045" lon="4.67177">
        <ele>389.95</ele>
        <time>2016-01-09T09:54:14Z</time>
      </trkpt>
      <trkpt lat="45.89051" lon="4.67165">
        <ele>391.39</ele>
        <time>2016-01-09T09:54:23Z</time>
      </trkpt>
      <trkpt lat="45.89052" lon="4.67163">
        <ele>391.87</ele>
        <time>2016-01-09T09:54:24Z</time>
      </trkpt>
      <trkpt lat="45.89063" lon="4.67139">
        <ele>394.76</ele>
        <time>2016-01-09T09:54:41Z</time>
      </trkpt>
      <trkpt lat="45.89064" lon="4.67137">
        <ele>395.24</ele>
        <time>2016-01-09T09:54:43Z</time>
      </trkpt>
      <trkpt lat="45.89064" lon="4.67135">
        <ele>394.76</ele>
        <time>2016-01-09T09:54:44Z</time>
      </trkpt>
      <trkpt lat="45.89072" lon="4.67116">
        <ele>397.64</ele>
        <time>2016-01-09T09:54:58Z</time>
      </trkpt>
      <trkpt lat="45.89073" lon="4.67115">
        <ele>397.64</ele>
        <time>2016-01-09T09:54:59Z</time>
      </trkpt>
      <trkpt lat="45.89079" lon="4.67102">
        <ele>399.57</ele>
        <time>2016-01-09T09:55:08Z</time>
      </trkpt>
      <trkpt lat="45.8908" lon="4.67101">
        <ele>400.05</ele>
        <time>2016-01-09T09:55:09Z</time>
      </trkpt>
      <trkpt lat="45.8908" lon="4.671">
        <ele>399.57</ele>
        <time>2016-01-09T09:55:10Z</time>
      </trkpt>
      <trkpt lat="45.89081" lon="4.67099">
        <ele>400.05</ele>
        <time>2016-01-09T09:55:11Z</time>
      </trkpt>
      <trkpt lat="45.89082" lon="4.67098">
        <ele>400.53</ele>
        <time>2016-01-09T09:55:12Z</time>
      </trkpt>
      <trkpt lat="45.89093" lon="4.67075">
        <ele>403.41</ele>
        <time>2016-01-09T09:55:28Z</time>
      </trkpt>
      <trkpt lat="45.89102" lon="4.67053">
        <ele>405.81</ele>
        <time>2016-01-09T09:55:44Z</time>
      </trkpt>
      <trkpt lat="45.89107" lon="4.67034">
        <ele>407.74</ele>
        <time>2016-01-09T09:55:57Z</time>
      </trkpt>
      <trkpt lat="45.89107" lon="4.67033">
        <ele>408.22</ele>
        <time>2016-01-09T09:55:58Z</time>
      </trkpt>
      <trkpt lat="45.89107" lon="4.67029">
        <ele>408.7</ele>
        <time>2016-01-09T09:56:01Z</time>
      </trkpt>
      <trkpt lat="45.89112" lon="4.67011">
        <ele>410.14</ele>
        <time>2016-01-09T09:56:13Z</time>
      </trkpt>
      <trkpt lat="45.89112" lon="4.67009">
        <ele>410.62</ele>
        <time>2016-01-09T09:56:14Z</time>
      </trkpt>
      <trkpt lat="45.89112" lon="4.67007">
        <ele>410.62</ele>
        <time>2016-01-09T09:56:15Z</time>
      </trkpt>
      <trkpt lat="45.89112" lon="4.67006">
        <ele>410.62</ele>
        <time>2016-01-09T09:56:16Z</time>
      </trkpt>
      <trkpt lat="45.89112" lon="4.67004">
        <ele>411.1</ele>
        <time>2016-01-09T09:56:17Z</time>
      </trkpt>
      <trkpt lat="45.89112" lon="4.67002">
        <ele>411.1</ele>
        <time>2016-01-09T09:56:18Z</time>
      </trkpt>
      <trkpt lat="45.89122" lon="4.66978">
        <ele>413.5</ele>
        <time>2016-01-09T09:56:34Z</time>
      </trkpt>
      <trkpt lat="45.89125" lon="4.66975">
        <ele>414.47</ele>
        <time>2016-01-09T09:56:37Z</time>
      </trkpt>
      <trkpt lat="45.89126" lon="4.66974">
        <ele>414.47</ele>
        <time>2016-01-09T09:56:38Z</time>
      </trkpt>
      <trkpt lat="45.89128" lon="4.66974">
        <ele>414.95</ele>
        <time>2016-01-09T09:56:39Z</time>
      </trkpt>
      <trkpt lat="45.89129" lon="4.66973">
        <ele>414.47</ele>
        <time>2016-01-09T09:56:40Z</time>
      </trkpt>
      <trkpt lat="45.8913" lon="4.66973">
        <ele>414.47</ele>
        <time>2016-01-09T09:56:41Z</time>
      </trkpt>
      <trkpt lat="45.89138" lon="4.66969">
        <ele>414.95</ele>
        <time>2016-01-09T09:56:48Z</time>
      </trkpt>
      <trkpt lat="45.89143" lon="4.66965">
        <ele>415.43</ele>
        <time>2016-01-09T09:56:53Z</time>
      </trkpt>
      <trkpt lat="45.89145" lon="4.66964">
        <ele>415.43</ele>
        <time>2016-01-09T09:56:56Z</time>
      </trkpt>
      <trkpt lat="45.89146" lon="4.66961">
        <ele>415.91</ele>
        <time>2016-01-09T09:56:58Z</time>
      </trkpt>
      <trkpt lat="45.89147" lon="4.6696">
        <ele>415.43</ele>
        <time>2016-01-09T09:56:59Z</time>
      </trkpt>
      <trkpt lat="45.8915" lon="4.66963">
        <ele>415.43</ele>
        <time>2016-01-09T09:57:06Z</time>
      </trkpt>
      <trkpt lat="45.8915" lon="4.66965">
        <ele>415.91</ele>
        <time>2016-01-09T09:57:07Z</time>
      </trkpt>
      <trkpt lat="45.8915" lon="4.66967">
        <ele>415.43</ele>
        <time>2016-01-09T09:57:08Z</time>
      </trkpt>
      <trkpt lat="45.89149" lon="4.66968">
        <ele>414.95</ele>
        <time>2016-01-09T09:57:09Z</time>
      </trkpt>
      <trkpt lat="45.89147" lon="4.66967">
        <ele>415.91</ele>
        <time>2016-01-09T09:57:20Z</time>
      </trkpt>
      <trkpt lat="45.89146" lon="4.66967">
        <ele>415.43</ele>
        <time>2016-01-09T09:57:38Z</time>
      </trkpt>
      <trkpt lat="45.89146" lon="4.66967">
        <ele>415.43</ele>
        <time>2016-01-09T09:58:14Z</time>
      </trkpt>
      <trkpt lat="45.89146" lon="4.66967">
        <ele>414.95</ele>
        <time>2016-01-09T09:58:41Z</time>
      </trkpt>
      <trkpt lat="45.89146" lon="4.66967">
        <ele>415.43</ele>
        <time>2016-01-09T09:59:09Z</time>
      </trkpt>
      <trkpt lat="45.89147" lon="4.66967">
        <ele>415.43</ele>
        <time>2016-01-09T09:59:42Z</time>
      </trkpt>
      <trkpt lat="45.89147" lon="4.66967">
        <ele>414.95</ele>
        <time>2016-01-09T10:00:06Z</time>
      </trkpt>
      <trkpt lat="45.89147" lon="4.66967">
        <ele>414.95</ele>
        <time>2016-01-09T10:00:31Z</time>
      </trkpt>
      <trkpt lat="45.89147" lon="4.66967">
        <ele>414.95</ele>
        <time>2016-01-09T10:00:51Z</time>
      </trkpt>
      <trkpt lat="45.8915" lon="4.66964">
        <ele>414.95</ele>
        <time>2016-01-09T10:01:04Z</time>
      </trkpt>
      <trkpt lat="45.8915" lon="4.66964">
        <ele>414.95</ele>
        <time>2016-01-09T10:01:06Z</time>
      </trkpt>
      <trkpt lat="45.89151" lon="4.66963">
        <ele>415.43</ele>
        <time>2016-01-09T10:01:07Z</time>
      </trkpt>
      <trkpt lat="45.89151" lon="4.66961">
        <ele>415.43</ele>
        <time>2016-01-09T10:01:08Z</time>
      </trkpt>
      <trkpt lat="45.89152" lon="4.66959">
        <ele>415.43</ele>
        <time>2016-01-09T10:01:09Z</time>
      </trkpt>
      <trkpt lat="45.89153" lon="4.66958">
        <ele>414.95</ele>
        <time>2016-01-09T10:01:10Z</time>
      </trkpt>
      <trkpt lat="45.89153" lon="4.66956">
        <ele>414.95</ele>
        <time>2016-01-09T10:01:11Z</time>
      </trkpt>
      <trkpt lat="45.89153" lon="4.66954">
        <ele>415.91</ele>
        <time>2016-01-09T10:01:12Z</time>
      </trkpt>
      <trkpt lat="45.89153" lon="4.66952">
        <ele>415.91</ele>
        <time>2016-01-09T10:01:13Z</time>
      </trkpt>
      <trkpt lat="45.89153" lon="4.6695">
        <ele>415.91</ele>
        <time>2016-01-09T10:01:14Z</time>
      </trkpt>
      <trkpt lat="45.89153" lon="4.66947">
        <ele>415.91</ele>
        <time>2016-01-09T10:01:15Z</time>
      </trkpt>
      <trkpt lat="45.89154" lon="4.6691">
        <ele>417.83</ele>
        <time>2016-01-09T10:01:29Z</time>
      </trkpt>
      <trkpt lat="45.89152" lon="4.66887">
        <ele>416.87</ele>
        <time>2016-01-09T10:01:37Z</time>
      </trkpt>
      <trkpt lat="45.89122" lon="4.66874">
        <ele>418.79</ele>
        <time>2016-01-09T10:01:51Z</time>
      </trkpt>
      <trkpt lat="45.89087" lon="4.66862">
        <ele>419.75</ele>
        <time>2016-01-09T10:02:07Z</time>
      </trkpt>
      <trkpt lat="45.8908" lon="4.66857">
        <ele>420.71</ele>
        <time>2016-01-09T10:02:11Z</time>
      </trkpt>
      <trkpt lat="45.89079" lon="4.66855">
        <ele>420.23</ele>
        <time>2016-01-09T10:02:12Z</time>
      </trkpt>
      <trkpt lat="45.89079" lon="4.66852">
        <ele>421.19</ele>
        <time>2016-01-09T10:02:13Z</time>
      </trkpt>
      <trkpt lat="45.8908" lon="4.66849">
        <ele>420.23</ele>
        <time>2016-01-09T10:02:14Z</time>
      </trkpt>
      <trkpt lat="45.89081" lon="4.66847">
        <ele>420.71</ele>
        <time>2016-01-09T10:02:15Z</time>
      </trkpt>
      <trkpt lat="45.89081" lon="4.66844">
        <ele>420.71</ele>
        <time>2016-01-09T10:02:16Z</time>
      </trkpt>
      <trkpt lat="45.89082" lon="4.66841">
        <ele>420.71</ele>
        <time>2016-01-09T10:02:17Z</time>
      </trkpt>
      <trkpt lat="45.89083" lon="4.66839">
        <ele>421.19</ele>
        <time>2016-01-09T10:02:18Z</time>
      </trkpt>
      <trkpt lat="45.89099" lon="4.66805">
        <ele>418.31</ele>
        <time>2016-01-09T10:02:28Z</time>
      </trkpt>
      <trkpt lat="45.891" lon="4.66802">
        <ele>417.83</ele>
        <time>2016-01-09T10:02:29Z</time>
      </trkpt>
      <trkpt lat="45.89104" lon="4.66795">
        <ele>417.83</ele>
        <time>2016-01-09T10:02:34Z</time>
      </trkpt>
      <trkpt lat="45.89109" lon="4.66797">
        <ele>417.83</ele>
        <time>2016-01-09T10:02:36Z</time>
      </trkpt>
      <trkpt lat="45.8911" lon="4.66798">
        <ele>417.83</ele>
        <time>2016-01-09T10:02:37Z</time>
      </trkpt>
      <trkpt lat="45.89112" lon="4.668">
        <ele>417.83</ele>
        <time>2016-01-09T10:02:38Z</time>
      </trkpt>
      <trkpt lat="45.89114" lon="4.66801">
        <ele>418.31</ele>
        <time>2016-01-09T10:02:39Z</time>
      </trkpt>
      <trkpt lat="45.89116" lon="4.66802">
        <ele>418.31</ele>
        <time>2016-01-09T10:02:40Z</time>
      </trkpt>
      <trkpt lat="45.89118" lon="4.66803">
        <ele>418.31</ele>
        <time>2016-01-09T10:02:41Z</time>
      </trkpt>
      <trkpt lat="45.89121" lon="4.66804">
        <ele>417.83</ele>
        <time>2016-01-09T10:02:42Z</time>
      </trkpt>
      <trkpt lat="45.89156" lon="4.66825">
        <ele>416.87</ele>
        <time>2016-01-09T10:02:53Z</time>
      </trkpt>
      <trkpt lat="45.89157" lon="4.6683">
        <ele>416.87</ele>
        <time>2016-01-09T10:02:54Z</time>
      </trkpt>
      <trkpt lat="45.89158" lon="4.66834">
        <ele>416.87</ele>
        <time>2016-01-09T10:02:55Z</time>
      </trkpt>
      <trkpt lat="45.89157" lon="4.66838">
        <ele>416.87</ele>
        <time>2016-01-09T10:02:56Z</time>
      </trkpt>
      <trkpt lat="45.89157" lon="4.66842">
        <ele>417.35</ele>
        <time>2016-01-09T10:02:57Z</time>
      </trkpt>
      <trkpt lat="45.89156" lon="4.66846">
        <ele>416.87</ele>
        <time>2016-01-09T10:02:58Z</time>
      </trkpt>
      <trkpt lat="45.89157" lon="4.66849">
        <ele>417.35</ele>
        <time>2016-01-09T10:02:59Z</time>
      </trkpt>
      <trkpt lat="45.89158" lon="4.66852">
        <ele>416.87</ele>
        <time>2016-01-09T10:03:00Z</time>
      </trkpt>
      <trkpt lat="45.8916" lon="4.66854">
        <ele>417.83</ele>
        <time>2016-01-09T10:03:01Z</time>
      </trkpt>
      <trkpt lat="45.89162" lon="4.66855">
        <ele>417.83</ele>
        <time>2016-01-09T10:03:02Z</time>
      </trkpt>
      <trkpt lat="45.89164" lon="4.66857">
        <ele>417.83</ele>
        <time>2016-01-09T10:03:03Z</time>
      </trkpt>
      <trkpt lat="45.89192" lon="4.66872">
        <ele>419.27</ele>
        <time>2016-01-09T10:03:17Z</time>
      </trkpt>
      <trkpt lat="45.89216" lon="4.66882">
        <ele>421.19</ele>
        <time>2016-01-09T10:03:32Z</time>
      </trkpt>
      <trkpt lat="45.89236" lon="4.66891">
        <ele>423.6</ele>
        <time>2016-01-09T10:03:46Z</time>
      </trkpt>
      <trkpt lat="45.89256" lon="4.66901">
        <ele>426</ele>
        <time>2016-01-09T10:04:00Z</time>
      </trkpt>
      <trkpt lat="45.89264" lon="4.66906">
        <ele>426.48</ele>
        <time>2016-01-09T10:04:06Z</time>
      </trkpt>
      <trkpt lat="45.89281" lon="4.66914">
        <ele>429.85</ele>
        <time>2016-01-09T10:04:19Z</time>
      </trkpt>
      <trkpt lat="45.893" lon="4.66922">
        <ele>432.25</ele>
        <time>2016-01-09T10:04:33Z</time>
      </trkpt>
      <trkpt lat="45.89318" lon="4.66929">
        <ele>435.61</ele>
        <time>2016-01-09T10:04:47Z</time>
      </trkpt>
      <trkpt lat="45.89319" lon="4.66929">
        <ele>435.61</ele>
        <time>2016-01-09T10:04:48Z</time>
      </trkpt>
      <trkpt lat="45.8932" lon="4.6693">
        <ele>435.61</ele>
        <time>2016-01-09T10:04:49Z</time>
      </trkpt>
      <trkpt lat="45.89338" lon="4.66941">
        <ele>438.98</ele>
        <time>2016-01-09T10:05:05Z</time>
      </trkpt>
      <trkpt lat="45.89349" lon="4.66946">
        <ele>439.46</ele>
        <time>2016-01-09T10:05:13Z</time>
      </trkpt>
      <trkpt lat="45.8935" lon="4.66946">
        <ele>439.94</ele>
        <time>2016-01-09T10:05:14Z</time>
      </trkpt>
      <trkpt lat="45.89351" lon="4.66947">
        <ele>439.94</ele>
        <time>2016-01-09T10:05:15Z</time>
      </trkpt>
      <trkpt lat="45.89353" lon="4.66948">
        <ele>439.46</ele>
        <time>2016-01-09T10:05:16Z</time>
      </trkpt>
      <trkpt lat="45.89354" lon="4.66949">
        <ele>440.42</ele>
        <time>2016-01-09T10:05:17Z</time>
      </trkpt>
      <trkpt lat="45.89373" lon="4.66966">
        <ele>441.86</ele>
        <time>2016-01-09T10:05:31Z</time>
      </trkpt>
      <trkpt lat="45.89398" lon="4.66994">
        <ele>444.75</ele>
        <time>2016-01-09T10:05:46Z</time>
      </trkpt>
      <trkpt lat="45.89402" lon="4.66999">
        <ele>442.82</ele>
        <time>2016-01-09T10:05:48Z</time>
      </trkpt>
      <trkpt lat="45.89441" lon="4.67039">
        <ele>442.82</ele>
        <time>2016-01-09T10:06:03Z</time>
      </trkpt>
      <trkpt lat="45.89474" lon="4.67073">
        <ele>441.38</ele>
        <time>2016-01-09T10:06:14Z</time>
      </trkpt>
      <trkpt lat="45.89493" lon="4.6709">
        <ele>440.9</ele>
        <time>2016-01-09T10:06:20Z</time>
      </trkpt>
      <trkpt lat="45.89517" lon="4.67079">
        <ele>441.86</ele>
        <time>2016-01-09T10:06:32Z</time>
      </trkpt>
      <trkpt lat="45.8953" lon="4.67069">
        <ele>443.31</ele>
        <time>2016-01-09T10:06:40Z</time>
      </trkpt>
      <trkpt lat="45.89539" lon="4.67063">
        <ele>444.27</ele>
        <time>2016-01-09T10:06:46Z</time>
      </trkpt>
      <trkpt lat="45.89561" lon="4.6705">
        <ele>446.19</ele>
        <time>2016-01-09T10:07:00Z</time>
      </trkpt>
      <trkpt lat="45.89568" lon="4.67046">
        <ele>445.71</ele>
        <time>2016-01-09T10:07:05Z</time>
      </trkpt>
      <trkpt lat="45.89582" lon="4.67044">
        <ele>445.71</ele>
        <time>2016-01-09T10:07:14Z</time>
      </trkpt>
      <trkpt lat="45.89586" lon="4.67046">
        <ele>445.71</ele>
        <time>2016-01-09T10:07:18Z</time>
      </trkpt>
      <trkpt lat="45.8959" lon="4.67048">
        <ele>445.23</ele>
        <time>2016-01-09T10:07:21Z</time>
      </trkpt>
      <trkpt lat="45.89596" lon="4.67054">
        <ele>445.23</ele>
        <time>2016-01-09T10:07:26Z</time>
      </trkpt>
      <trkpt lat="45.89609" lon="4.67069">
        <ele>444.75</ele>
        <time>2016-01-09T10:07:35Z</time>
      </trkpt>
      <trkpt lat="45.8965" lon="4.67101">
        <ele>442.82</ele>
        <time>2016-01-09T10:07:49Z</time>
      </trkpt>
      <trkpt lat="45.89654" lon="4.67105">
        <ele>441.86</ele>
        <time>2016-01-09T10:07:50Z</time>
      </trkpt>
      <trkpt lat="45.8968" lon="4.67118">
        <ele>440.9</ele>
        <time>2016-01-09T10:07:56Z</time>
      </trkpt>
      <trkpt lat="45.89709" lon="4.67119">
        <ele>440.42</ele>
        <time>2016-01-09T10:08:02Z</time>
      </trkpt>
      <trkpt lat="45.89759" lon="4.67122">
        <ele>438.5</ele>
        <time>2016-01-09T10:08:13Z</time>
      </trkpt>
      <trkpt lat="45.8977" lon="4.67122">
        <ele>437.54</ele>
        <time>2016-01-09T10:08:15Z</time>
      </trkpt>
      <trkpt lat="45.89813" lon="4.6712">
        <ele>435.61</ele>
        <time>2016-01-09T10:08:24Z</time>
      </trkpt>
      <trkpt lat="45.89833" lon="4.67121">
        <ele>434.65</ele>
        <time>2016-01-09T10:08:28Z</time>
      </trkpt>
      <trkpt lat="45.89888" lon="4.6712">
        <ele>432.25</ele>
        <time>2016-01-09T10:08:39Z</time>
      </trkpt>
      <trkpt lat="45.89931" lon="4.67118">
        <ele>431.29</ele>
        <time>2016-01-09T10:08:47Z</time>
      </trkpt>
      <trkpt lat="45.89986" lon="4.67117">
        <ele>429.37</ele>
        <time>2016-01-09T10:09:00Z</time>
      </trkpt>
      <trkpt lat="45.8999" lon="4.67117">
        <ele>429.37</ele>
        <time>2016-01-09T10:09:01Z</time>
      </trkpt>
      <trkpt lat="45.90002" lon="4.67128">
        <ele>427.92</ele>
        <time>2016-01-09T10:09:06Z</time>
      </trkpt>
      <trkpt lat="45.90008" lon="4.67142">
        <ele>426.48</ele>
        <time>2016-01-09T10:09:11Z</time>
      </trkpt>
      <trkpt lat="45.90021" lon="4.67161">
        <ele>424.08</ele>
        <time>2016-01-09T10:09:16Z</time>
      </trkpt>
      <trkpt lat="45.90025" lon="4.67168">
        <ele>422.64</ele>
        <time>2016-01-09T10:09:18Z</time>
      </trkpt>
      <trkpt lat="45.90038" lon="4.67178">
        <ele>421.19</ele>
        <time>2016-01-09T10:09:31Z</time>
      </trkpt>
      <trkpt lat="45.9004" lon="4.6718">
        <ele>420.71</ele>
        <time>2016-01-09T10:09:55Z</time>
      </trkpt>
      <trkpt lat="45.90061" lon="4.67202">
        <ele>418.79</ele>
        <time>2016-01-09T10:10:05Z</time>
      </trkpt>
      <trkpt lat="45.90069" lon="4.67218">
        <ele>417.83</ele>
        <time>2016-01-09T10:10:12Z</time>
      </trkpt>
      <trkpt lat="45.90107" lon="4.6721">
        <ele>417.83</ele>
        <time>2016-01-09T10:10:26Z</time>
      </trkpt>
      <trkpt lat="45.90132" lon="4.6719">
        <ele>419.75</ele>
        <time>2016-01-09T10:10:38Z</time>
      </trkpt>
      <trkpt lat="45.90161" lon="4.67185">
        <ele>420.23</ele>
        <time>2016-01-09T10:10:51Z</time>
      </trkpt>
      <trkpt lat="45.90197" lon="4.67184">
        <ele>419.75</ele>
        <time>2016-01-09T10:11:05Z</time>
      </trkpt>
      <trkpt lat="45.90235" lon="4.67186">
        <ele>419.27</ele>
        <time>2016-01-09T10:11:20Z</time>
      </trkpt>
      <trkpt lat="45.90271" lon="4.67179">
        <ele>418.31</ele>
        <time>2016-01-09T10:11:34Z</time>
      </trkpt>
      <trkpt lat="45.90299" lon="4.67171">
        <ele>417.83</ele>
        <time>2016-01-09T10:11:45Z</time>
      </trkpt>
      <trkpt lat="45.90311" lon="4.67142">
        <ele>419.27</ele>
        <time>2016-01-09T10:11:55Z</time>
      </trkpt>
      <trkpt lat="45.90311" lon="4.67139">
        <ele>419.27</ele>
        <time>2016-01-09T10:11:56Z</time>
      </trkpt>
      <trkpt lat="45.90321" lon="4.67085">
        <ele>420.23</ele>
        <time>2016-01-09T10:12:12Z</time>
      </trkpt>
      <trkpt lat="45.90332" lon="4.67038">
        <ele>420.23</ele>
        <time>2016-01-09T10:12:25Z</time>
      </trkpt>
      <trkpt lat="45.9035" lon="4.66988">
        <ele>419.27</ele>
        <time>2016-01-09T10:12:38Z</time>
      </trkpt>
      <trkpt lat="45.90359" lon="4.66984">
        <ele>419.27</ele>
        <time>2016-01-09T10:12:43Z</time>
      </trkpt>
      <trkpt lat="45.90363" lon="4.66988">
        <ele>418.79</ele>
        <time>2016-01-09T10:12:56Z</time>
      </trkpt>
      <trkpt lat="45.90363" lon="4.66988">
        <ele>418.31</ele>
        <time>2016-01-09T10:13:26Z</time>
      </trkpt>
      <trkpt lat="45.90363" lon="4.66988">
        <ele>418.79</ele>
        <time>2016-01-09T10:13:47Z</time>
      </trkpt>
      <trkpt lat="45.90363" lon="4.66988">
        <ele>418.79</ele>
        <time>2016-01-09T10:14:18Z</time>
      </trkpt>
      <trkpt lat="45.90364" lon="4.66987">
        <ele>418.79</ele>
        <time>2016-01-09T10:14:31Z</time>
      </trkpt>
      <trkpt lat="45.90364" lon="4.66986">
        <ele>418.79</ele>
        <time>2016-01-09T10:14:57Z</time>
      </trkpt>
      <trkpt lat="45.90364" lon="4.66986">
        <ele>419.27</ele>
        <time>2016-01-09T10:15:23Z</time>
      </trkpt>
      <trkpt lat="45.90393" lon="4.66989">
        <ele>418.31</ele>
        <time>2016-01-09T10:15:34Z</time>
      </trkpt>
      <trkpt lat="45.90401" lon="4.6699">
        <ele>417.83</ele>
        <time>2016-01-09T10:15:36Z</time>
      </trkpt>
      <trkpt lat="45.90406" lon="4.66991">
        <ele>417.83</ele>
        <time>2016-01-09T10:15:37Z</time>
      </trkpt>
      <trkpt lat="45.90415" lon="4.66995">
        <ele>417.35</ele>
        <time>2016-01-09T10:15:39Z</time>
      </trkpt>
      <trkpt lat="45.9044" lon="4.67011">
        <ele>416.39</ele>
        <time>2016-01-09T10:15:47Z</time>
      </trkpt>
      <trkpt lat="45.90444" lon="4.67014">
        <ele>415.43</ele>
        <time>2016-01-09T10:15:48Z</time>
      </trkpt>
      <trkpt lat="45.90465" lon="4.67024">
        <ele>414.95</ele>
        <time>2016-01-09T10:15:52Z</time>
      </trkpt>
      <trkpt lat="45.90471" lon="4.67025">
        <ele>414.95</ele>
        <time>2016-01-09T10:15:53Z</time>
      </trkpt>
      <trkpt lat="45.90539" lon="4.67027">
        <ele>412.06</ele>
        <time>2016-01-09T10:16:03Z</time>
      </trkpt>
      <trkpt lat="45.90543" lon="4.67026">
        <ele>411.58</ele>
        <time>2016-01-09T10:16:04Z</time>
      </trkpt>
      <trkpt lat="45.90545" lon="4.67024">
        <ele>412.06</ele>
        <time>2016-01-09T10:16:05Z</time>
      </trkpt>
      <trkpt lat="45.90546" lon="4.67022">
        <ele>411.58</ele>
        <time>2016-01-09T10:16:06Z</time>
      </trkpt>
      <trkpt lat="45.90547" lon="4.67019">
        <ele>412.06</ele>
        <time>2016-01-09T10:16:07Z</time>
      </trkpt>
      <trkpt lat="45.90548" lon="4.67017">
        <ele>411.58</ele>
        <time>2016-01-09T10:16:08Z</time>
      </trkpt>
      <trkpt lat="45.90553" lon="4.6699">
        <ele>412.06</ele>
        <time>2016-01-09T10:16:13Z</time>
      </trkpt>
      <trkpt lat="45.90554" lon="4.66982">
        <ele>411.58</ele>
        <time>2016-01-09T10:16:14Z</time>
      </trkpt>
      <trkpt lat="45.90557" lon="4.66967">
        <ele>410.62</ele>
        <time>2016-01-09T10:16:16Z</time>
      </trkpt>
      <trkpt lat="45.9056" lon="4.66962">
        <ele>411.1</ele>
        <time>2016-01-09T10:16:17Z</time>
      </trkpt>
      <trkpt lat="45.90563" lon="4.66957">
        <ele>410.62</ele>
        <time>2016-01-09T10:16:18Z</time>
      </trkpt>
      <trkpt lat="45.90566" lon="4.66953">
        <ele>410.14</ele>
        <time>2016-01-09T10:16:19Z</time>
      </trkpt>
      <trkpt lat="45.90569" lon="4.6695">
        <ele>410.14</ele>
        <time>2016-01-09T10:16:20Z</time>
      </trkpt>
      <trkpt lat="45.90573" lon="4.66947">
        <ele>409.66</ele>
        <time>2016-01-09T10:16:21Z</time>
      </trkpt>
      <trkpt lat="45.90577" lon="4.66944">
        <ele>409.66</ele>
        <time>2016-01-09T10:16:22Z</time>
      </trkpt>
      <trkpt lat="45.9058" lon="4.66941">
        <ele>409.66</ele>
        <time>2016-01-09T10:16:23Z</time>
      </trkpt>
      <trkpt lat="45.90583" lon="4.66938">
        <ele>409.18</ele>
        <time>2016-01-09T10:16:24Z</time>
      </trkpt>
      <trkpt lat="45.90592" lon="4.66926">
        <ele>408.7</ele>
        <time>2016-01-09T10:16:27Z</time>
      </trkpt>
      <trkpt lat="45.90602" lon="4.66893">
        <ele>405.33</ele>
        <time>2016-01-09T10:16:34Z</time>
      </trkpt>
      <trkpt lat="45.90602" lon="4.66889">
        <ele>404.85</ele>
        <time>2016-01-09T10:16:35Z</time>
      </trkpt>
      <trkpt lat="45.90601" lon="4.66873">
        <ele>403.41</ele>
        <time>2016-01-09T10:16:39Z</time>
      </trkpt>
      <trkpt lat="45.90603" lon="4.66838">
        <ele>400.53</ele>
        <time>2016-01-09T10:16:46Z</time>
      </trkpt>
      <trkpt lat="45.90603" lon="4.66831">
        <ele>400.53</ele>
        <time>2016-01-09T10:16:47Z</time>
      </trkpt>
      <trkpt lat="45.90604" lon="4.66824">
        <ele>399.57</ele>
        <time>2016-01-09T10:16:48Z</time>
      </trkpt>
      <trkpt lat="45.90616" lon="4.66786">
        <ele>395.24</ele>
        <time>2016-01-09T10:16:52Z</time>
      </trkpt>
      <trkpt lat="45.90619" lon="4.66777">
        <ele>394.76</ele>
        <time>2016-01-09T10:16:53Z</time>
      </trkpt>
      <trkpt lat="45.90623" lon="4.66759">
        <ele>392.84</ele>
        <time>2016-01-09T10:16:55Z</time>
      </trkpt>
      <trkpt lat="45.9063" lon="4.66739">
        <ele>390.91</ele>
        <time>2016-01-09T10:16:58Z</time>
      </trkpt>
      <trkpt lat="45.90632" lon="4.66735">
        <ele>390.43</ele>
        <time>2016-01-09T10:16:59Z</time>
      </trkpt>
      <trkpt lat="45.90636" lon="4.66716">
        <ele>387.55</ele>
        <time>2016-01-09T10:17:03Z</time>
      </trkpt>
      <trkpt lat="45.90633" lon="4.66703">
        <ele>385.15</ele>
        <time>2016-01-09T10:17:06Z</time>
      </trkpt>
      <trkpt lat="45.90631" lon="4.66698">
        <ele>384.18</ele>
        <time>2016-01-09T10:17:07Z</time>
      </trkpt>
      <trkpt lat="45.90629" lon="4.66695">
        <ele>383.7</ele>
        <time>2016-01-09T10:17:08Z</time>
      </trkpt>
      <trkpt lat="45.90616" lon="4.6668">
        <ele>380.82</ele>
        <time>2016-01-09T10:17:13Z</time>
      </trkpt>
      <trkpt lat="45.90613" lon="4.66674">
        <ele>379.86</ele>
        <time>2016-01-09T10:17:15Z</time>
      </trkpt>
      <trkpt lat="45.90601" lon="4.66658">
        <ele>376.49</ele>
        <time>2016-01-09T10:17:20Z</time>
      </trkpt>
      <trkpt lat="45.90596" lon="4.66649">
        <ele>376.01</ele>
        <time>2016-01-09T10:17:22Z</time>
      </trkpt>
      <trkpt lat="45.90594" lon="4.66643">
        <ele>375.53</ele>
        <time>2016-01-09T10:17:23Z</time>
      </trkpt>
      <trkpt lat="45.90592" lon="4.66622">
        <ele>374.09</ele>
        <time>2016-01-09T10:17:26Z</time>
      </trkpt>
      <trkpt lat="45.90592" lon="4.66615">
        <ele>374.09</ele>
        <time>2016-01-09T10:17:27Z</time>
      </trkpt>
      <trkpt lat="45.90592" lon="4.66608">
        <ele>373.13</ele>
        <time>2016-01-09T10:17:28Z</time>
      </trkpt>
      <trkpt lat="45.90594" lon="4.66534">
        <ele>369.76</ele>
        <time>2016-01-09T10:17:37Z</time>
      </trkpt>
      <trkpt lat="45.90592" lon="4.66473">
        <ele>368.32</ele>
        <time>2016-01-09T10:17:44Z</time>
      </trkpt>
      <trkpt lat="45.90583" lon="4.66384">
        <ele>364.96</ele>
        <time>2016-01-09T10:17:56Z</time>
      </trkpt>
      <trkpt lat="45.9058" lon="4.66346">
        <ele>363.04</ele>
        <time>2016-01-09T10:18:06Z</time>
      </trkpt>
      <trkpt lat="45.90581" lon="4.66345">
        <ele>362.55</ele>
        <time>2016-01-09T10:18:24Z</time>
      </trkpt>
      <trkpt lat="45.90578" lon="4.66344">
        <ele>363.52</ele>
        <time>2016-01-09T10:18:40Z</time>
      </trkpt>
      <trkpt lat="45.90577" lon="4.66345">
        <ele>363.04</ele>
        <time>2016-01-09T10:18:41Z</time>
      </trkpt>
      <trkpt lat="45.90578" lon="4.66348">
        <ele>364</ele>
        <time>2016-01-09T10:18:44Z</time>
      </trkpt>
      <trkpt lat="45.90581" lon="4.66351">
        <ele>363.52</ele>
        <time>2016-01-09T10:18:46Z</time>
      </trkpt>
      <trkpt lat="45.90581" lon="4.66352">
        <ele>363.52</ele>
        <time>2016-01-09T10:18:47Z</time>
      </trkpt>
      <trkpt lat="45.90581" lon="4.66354">
        <ele>363.52</ele>
        <time>2016-01-09T10:18:48Z</time>
      </trkpt>
      <trkpt lat="45.9058" lon="4.66355">
        <ele>363.52</ele>
        <time>2016-01-09T10:18:49Z</time>
      </trkpt>
      <trkpt lat="45.90579" lon="4.66354">
        <ele>363.52</ele>
        <time>2016-01-09T10:18:50Z</time>
      </trkpt>
      <trkpt lat="45.90579" lon="4.66351">
        <ele>363.52</ele>
        <time>2016-01-09T10:19:02Z</time>
      </trkpt>
      <trkpt lat="45.90579" lon="4.66351">
        <ele>363.04</ele>
        <time>2016-01-09T10:19:23Z</time>
      </trkpt>
      <trkpt lat="45.90579" lon="4.6635">
        <ele>363.52</ele>
        <time>2016-01-09T10:19:30Z</time>
      </trkpt>
      <trkpt lat="45.9058" lon="4.66348">
        <ele>363.52</ele>
        <time>2016-01-09T10:19:31Z</time>
      </trkpt>
      <trkpt lat="45.9058" lon="4.66345">
        <ele>363.52</ele>
        <time>2016-01-09T10:19:32Z</time>
      </trkpt>
      <trkpt lat="45.90581" lon="4.66342">
        <ele>363.52</ele>
        <time>2016-01-09T10:19:33Z</time>
      </trkpt>
      <trkpt lat="45.90581" lon="4.66336">
        <ele>363.04</ele>
        <time>2016-01-09T10:19:34Z</time>
      </trkpt>
      <trkpt lat="45.90581" lon="4.6633">
        <ele>361.59</ele>
        <time>2016-01-09T10:19:35Z</time>
      </trkpt>
      <trkpt lat="45.9058" lon="4.66322">
        <ele>361.59</ele>
        <time>2016-01-09T10:19:36Z</time>
      </trkpt>
      <trkpt lat="45.90578" lon="4.66293">
        <ele>359.67</ele>
        <time>2016-01-09T10:19:39Z</time>
      </trkpt>
      <trkpt lat="45.90577" lon="4.66282">
        <ele>358.23</ele>
        <time>2016-01-09T10:19:40Z</time>
      </trkpt>
      <trkpt lat="45.90576" lon="4.66269">
        <ele>357.27</ele>
        <time>2016-01-09T10:19:41Z</time>
      </trkpt>
      <trkpt lat="45.90575" lon="4.66211">
        <ele>353.42</ele>
        <time>2016-01-09T10:19:45Z</time>
      </trkpt>
      <trkpt lat="45.90575" lon="4.66178">
        <ele>350.06</ele>
        <time>2016-01-09T10:19:47Z</time>
      </trkpt>
      <trkpt lat="45.90576" lon="4.66132">
        <ele>346.69</ele>
        <time>2016-01-09T10:19:50Z</time>
      </trkpt>
      <trkpt lat="45.90575" lon="4.66109">
        <ele>342.37</ele>
        <time>2016-01-09T10:19:52Z</time>
      </trkpt>
      <trkpt lat="45.90575" lon="4.66084">
        <ele>339.96</ele>
        <time>2016-01-09T10:19:55Z</time>
      </trkpt>
      <trkpt lat="45.90577" lon="4.66079">
        <ele>338.52</ele>
        <time>2016-01-09T10:19:56Z</time>
      </trkpt>
      <trkpt lat="45.90581" lon="4.66075">
        <ele>338.04</ele>
        <time>2016-01-09T10:19:57Z</time>
      </trkpt>
      <trkpt lat="45.90586" lon="4.66073">
        <ele>337.56</ele>
        <time>2016-01-09T10:19:58Z</time>
      </trkpt>
      <trkpt lat="45.90592" lon="4.66071">
        <ele>337.56</ele>
        <time>2016-01-09T10:19:59Z</time>
      </trkpt>
      <trkpt lat="45.90598" lon="4.66068">
        <ele>337.08</ele>
        <time>2016-01-09T10:20:00Z</time>
      </trkpt>
      <trkpt lat="45.90604" lon="4.66065">
        <ele>336.12</ele>
        <time>2016-01-09T10:20:01Z</time>
      </trkpt>
      <trkpt lat="45.90639" lon="4.66045">
        <ele>332.75</ele>
        <time>2016-01-09T10:20:06Z</time>
      </trkpt>
      <trkpt lat="45.90655" lon="4.66035">
        <ele>331.31</ele>
        <time>2016-01-09T10:20:09Z</time>
      </trkpt>
      <trkpt lat="45.90661" lon="4.6603">
        <ele>330.35</ele>
        <time>2016-01-09T10:20:10Z</time>
      </trkpt>
      <trkpt lat="45.90666" lon="4.66025">
        <ele>330.35</ele>
        <time>2016-01-09T10:20:11Z</time>
      </trkpt>
      <trkpt lat="45.90682" lon="4.66008">
        <ele>328.43</ele>
        <time>2016-01-09T10:20:14Z</time>
      </trkpt>
      <trkpt lat="45.90687" lon="4.66002">
        <ele>327.95</ele>
        <time>2016-01-09T10:20:15Z</time>
      </trkpt>
      <trkpt lat="45.90693" lon="4.65996">
        <ele>327.95</ele>
        <time>2016-01-09T10:20:16Z</time>
      </trkpt>
      <trkpt lat="45.90698" lon="4.65992">
        <ele>327.47</ele>
        <time>2016-01-09T10:20:17Z</time>
      </trkpt>
      <trkpt lat="45.90705" lon="4.65988">
        <ele>327.47</ele>
        <time>2016-01-09T10:20:18Z</time>
      </trkpt>
      <trkpt lat="45.90711" lon="4.65984">
        <ele>327.47</ele>
        <time>2016-01-09T10:20:19Z</time>
      </trkpt>
      <trkpt lat="45.90718" lon="4.65982">
        <ele>326.02</ele>
        <time>2016-01-09T10:20:20Z</time>
      </trkpt>
      <trkpt lat="45.90726" lon="4.65979">
        <ele>326.02</ele>
        <time>2016-01-09T10:20:21Z</time>
      </trkpt>
      <trkpt lat="45.90796" lon="4.65967">
        <ele>323.14</ele>
        <time>2016-01-09T10:20:30Z</time>
      </trkpt>
      <trkpt lat="45.90803" lon="4.65962">
        <ele>323.14</ele>
        <time>2016-01-09T10:20:31Z</time>
      </trkpt>
      <trkpt lat="45.90809" lon="4.65956">
        <ele>323.14</ele>
        <time>2016-01-09T10:20:32Z</time>
      </trkpt>
      <trkpt lat="45.90814" lon="4.65949">
        <ele>323.14</ele>
        <time>2016-01-09T10:20:33Z</time>
      </trkpt>
      <trkpt lat="45.90818" lon="4.65942">
        <ele>322.66</ele>
        <time>2016-01-09T10:20:34Z</time>
      </trkpt>
      <trkpt lat="45.90823" lon="4.65935">
        <ele>323.14</ele>
        <time>2016-01-09T10:20:35Z</time>
      </trkpt>
      <trkpt lat="45.90829" lon="4.6593">
        <ele>322.66</ele>
        <time>2016-01-09T10:20:36Z</time>
      </trkpt>
      <trkpt lat="45.90835" lon="4.65925">
        <ele>322.66</ele>
        <time>2016-01-09T10:20:37Z</time>
      </trkpt>
      <trkpt lat="45.90841" lon="4.65922">
        <ele>322.66</ele>
        <time>2016-01-09T10:20:38Z</time>
      </trkpt>
      <trkpt lat="45.90847" lon="4.6592">
        <ele>322.66</ele>
        <time>2016-01-09T10:20:39Z</time>
      </trkpt>
      <trkpt lat="45.90854" lon="4.65918">
        <ele>323.14</ele>
        <time>2016-01-09T10:20:40Z</time>
      </trkpt>
      <trkpt lat="45.90925" lon="4.65901">
        <ele>322.66</ele>
        <time>2016-01-09T10:20:53Z</time>
      </trkpt>
      <trkpt lat="45.90926" lon="4.659">
        <ele>322.66</ele>
        <time>2016-01-09T10:20:54Z</time>
      </trkpt>
      <trkpt lat="45.90927" lon="4.65899">
        <ele>322.66</ele>
        <time>2016-01-09T10:21:07Z</time>
      </trkpt>
      <trkpt lat="45.90927" lon="4.65899">
        <ele>323.14</ele>
        <time>2016-01-09T10:21:34Z</time>
      </trkpt>
      <trkpt lat="45.90927" lon="4.65899">
        <ele>322.66</ele>
        <time>2016-01-09T10:21:52Z</time>
      </trkpt>
      <trkpt lat="45.90927" lon="4.65896">
        <ele>322.66</ele>
        <time>2016-01-09T10:21:53Z</time>
      </trkpt>
      <trkpt lat="45.90927" lon="4.65892">
        <ele>322.66</ele>
        <time>2016-01-09T10:21:54Z</time>
      </trkpt>
      <trkpt lat="45.90927" lon="4.65886">
        <ele>322.18</ele>
        <time>2016-01-09T10:21:55Z</time>
      </trkpt>
      <trkpt lat="45.90926" lon="4.6588">
        <ele>321.7</ele>
        <time>2016-01-09T10:21:56Z</time>
      </trkpt>
      <trkpt lat="45.90924" lon="4.65873">
        <ele>321.7</ele>
        <time>2016-01-09T10:21:57Z</time>
      </trkpt>
      <trkpt lat="45.9092" lon="4.65851">
        <ele>320.26</ele>
        <time>2016-01-09T10:22:00Z</time>
      </trkpt>
      <trkpt lat="45.90908" lon="4.6578">
        <ele>316.89</ele>
        <time>2016-01-09T10:22:07Z</time>
      </trkpt>
      <trkpt lat="45.90904" lon="4.65745">
        <ele>315.45</ele>
        <time>2016-01-09T10:22:10Z</time>
      </trkpt>
      <trkpt lat="45.90905" lon="4.65707">
        <ele>314.01</ele>
        <time>2016-01-09T10:22:13Z</time>
      </trkpt>
      <trkpt lat="45.9091" lon="4.65668">
        <ele>313.05</ele>
        <time>2016-01-09T10:22:16Z</time>
      </trkpt>
      <trkpt lat="45.90918" lon="4.65614">
        <ele>310.16</ele>
        <time>2016-01-09T10:22:20Z</time>
      </trkpt>
      <trkpt lat="45.90923" lon="4.65552">
        <ele>305.84</ele>
        <time>2016-01-09T10:22:24Z</time>
      </trkpt>
      <trkpt lat="45.90928" lon="4.65509">
        <ele>302.47</ele>
        <time>2016-01-09T10:22:27Z</time>
      </trkpt>
      <trkpt lat="45.90938" lon="4.65462">
        <ele>298.63</ele>
        <time>2016-01-09T10:22:31Z</time>
      </trkpt>
      <trkpt lat="45.90941" lon="4.65452">
        <ele>298.15</ele>
        <time>2016-01-09T10:22:32Z</time>
      </trkpt>
      <trkpt lat="45.90947" lon="4.6543">
        <ele>296.7</ele>
        <time>2016-01-09T10:22:34Z</time>
      </trkpt>
      <trkpt lat="45.90961" lon="4.65366">
        <ele>292.86</ele>
        <time>2016-01-09T10:22:39Z</time>
      </trkpt>
      <trkpt lat="45.9097" lon="4.65327">
        <ele>289.97</ele>
        <time>2016-01-09T10:22:42Z</time>
      </trkpt>
      <trkpt lat="45.90972" lon="4.65315">
        <ele>288.53</ele>
        <time>2016-01-09T10:22:43Z</time>
      </trkpt>
      <trkpt lat="45.90974" lon="4.65302">
        <ele>287.57</ele>
        <time>2016-01-09T10:22:44Z</time>
      </trkpt>
      <trkpt lat="45.90985" lon="4.65251">
        <ele>283.73</ele>
        <time>2016-01-09T10:22:48Z</time>
      </trkpt>
      <trkpt lat="45.90993" lon="4.65218">
        <ele>280.36</ele>
        <time>2016-01-09T10:22:51Z</time>
      </trkpt>
      <trkpt lat="45.91001" lon="4.65183">
        <ele>276.52</ele>
        <time>2016-01-09T10:22:55Z</time>
      </trkpt>
      <trkpt lat="45.91006" lon="4.65161">
        <ele>274.59</ele>
        <time>2016-01-09T10:23:00Z</time>
      </trkpt>
      <trkpt lat="45.91006" lon="4.65158">
        <ele>274.59</ele>
        <time>2016-01-09T10:23:01Z</time>
      </trkpt>
      <trkpt lat="45.91005" lon="4.65155">
        <ele>274.11</ele>
        <time>2016-01-09T10:23:02Z</time>
      </trkpt>
      <trkpt lat="45.91007" lon="4.65151">
        <ele>274.11</ele>
        <time>2016-01-09T10:23:11Z</time>
      </trkpt>
      <trkpt lat="45.91008" lon="4.65148">
        <ele>274.11</ele>
        <time>2016-01-09T10:23:12Z</time>
      </trkpt>
      <trkpt lat="45.91009" lon="4.65143">
        <ele>274.11</ele>
        <time>2016-01-09T10:23:13Z</time>
      </trkpt>
      <trkpt lat="45.91013" lon="4.6513">
        <ele>272.19</ele>
        <time>2016-01-09T10:23:15Z</time>
      </trkpt>
      <trkpt lat="45.91027" lon="4.65088">
        <ele>268.83</ele>
        <time>2016-01-09T10:23:20Z</time>
      </trkpt>
      <trkpt lat="45.91029" lon="4.65081">
        <ele>268.35</ele>
        <time>2016-01-09T10:23:21Z</time>
      </trkpt>
      <trkpt lat="45.91038" lon="4.65054">
        <ele>266.9</ele>
        <time>2016-01-09T10:23:25Z</time>
      </trkpt>
      <trkpt lat="45.91048" lon="4.65033">
        <ele>265.94</ele>
        <time>2016-01-09T10:23:28Z</time>
      </trkpt>
      <trkpt lat="45.9105" lon="4.65027">
        <ele>266.42</ele>
        <time>2016-01-09T10:23:29Z</time>
      </trkpt>
      <trkpt lat="45.91053" lon="4.65022">
        <ele>265.94</ele>
        <time>2016-01-09T10:23:30Z</time>
      </trkpt>
      <trkpt lat="45.91071" lon="4.64966">
        <ele>267.38</ele>
        <time>2016-01-09T10:23:42Z</time>
      </trkpt>
      <trkpt lat="45.91056" lon="4.64938">
        <ele>269.79</ele>
        <time>2016-01-09T10:23:54Z</time>
      </trkpt>
      <trkpt lat="45.91033" lon="4.64916">
        <ele>272.67</ele>
        <time>2016-01-09T10:24:10Z</time>
      </trkpt>
      <trkpt lat="45.91013" lon="4.64892">
        <ele>275.56</ele>
        <time>2016-01-09T10:24:26Z</time>
      </trkpt>
      <trkpt lat="45.90998" lon="4.64867">
        <ele>277</ele>
        <time>2016-01-09T10:24:40Z</time>
      </trkpt>
      <trkpt lat="45.90997" lon="4.64865">
        <ele>277</ele>
        <time>2016-01-09T10:24:41Z</time>
      </trkpt>
      <trkpt lat="45.90998" lon="4.64862">
        <ele>277</ele>
        <time>2016-01-09T10:24:42Z</time>
      </trkpt>
      <trkpt lat="45.90999" lon="4.6486">
        <ele>277.48</ele>
        <time>2016-01-09T10:24:43Z</time>
      </trkpt>
      <trkpt lat="45.91009" lon="4.64837">
        <ele>278.92</ele>
        <time>2016-01-09T10:24:56Z</time>
      </trkpt>
      <trkpt lat="45.91016" lon="4.64823">
        <ele>281.8</ele>
        <time>2016-01-09T10:25:08Z</time>
      </trkpt>
      <trkpt lat="45.91021" lon="4.64819">
        <ele>283.25</ele>
        <time>2016-01-09T10:25:19Z</time>
      </trkpt>
      <trkpt lat="45.91028" lon="4.6481">
        <ele>285.17</ele>
        <time>2016-01-09T10:25:31Z</time>
      </trkpt>
      <trkpt lat="45.91036" lon="4.64805">
        <ele>287.57</ele>
        <time>2016-01-09T10:25:45Z</time>
      </trkpt>
      <trkpt lat="45.91044" lon="4.64806">
        <ele>289.97</ele>
        <time>2016-01-09T10:26:01Z</time>
      </trkpt>
      <trkpt lat="45.91055" lon="4.64801">
        <ele>291.42</ele>
        <time>2016-01-09T10:26:14Z</time>
      </trkpt>
      <trkpt lat="45.91065" lon="4.64789">
        <ele>293.82</ele>
        <time>2016-01-09T10:26:28Z</time>
      </trkpt>
      <trkpt lat="45.91075" lon="4.64776">
        <ele>295.26</ele>
        <time>2016-01-09T10:26:40Z</time>
      </trkpt>
      <trkpt lat="45.91085" lon="4.64761">
        <ele>296.22</ele>
        <time>2016-01-09T10:26:54Z</time>
      </trkpt>
      <trkpt lat="45.9109" lon="4.64752">
        <ele>297.18</ele>
        <time>2016-01-09T10:27:04Z</time>
      </trkpt>
      <trkpt lat="45.91097" lon="4.64724">
        <ele>298.63</ele>
        <time>2016-01-09T10:27:18Z</time>
      </trkpt>
      <trkpt lat="45.91107" lon="4.64689">
        <ele>300.07</ele>
        <time>2016-01-09T10:27:33Z</time>
      </trkpt>
      <trkpt lat="45.91121" lon="4.64655">
        <ele>301.51</ele>
        <time>2016-01-09T10:27:46Z</time>
      </trkpt>
      <trkpt lat="45.91143" lon="4.646">
        <ele>303.43</ele>
        <time>2016-01-09T10:28:02Z</time>
      </trkpt>
      <trkpt lat="45.91163" lon="4.64553">
        <ele>304.39</ele>
        <time>2016-01-09T10:28:18Z</time>
      </trkpt>
      <trkpt lat="45.91187" lon="4.64501">
        <ele>305.36</ele>
        <time>2016-01-09T10:28:32Z</time>
      </trkpt>
      <trkpt lat="45.91208" lon="4.64451">
        <ele>305.36</ele>
        <time>2016-01-09T10:28:46Z</time>
      </trkpt>
      <trkpt lat="45.91234" lon="4.64392">
        <ele>306.32</ele>
        <time>2016-01-09T10:29:02Z</time>
      </trkpt>
      <trkpt lat="45.91259" lon="4.64334">
        <ele>307.76</ele>
        <time>2016-01-09T10:29:20Z</time>
      </trkpt>
      <trkpt lat="45.91283" lon="4.64279">
        <ele>308.72</ele>
        <time>2016-01-09T10:29:38Z</time>
      </trkpt>
      <trkpt lat="45.91298" lon="4.64252">
        <ele>310.16</ele>
        <time>2016-01-09T10:29:53Z</time>
      </trkpt>
      <trkpt lat="45.91298" lon="4.64252">
        <ele>309.68</ele>
        <time>2016-01-09T10:30:15Z</time>
      </trkpt>
      <trkpt lat="45.91305" lon="4.64232">
        <ele>310.16</ele>
        <time>2016-01-09T10:30:27Z</time>
      </trkpt>
      <trkpt lat="45.91323" lon="4.64192">
        <ele>310.16</ele>
        <time>2016-01-09T10:30:41Z</time>
      </trkpt>
      <trkpt lat="45.91346" lon="4.64131">
        <ele>309.68</ele>
        <time>2016-01-09T10:30:56Z</time>
      </trkpt>
      <trkpt lat="45.91373" lon="4.64057">
        <ele>309.68</ele>
        <time>2016-01-09T10:31:12Z</time>
      </trkpt>
      <trkpt lat="45.91399" lon="4.63982">
        <ele>310.16</ele>
        <time>2016-01-09T10:31:27Z</time>
      </trkpt>
      <trkpt lat="45.91434" lon="4.63914">
        <ele>311.6</ele>
        <time>2016-01-09T10:31:43Z</time>
      </trkpt>
      <trkpt lat="45.9147" lon="4.63869">
        <ele>313.05</ele>
        <time>2016-01-09T10:31:57Z</time>
      </trkpt>
      <trkpt lat="45.91512" lon="4.63816">
        <ele>314.97</ele>
        <time>2016-01-09T10:32:14Z</time>
      </trkpt>
      <trkpt lat="45.91538" lon="4.63762">
        <ele>316.41</ele>
        <time>2016-01-09T10:32:29Z</time>
      </trkpt>
      <trkpt lat="45.91537" lon="4.63757">
        <ele>315.93</ele>
        <time>2016-01-09T10:32:30Z</time>
      </trkpt>
      <trkpt lat="45.91534" lon="4.63752">
        <ele>316.41</ele>
        <time>2016-01-09T10:32:31Z</time>
      </trkpt>
      <trkpt lat="45.91532" lon="4.63747">
        <ele>316.41</ele>
        <time>2016-01-09T10:32:32Z</time>
      </trkpt>
      <trkpt lat="45.91529" lon="4.63742">
        <ele>315.93</ele>
        <time>2016-01-09T10:32:33Z</time>
      </trkpt>
      <trkpt lat="45.91499" lon="4.63682">
        <ele>315.45</ele>
        <time>2016-01-09T10:32:44Z</time>
      </trkpt>
      <trkpt lat="45.91495" lon="4.63678">
        <ele>315.45</ele>
        <time>2016-01-09T10:32:45Z</time>
      </trkpt>
      <trkpt lat="45.91491" lon="4.63675">
        <ele>315.45</ele>
        <time>2016-01-09T10:32:46Z</time>
      </trkpt>
      <trkpt lat="45.91486" lon="4.63673">
        <ele>315.93</ele>
        <time>2016-01-09T10:32:47Z</time>
      </trkpt>
      <trkpt lat="45.91482" lon="4.63671">
        <ele>315.93</ele>
        <time>2016-01-09T10:32:48Z</time>
      </trkpt>
      <trkpt lat="45.91477" lon="4.6367">
        <ele>314.97</ele>
        <time>2016-01-09T10:32:49Z</time>
      </trkpt>
      <trkpt lat="45.9141" lon="4.63658">
        <ele>316.41</ele>
        <time>2016-01-09T10:33:04Z</time>
      </trkpt>
      <trkpt lat="45.91342" lon="4.63638">
        <ele>317.37</ele>
        <time>2016-01-09T10:33:21Z</time>
      </trkpt>
      <trkpt lat="45.91293" lon="4.63625">
        <ele>319.3</ele>
        <time>2016-01-09T10:33:35Z</time>
      </trkpt>
      <trkpt lat="45.91262" lon="4.63585">
        <ele>318.33</ele>
        <time>2016-01-09T10:33:48Z</time>
      </trkpt>
      <trkpt lat="45.91261" lon="4.63579">
        <ele>318.33</ele>
        <time>2016-01-09T10:33:49Z</time>
      </trkpt>
      <trkpt lat="45.91261" lon="4.63572">
        <ele>317.85</ele>
        <time>2016-01-09T10:33:50Z</time>
      </trkpt>
      <trkpt lat="45.91263" lon="4.63524">
        <ele>314.49</ele>
        <time>2016-01-09T10:33:55Z</time>
      </trkpt>
      <trkpt lat="45.91271" lon="4.63486">
        <ele>312.57</ele>
        <time>2016-01-09T10:33:58Z</time>
      </trkpt>
      <trkpt lat="45.91275" lon="4.63473">
        <ele>311.6</ele>
        <time>2016-01-09T10:33:59Z</time>
      </trkpt>
      <trkpt lat="45.91292" lon="4.63432">
        <ele>308.72</ele>
        <time>2016-01-09T10:34:03Z</time>
      </trkpt>
      <trkpt lat="45.913" lon="4.63413">
        <ele>308.24</ele>
        <time>2016-01-09T10:34:06Z</time>
      </trkpt>
      <trkpt lat="45.913" lon="4.63407">
        <ele>308.24</ele>
        <time>2016-01-09T10:34:07Z</time>
      </trkpt>
      <trkpt lat="45.913" lon="4.63402">
        <ele>307.28</ele>
        <time>2016-01-09T10:34:08Z</time>
      </trkpt>
      <trkpt lat="45.913" lon="4.63398">
        <ele>306.8</ele>
        <time>2016-01-09T10:34:09Z</time>
      </trkpt>
      <trkpt lat="45.91299" lon="4.63394">
        <ele>306.8</ele>
        <time>2016-01-09T10:34:10Z</time>
      </trkpt>
      <trkpt lat="45.91289" lon="4.63355">
        <ele>304.88</ele>
        <time>2016-01-09T10:34:20Z</time>
      </trkpt>
      <trkpt lat="45.9129" lon="4.63352">
        <ele>304.88</ele>
        <time>2016-01-09T10:34:21Z</time>
      </trkpt>
      <trkpt lat="45.9129" lon="4.63349">
        <ele>304.88</ele>
        <time>2016-01-09T10:34:22Z</time>
      </trkpt>
      <trkpt lat="45.91293" lon="4.63324">
        <ele>305.84</ele>
        <time>2016-01-09T10:34:29Z</time>
      </trkpt>
      <trkpt lat="45.91294" lon="4.63321">
        <ele>305.84</ele>
        <time>2016-01-09T10:34:30Z</time>
      </trkpt>
      <trkpt lat="45.91296" lon="4.63308">
        <ele>306.32</ele>
        <time>2016-01-09T10:34:35Z</time>
      </trkpt>
      <trkpt lat="45.91295" lon="4.63302">
        <ele>306.8</ele>
        <time>2016-01-09T10:34:38Z</time>
      </trkpt>
      <trkpt lat="45.91297" lon="4.63296">
        <ele>307.28</ele>
        <time>2016-01-09T10:34:41Z</time>
      </trkpt>
      <trkpt lat="45.91298" lon="4.63294">
        <ele>307.76</ele>
        <time>2016-01-09T10:34:42Z</time>
      </trkpt>
      <trkpt lat="45.91299" lon="4.63287">
        <ele>308.24</ele>
        <time>2016-01-09T10:34:45Z</time>
      </trkpt>
      <trkpt lat="45.91299" lon="4.63285">
        <ele>308.72</ele>
        <time>2016-01-09T10:34:46Z</time>
      </trkpt>
      <trkpt lat="45.913" lon="4.63283">
        <ele>308.72</ele>
        <time>2016-01-09T10:34:47Z</time>
      </trkpt>
      <trkpt lat="45.913" lon="4.6328">
        <ele>308.72</ele>
        <time>2016-01-09T10:34:48Z</time>
      </trkpt>
      <trkpt lat="45.913" lon="4.63278">
        <ele>309.2</ele>
        <time>2016-01-09T10:34:49Z</time>
      </trkpt>
      <trkpt lat="45.91301" lon="4.63268">
        <ele>309.68</ele>
        <time>2016-01-09T10:34:53Z</time>
      </trkpt>
      <trkpt lat="45.913" lon="4.63263">
        <ele>310.16</ele>
        <time>2016-01-09T10:34:55Z</time>
      </trkpt>
      <trkpt lat="45.91301" lon="4.63238">
        <ele>311.12</ele>
        <time>2016-01-09T10:35:06Z</time>
      </trkpt>
      <trkpt lat="45.91305" lon="4.63224">
        <ele>312.57</ele>
        <time>2016-01-09T10:35:13Z</time>
      </trkpt>
      <trkpt lat="45.91306" lon="4.63221">
        <ele>312.09</ele>
        <time>2016-01-09T10:35:14Z</time>
      </trkpt>
      <trkpt lat="45.91306" lon="4.63218">
        <ele>312.57</ele>
        <time>2016-01-09T10:35:15Z</time>
      </trkpt>
      <trkpt lat="45.91306" lon="4.63215">
        <ele>312.09</ele>
        <time>2016-01-09T10:35:16Z</time>
      </trkpt>
      <trkpt lat="45.91304" lon="4.63204">
        <ele>313.53</ele>
        <time>2016-01-09T10:35:21Z</time>
      </trkpt>
      <trkpt lat="45.91306" lon="4.63197">
        <ele>314.01</ele>
        <time>2016-01-09T10:35:24Z</time>
      </trkpt>
      <trkpt lat="45.91307" lon="4.63173">
        <ele>314.49</ele>
        <time>2016-01-09T10:35:34Z</time>
      </trkpt>
      <trkpt lat="45.91308" lon="4.6317">
        <ele>314.49</ele>
        <time>2016-01-09T10:35:35Z</time>
      </trkpt>
      <trkpt lat="45.91309" lon="4.63168">
        <ele>314.49</ele>
        <time>2016-01-09T10:35:36Z</time>
      </trkpt>
      <trkpt lat="45.9131" lon="4.63166">
        <ele>314.49</ele>
        <time>2016-01-09T10:35:37Z</time>
      </trkpt>
      <trkpt lat="45.9131" lon="4.63163">
        <ele>315.45</ele>
        <time>2016-01-09T10:35:38Z</time>
      </trkpt>
      <trkpt lat="45.9131" lon="4.63161">
        <ele>314.97</ele>
        <time>2016-01-09T10:35:39Z</time>
      </trkpt>
      <trkpt lat="45.9131" lon="4.63159">
        <ele>314.97</ele>
        <time>2016-01-09T10:35:40Z</time>
      </trkpt>
      <trkpt lat="45.9131" lon="4.63157">
        <ele>314.97</ele>
        <time>2016-01-09T10:35:41Z</time>
      </trkpt>
      <trkpt lat="45.9131" lon="4.63154">
        <ele>315.45</ele>
        <time>2016-01-09T10:35:42Z</time>
      </trkpt>
      <trkpt lat="45.9131" lon="4.63152">
        <ele>315.45</ele>
        <time>2016-01-09T10:35:43Z</time>
      </trkpt>
      <trkpt lat="45.9131" lon="4.63148">
        <ele>315.93</ele>
        <time>2016-01-09T10:35:45Z</time>
      </trkpt>
      <trkpt lat="45.9131" lon="4.63145">
        <ele>315.93</ele>
        <time>2016-01-09T10:35:46Z</time>
      </trkpt>
      <trkpt lat="45.9131" lon="4.63143">
        <ele>315.93</ele>
        <time>2016-01-09T10:35:47Z</time>
      </trkpt>
      <trkpt lat="45.91306" lon="4.63113">
        <ele>316.89</ele>
        <time>2016-01-09T10:36:00Z</time>
      </trkpt>
      <trkpt lat="45.91303" lon="4.63085">
        <ele>317.85</ele>
        <time>2016-01-09T10:36:12Z</time>
      </trkpt>
      <trkpt lat="45.91302" lon="4.63083">
        <ele>318.33</ele>
        <time>2016-01-09T10:36:13Z</time>
      </trkpt>
      <trkpt lat="45.91302" lon="4.63081">
        <ele>318.33</ele>
        <time>2016-01-09T10:36:14Z</time>
      </trkpt>
      <trkpt lat="45.91302" lon="4.63078">
        <ele>318.33</ele>
        <time>2016-01-09T10:36:15Z</time>
      </trkpt>
      <trkpt lat="45.91302" lon="4.63076">
        <ele>318.33</ele>
        <time>2016-01-09T10:36:16Z</time>
      </trkpt>
      <trkpt lat="45.91298" lon="4.63046">
        <ele>319.78</ele>
        <time>2016-01-09T10:36:29Z</time>
      </trkpt>
      <trkpt lat="45.91297" lon="4.63031">
        <ele>320.26</ele>
        <time>2016-01-09T10:36:35Z</time>
      </trkpt>
      <trkpt lat="45.91296" lon="4.63029">
        <ele>320.26</ele>
        <time>2016-01-09T10:36:36Z</time>
      </trkpt>
      <trkpt lat="45.91296" lon="4.63027">
        <ele>320.26</ele>
        <time>2016-01-09T10:36:37Z</time>
      </trkpt>
      <trkpt lat="45.91295" lon="4.63025">
        <ele>320.74</ele>
        <time>2016-01-09T10:36:38Z</time>
      </trkpt>
      <trkpt lat="45.91295" lon="4.63022">
        <ele>321.22</ele>
        <time>2016-01-09T10:36:39Z</time>
      </trkpt>
      <trkpt lat="45.91295" lon="4.6302">
        <ele>320.74</ele>
        <time>2016-01-09T10:36:40Z</time>
      </trkpt>
      <trkpt lat="45.91295" lon="4.63017">
        <ele>321.22</ele>
        <time>2016-01-09T10:36:41Z</time>
      </trkpt>
      <trkpt lat="45.91294" lon="4.63015">
        <ele>320.74</ele>
        <time>2016-01-09T10:36:42Z</time>
      </trkpt>
      <trkpt lat="45.91292" lon="4.63001">
        <ele>321.22</ele>
        <time>2016-01-09T10:36:48Z</time>
      </trkpt>
      <trkpt lat="45.91292" lon="4.62999">
        <ele>322.18</ele>
        <time>2016-01-09T10:36:49Z</time>
      </trkpt>
      <trkpt lat="45.91292" lon="4.62996">
        <ele>321.7</ele>
        <time>2016-01-09T10:36:50Z</time>
      </trkpt>
      <trkpt lat="45.91289" lon="4.62953">
        <ele>322.66</ele>
        <time>2016-01-09T10:37:06Z</time>
      </trkpt>
      <trkpt lat="45.91286" lon="4.62908">
        <ele>324.1</ele>
        <time>2016-01-09T10:37:20Z</time>
      </trkpt>
      <trkpt lat="45.91288" lon="4.62857">
        <ele>325.54</ele>
        <time>2016-01-09T10:37:34Z</time>
      </trkpt>
      <trkpt lat="45.91292" lon="4.62813">
        <ele>325.54</ele>
        <time>2016-01-09T10:37:45Z</time>
      </trkpt>
      <trkpt lat="45.91293" lon="4.62757">
        <ele>326.99</ele>
        <time>2016-01-09T10:37:59Z</time>
      </trkpt>
      <trkpt lat="45.91296" lon="4.62709">
        <ele>328.91</ele>
        <time>2016-01-09T10:38:13Z</time>
      </trkpt>
      <trkpt lat="45.913" lon="4.62665">
        <ele>330.35</ele>
        <time>2016-01-09T10:38:26Z</time>
      </trkpt>
      <trkpt lat="45.91299" lon="4.62614">
        <ele>330.83</ele>
        <time>2016-01-09T10:38:41Z</time>
      </trkpt>
      <trkpt lat="45.91307" lon="4.62557">
        <ele>332.75</ele>
        <time>2016-01-09T10:38:56Z</time>
      </trkpt>
      <trkpt lat="45.91318" lon="4.6252">
        <ele>334.2</ele>
        <time>2016-01-09T10:39:09Z</time>
      </trkpt>
      <trkpt lat="45.91326" lon="4.62498">
        <ele>335.64</ele>
        <time>2016-01-09T10:39:20Z</time>
      </trkpt>
      <trkpt lat="45.91327" lon="4.62496">
        <ele>335.64</ele>
        <time>2016-01-09T10:39:21Z</time>
      </trkpt>
      <trkpt lat="45.91337" lon="4.62472">
        <ele>336.6</ele>
        <time>2016-01-09T10:39:32Z</time>
      </trkpt>
      <trkpt lat="45.91354" lon="4.62436">
        <ele>338.04</ele>
        <time>2016-01-09T10:39:47Z</time>
      </trkpt>
      <trkpt lat="45.91362" lon="4.62398">
        <ele>339.48</ele>
        <time>2016-01-09T10:40:01Z</time>
      </trkpt>
      <trkpt lat="45.91362" lon="4.62367">
        <ele>340.44</ele>
        <time>2016-01-09T10:40:14Z</time>
      </trkpt>
      <trkpt lat="45.91362" lon="4.62366">
        <ele>339.96</ele>
        <time>2016-01-09T10:40:26Z</time>
      </trkpt>
      <trkpt lat="45.91362" lon="4.62366">
        <ele>339.96</ele>
        <time>2016-01-09T10:40:39Z</time>
      </trkpt>
      <trkpt lat="45.91362" lon="4.62366">
        <ele>334.68</ele>
        <time>2016-01-09T10:40:40Z</time>
      </trkpt>
      <trkpt lat="45.91362" lon="4.62366">
        <ele>338.52</ele>
        <time>2016-01-09T10:40:41Z</time>
      </trkpt>
      <trkpt lat="45.91362" lon="4.62366">
        <ele>341.89</ele>
        <time>2016-01-09T10:40:42Z</time>
      </trkpt>
      <trkpt lat="45.91362" lon="4.62366">
        <ele>340.44</ele>
        <time>2016-01-09T10:40:43Z</time>
      </trkpt>
      <trkpt lat="45.91361" lon="4.62362">
        <ele>339.96</ele>
        <time>2016-01-09T10:40:50Z</time>
      </trkpt>
      <trkpt lat="45.91361" lon="4.6236">
        <ele>340.44</ele>
        <time>2016-01-09T10:40:51Z</time>
      </trkpt>
      <trkpt lat="45.91369" lon="4.62303">
        <ele>340.44</ele>
        <time>2016-01-09T10:41:06Z</time>
      </trkpt>
      <trkpt lat="45.91378" lon="4.62241">
        <ele>340.92</ele>
        <time>2016-01-09T10:41:22Z</time>
      </trkpt>
      <trkpt lat="45.91382" lon="4.62183">
        <ele>341.89</ele>
        <time>2016-01-09T10:41:37Z</time>
      </trkpt>
      <trkpt lat="45.91387" lon="4.62119">
        <ele>343.33</ele>
        <time>2016-01-09T10:41:53Z</time>
      </trkpt>
      <trkpt lat="45.91391" lon="4.62064">
        <ele>345.73</ele>
        <time>2016-01-09T10:42:08Z</time>
      </trkpt>
      <trkpt lat="45.91397" lon="4.6201">
        <ele>348.13</ele>
        <time>2016-01-09T10:42:26Z</time>
      </trkpt>
      <trkpt lat="45.91403" lon="4.61972">
        <ele>349.58</ele>
        <time>2016-01-09T10:42:41Z</time>
      </trkpt>
      <trkpt lat="45.91411" lon="4.61934">
        <ele>351.98</ele>
        <time>2016-01-09T10:42:55Z</time>
      </trkpt>
      <trkpt lat="45.9142" lon="4.61902">
        <ele>354.38</ele>
        <time>2016-01-09T10:43:09Z</time>
      </trkpt>
      <trkpt lat="45.91433" lon="4.61867">
        <ele>355.83</ele>
        <time>2016-01-09T10:43:25Z</time>
      </trkpt>
      <trkpt lat="45.91438" lon="4.61855">
        <ele>357.27</ele>
        <time>2016-01-09T10:43:32Z</time>
      </trkpt>
      <trkpt lat="45.91438" lon="4.61852">
        <ele>356.79</ele>
        <time>2016-01-09T10:43:33Z</time>
      </trkpt>
      <trkpt lat="45.91437" lon="4.6185">
        <ele>357.75</ele>
        <time>2016-01-09T10:43:34Z</time>
      </trkpt>
      <trkpt lat="45.91419" lon="4.6181">
        <ele>359.19</ele>
        <time>2016-01-09T10:43:48Z</time>
      </trkpt>
      <trkpt lat="45.91402" lon="4.61765">
        <ele>358.23</ele>
        <time>2016-01-09T10:44:01Z</time>
      </trkpt>
      <trkpt lat="45.91403" lon="4.61755">
        <ele>358.23</ele>
        <time>2016-01-09T10:44:04Z</time>
      </trkpt>
      <trkpt lat="45.91405" lon="4.61752">
        <ele>358.23</ele>
        <time>2016-01-09T10:44:05Z</time>
      </trkpt>
      <trkpt lat="45.91435" lon="4.61727">
        <ele>360.15</ele>
        <time>2016-01-09T10:44:19Z</time>
      </trkpt>
      <trkpt lat="45.91468" lon="4.61713">
        <ele>361.59</ele>
        <time>2016-01-09T10:44:34Z</time>
      </trkpt>
      <trkpt lat="45.91483" lon="4.61684">
        <ele>363.52</ele>
        <time>2016-01-09T10:44:46Z</time>
      </trkpt>
      <trkpt lat="45.91485" lon="4.61679">
        <ele>363.04</ele>
        <time>2016-01-09T10:44:48Z</time>
      </trkpt>
      <trkpt lat="45.91487" lon="4.61677">
        <ele>363.52</ele>
        <time>2016-01-09T10:44:49Z</time>
      </trkpt>
      <trkpt lat="45.91488" lon="4.61675">
        <ele>363.52</ele>
        <time>2016-01-09T10:44:50Z</time>
      </trkpt>
      <trkpt lat="45.91493" lon="4.61672">
        <ele>363.04</ele>
        <time>2016-01-09T10:44:53Z</time>
      </trkpt>
      <trkpt lat="45.9152" lon="4.61662">
        <ele>364</ele>
        <time>2016-01-09T10:45:06Z</time>
      </trkpt>
      <trkpt lat="45.91536" lon="4.61658">
        <ele>363.52</ele>
        <time>2016-01-09T10:45:16Z</time>
      </trkpt>
      <trkpt lat="45.9153" lon="4.61645">
        <ele>361.11</ele>
        <time>2016-01-09T10:45:22Z</time>
      </trkpt>
      <trkpt lat="45.91522" lon="4.61625">
        <ele>358.23</ele>
        <time>2016-01-09T10:45:28Z</time>
      </trkpt>
      <trkpt lat="45.9152" lon="4.61619">
        <ele>357.75</ele>
        <time>2016-01-09T10:45:29Z</time>
      </trkpt>
      <trkpt lat="45.91519" lon="4.61612">
        <ele>356.79</ele>
        <time>2016-01-09T10:45:30Z</time>
      </trkpt>
      <trkpt lat="45.91516" lon="4.61597">
        <ele>355.34</ele>
        <time>2016-01-09T10:45:32Z</time>
      </trkpt>
      <trkpt lat="45.91515" lon="4.6158">
        <ele>353.42</ele>
        <time>2016-01-09T10:45:34Z</time>
      </trkpt>
      <trkpt lat="45.91515" lon="4.61501">
        <ele>350.06</ele>
        <time>2016-01-09T10:45:44Z</time>
      </trkpt>
      <trkpt lat="45.91515" lon="4.61482">
        <ele>350.54</ele>
        <time>2016-01-09T10:45:47Z</time>
      </trkpt>
      <trkpt lat="45.9151" lon="4.61426">
        <ele>352.46</ele>
        <time>2016-01-09T10:45:59Z</time>
      </trkpt>
      <trkpt lat="45.91509" lon="4.61393">
        <ele>353.42</ele>
        <time>2016-01-09T10:46:13Z</time>
      </trkpt>
      <trkpt lat="45.91509" lon="4.61385">
        <ele>354.38</ele>
        <time>2016-01-09T10:46:17Z</time>
      </trkpt>
      <trkpt lat="45.91509" lon="4.61383">
        <ele>354.38</ele>
        <time>2016-01-09T10:46:18Z</time>
      </trkpt>
      <trkpt lat="45.91508" lon="4.61373">
        <ele>354.86</ele>
        <time>2016-01-09T10:46:22Z</time>
      </trkpt>
      <trkpt lat="45.91508" lon="4.61371">
        <ele>355.34</ele>
        <time>2016-01-09T10:46:23Z</time>
      </trkpt>
      <trkpt lat="45.91508" lon="4.61369">
        <ele>355.34</ele>
        <time>2016-01-09T10:46:24Z</time>
      </trkpt>
      <trkpt lat="45.91508" lon="4.61367">
        <ele>354.86</ele>
        <time>2016-01-09T10:46:25Z</time>
      </trkpt>
      <trkpt lat="45.91507" lon="4.61365">
        <ele>354.86</ele>
        <time>2016-01-09T10:46:26Z</time>
      </trkpt>
      <trkpt lat="45.91507" lon="4.61363">
        <ele>355.34</ele>
        <time>2016-01-09T10:46:27Z</time>
      </trkpt>
      <trkpt lat="45.91507" lon="4.61361">
        <ele>355.34</ele>
        <time>2016-01-09T10:46:28Z</time>
      </trkpt>
      <trkpt lat="45.91507" lon="4.61358">
        <ele>355.34</ele>
        <time>2016-01-09T10:46:29Z</time>
      </trkpt>
      <trkpt lat="45.915" lon="4.61334">
        <ele>357.27</ele>
        <time>2016-01-09T10:46:41Z</time>
      </trkpt>
      <trkpt lat="45.91499" lon="4.61332">
        <ele>356.79</ele>
        <time>2016-01-09T10:46:42Z</time>
      </trkpt>
      <trkpt lat="45.91492" lon="4.61306">
        <ele>358.71</ele>
        <time>2016-01-09T10:46:56Z</time>
      </trkpt>
      <trkpt lat="45.91476" lon="4.61277">
        <ele>360.15</ele>
        <time>2016-01-09T10:47:13Z</time>
      </trkpt>
      <trkpt lat="45.91462" lon="4.61246">
        <ele>361.59</ele>
        <time>2016-01-09T10:47:31Z</time>
      </trkpt>
      <trkpt lat="45.91461" lon="4.61239">
        <ele>362.07</ele>
        <time>2016-01-09T10:47:34Z</time>
      </trkpt>
      <trkpt lat="45.91462" lon="4.61237">
        <ele>362.07</ele>
        <time>2016-01-09T10:47:46Z</time>
      </trkpt>
      <trkpt lat="45.91462" lon="4.61237">
        <ele>359.19</ele>
        <time>2016-01-09T10:47:57Z</time>
      </trkpt>
      <trkpt lat="45.91462" lon="4.61237">
        <ele>359.67</ele>
        <time>2016-01-09T10:47:58Z</time>
      </trkpt>
      <trkpt lat="45.91463" lon="4.61237">
        <ele>362.07</ele>
        <time>2016-01-09T10:48:20Z</time>
      </trkpt>
      <trkpt lat="45.91463" lon="4.61237">
        <ele>362.07</ele>
        <time>2016-01-09T10:48:53Z</time>
      </trkpt>
      <trkpt lat="45.91463" lon="4.61236">
        <ele>362.07</ele>
        <time>2016-01-09T10:49:31Z</time>
      </trkpt>
      <trkpt lat="45.91463" lon="4.61237">
        <ele>361.59</ele>
        <time>2016-01-09T10:50:13Z</time>
      </trkpt>
      <trkpt lat="45.91463" lon="4.61236">
        <ele>361.59</ele>
        <time>2016-01-09T10:50:50Z</time>
      </trkpt>
      <trkpt lat="45.91464" lon="4.61237">
        <ele>361.11</ele>
        <time>2016-01-09T10:51:25Z</time>
      </trkpt>
      <trkpt lat="45.91464" lon="4.61237">
        <ele>362.07</ele>
        <time>2016-01-09T10:52:03Z</time>
      </trkpt>
      <trkpt lat="45.91464" lon="4.61236">
        <ele>362.07</ele>
        <time>2016-01-09T10:52:44Z</time>
      </trkpt>
      <trkpt lat="45.91463" lon="4.61236">
        <ele>362.07</ele>
        <time>2016-01-09T10:53:24Z</time>
      </trkpt>
      <trkpt lat="45.91463" lon="4.61236">
        <ele>362.07</ele>
        <time>2016-01-09T10:54:01Z</time>
      </trkpt>
      <trkpt lat="45.91464" lon="4.61236">
        <ele>361.59</ele>
        <time>2016-01-09T10:54:41Z</time>
      </trkpt>
      <trkpt lat="45.91464" lon="4.61236">
        <ele>362.07</ele>
        <time>2016-01-09T10:55:23Z</time>
      </trkpt>
      <trkpt lat="45.91464" lon="4.61237">
        <ele>362.07</ele>
        <time>2016-01-09T10:55:56Z</time>
      </trkpt>
      <trkpt lat="45.91465" lon="4.61237">
        <ele>362.07</ele>
        <time>2016-01-09T10:55:57Z</time>
      </trkpt>
      <trkpt lat="45.91479" lon="4.61234">
        <ele>363.52</ele>
        <time>2016-01-09T10:56:08Z</time>
      </trkpt>
      <trkpt lat="45.91502" lon="4.61226">
        <ele>365.44</ele>
        <time>2016-01-09T10:56:24Z</time>
      </trkpt>
      <trkpt lat="45.91523" lon="4.61219">
        <ele>367.36</ele>
        <time>2016-01-09T10:56:39Z</time>
      </trkpt>
      <trkpt lat="45.91541" lon="4.61213">
        <ele>370.24</ele>
        <time>2016-01-09T10:56:53Z</time>
      </trkpt>
      <trkpt lat="45.91547" lon="4.61211">
        <ele>370.73</ele>
        <time>2016-01-09T10:56:57Z</time>
      </trkpt>
      <trkpt lat="45.91549" lon="4.61211">
        <ele>370.73</ele>
        <time>2016-01-09T10:56:58Z</time>
      </trkpt>
      <trkpt lat="45.9155" lon="4.61211">
        <ele>371.21</ele>
        <time>2016-01-09T10:56:59Z</time>
      </trkpt>
      <trkpt lat="45.91552" lon="4.6121">
        <ele>370.73</ele>
        <time>2016-01-09T10:57:00Z</time>
      </trkpt>
      <trkpt lat="45.91554" lon="4.61209">
        <ele>370.73</ele>
        <time>2016-01-09T10:57:01Z</time>
      </trkpt>
      <trkpt lat="45.91556" lon="4.61209">
        <ele>370.73</ele>
        <time>2016-01-09T10:57:02Z</time>
      </trkpt>
      <trkpt lat="45.91558" lon="4.61208">
        <ele>371.21</ele>
        <time>2016-01-09T10:57:03Z</time>
      </trkpt>
      <trkpt lat="45.91561" lon="4.61208">
        <ele>371.21</ele>
        <time>2016-01-09T10:57:04Z</time>
      </trkpt>
      <trkpt lat="45.91563" lon="4.61207">
        <ele>371.21</ele>
        <time>2016-01-09T10:57:05Z</time>
      </trkpt>
      <trkpt lat="45.91588" lon="4.61199">
        <ele>373.13</ele>
        <time>2016-01-09T10:57:21Z</time>
      </trkpt>
      <trkpt lat="45.91609" lon="4.61192">
        <ele>376.01</ele>
        <time>2016-01-09T10:57:37Z</time>
      </trkpt>
      <trkpt lat="45.91626" lon="4.61188">
        <ele>377.45</ele>
        <time>2016-01-09T10:57:50Z</time>
      </trkpt>
      <trkpt lat="45.91646" lon="4.61181">
        <ele>379.38</ele>
        <time>2016-01-09T10:58:05Z</time>
      </trkpt>
      <trkpt lat="45.91666" lon="4.61186">
        <ele>382.26</ele>
        <time>2016-01-09T10:58:21Z</time>
      </trkpt>
      <trkpt lat="45.91684" lon="4.612">
        <ele>383.22</ele>
        <time>2016-01-09T10:58:36Z</time>
      </trkpt>
      <trkpt lat="45.91708" lon="4.61213">
        <ele>385.63</ele>
        <time>2016-01-09T10:58:53Z</time>
      </trkpt>
      <trkpt lat="45.91714" lon="4.61212">
        <ele>386.59</ele>
        <time>2016-01-09T10:58:57Z</time>
      </trkpt>
      <trkpt lat="45.91715" lon="4.6121">
        <ele>386.11</ele>
        <time>2016-01-09T10:58:58Z</time>
      </trkpt>
      <trkpt lat="45.91715" lon="4.61208">
        <ele>386.59</ele>
        <time>2016-01-09T10:58:59Z</time>
      </trkpt>
      <trkpt lat="45.91716" lon="4.61206">
        <ele>387.07</ele>
        <time>2016-01-09T10:59:00Z</time>
      </trkpt>
      <trkpt lat="45.91717" lon="4.61204">
        <ele>387.07</ele>
        <time>2016-01-09T10:59:01Z</time>
      </trkpt>
      <trkpt lat="45.91717" lon="4.61202">
        <ele>387.07</ele>
        <time>2016-01-09T10:59:02Z</time>
      </trkpt>
      <trkpt lat="45.91718" lon="4.612">
        <ele>387.07</ele>
        <time>2016-01-09T10:59:03Z</time>
      </trkpt>
      <trkpt lat="45.91718" lon="4.61198">
        <ele>387.07</ele>
        <time>2016-01-09T10:59:04Z</time>
      </trkpt>
      <trkpt lat="45.91719" lon="4.61196">
        <ele>387.55</ele>
        <time>2016-01-09T10:59:05Z</time>
      </trkpt>
      <trkpt lat="45.9172" lon="4.61193">
        <ele>387.55</ele>
        <time>2016-01-09T10:59:06Z</time>
      </trkpt>
      <trkpt lat="45.9172" lon="4.61191">
        <ele>387.55</ele>
        <time>2016-01-09T10:59:07Z</time>
      </trkpt>
      <trkpt lat="45.91731" lon="4.61155">
        <ele>389.47</ele>
        <time>2016-01-09T10:59:24Z</time>
      </trkpt>
      <trkpt lat="45.91739" lon="4.61104">
        <ele>391.87</ele>
        <time>2016-01-09T10:59:39Z</time>
      </trkpt>
      <trkpt lat="45.91735" lon="4.61048">
        <ele>393.32</ele>
        <time>2016-01-09T10:59:53Z</time>
      </trkpt>
      <trkpt lat="45.91717" lon="4.60994">
        <ele>394.76</ele>
        <time>2016-01-09T11:00:08Z</time>
      </trkpt>
      <trkpt lat="45.91699" lon="4.60942">
        <ele>397.64</ele>
        <time>2016-01-09T11:00:26Z</time>
      </trkpt>
      <trkpt lat="45.91697" lon="4.60936">
        <ele>398.12</ele>
        <time>2016-01-09T11:00:28Z</time>
      </trkpt>
      <trkpt lat="45.91699" lon="4.60887">
        <ele>400.53</ele>
        <time>2016-01-09T11:00:45Z</time>
      </trkpt>
      <trkpt lat="45.91699" lon="4.60884">
        <ele>401.01</ele>
        <time>2016-01-09T11:00:46Z</time>
      </trkpt>
      <trkpt lat="45.91697" lon="4.60882">
        <ele>401.01</ele>
        <time>2016-01-09T11:00:47Z</time>
      </trkpt>
      <trkpt lat="45.91696" lon="4.60879">
        <ele>400.53</ele>
        <time>2016-01-09T11:00:48Z</time>
      </trkpt>
      <trkpt lat="45.91695" lon="4.60877">
        <ele>401.01</ele>
        <time>2016-01-09T11:00:49Z</time>
      </trkpt>
      <trkpt lat="45.91695" lon="4.60875">
        <ele>401.49</ele>
        <time>2016-01-09T11:00:50Z</time>
      </trkpt>
      <trkpt lat="45.91695" lon="4.60873">
        <ele>401.01</ele>
        <time>2016-01-09T11:00:51Z</time>
      </trkpt>
      <trkpt lat="45.91695" lon="4.60871">
        <ele>401.97</ele>
        <time>2016-01-09T11:00:52Z</time>
      </trkpt>
      <trkpt lat="45.91696" lon="4.60869">
        <ele>401.49</ele>
        <time>2016-01-09T11:00:53Z</time>
      </trkpt>
      <trkpt lat="45.91697" lon="4.60867">
        <ele>401.01</ele>
        <time>2016-01-09T11:00:54Z</time>
      </trkpt>
      <trkpt lat="45.91697" lon="4.60866">
        <ele>401.49</ele>
        <time>2016-01-09T11:00:55Z</time>
      </trkpt>
      <trkpt lat="45.91698" lon="4.60864">
        <ele>401.01</ele>
        <time>2016-01-09T11:00:56Z</time>
      </trkpt>
      <trkpt lat="45.917" lon="4.60864">
        <ele>401.49</ele>
        <time>2016-01-09T11:00:57Z</time>
      </trkpt>
      <trkpt lat="45.91701" lon="4.60864">
        <ele>401.49</ele>
        <time>2016-01-09T11:00:58Z</time>
      </trkpt>
      <trkpt lat="45.91702" lon="4.60865">
        <ele>401.01</ele>
        <time>2016-01-09T11:00:59Z</time>
      </trkpt>
      <trkpt lat="45.91702" lon="4.60867">
        <ele>401.01</ele>
        <time>2016-01-09T11:01:00Z</time>
      </trkpt>
      <trkpt lat="45.91702" lon="4.60868">
        <ele>401.49</ele>
        <time>2016-01-09T11:01:01Z</time>
      </trkpt>
      <trkpt lat="45.917" lon="4.6087">
        <ele>401.01</ele>
        <time>2016-01-09T11:01:03Z</time>
      </trkpt>
      <trkpt lat="45.91699" lon="4.60869">
        <ele>401.01</ele>
        <time>2016-01-09T11:01:04Z</time>
      </trkpt>
      <trkpt lat="45.91699" lon="4.60863">
        <ele>400.53</ele>
        <time>2016-01-09T11:01:08Z</time>
      </trkpt>
      <trkpt lat="45.91701" lon="4.60863">
        <ele>401.49</ele>
        <time>2016-01-09T11:01:10Z</time>
      </trkpt>
      <trkpt lat="45.91693" lon="4.6087">
        <ele>401.01</ele>
        <time>2016-01-09T11:01:20Z</time>
      </trkpt>
      <trkpt lat="45.91695" lon="4.60875">
        <ele>401.01</ele>
        <time>2016-01-09T11:01:25Z</time>
      </trkpt>
      <trkpt lat="45.91698" lon="4.60872">
        <ele>401.01</ele>
        <time>2016-01-09T11:01:28Z</time>
      </trkpt>
      <trkpt lat="45.91693" lon="4.60872">
        <ele>401.01</ele>
        <time>2016-01-09T11:01:37Z</time>
      </trkpt>
      <trkpt lat="45.91696" lon="4.60906">
        <ele>400.53</ele>
        <time>2016-01-09T11:01:45Z</time>
      </trkpt>
      <trkpt lat="45.91695" lon="4.60913">
        <ele>399.57</ele>
        <time>2016-01-09T11:01:46Z</time>
      </trkpt>
      <trkpt lat="45.91695" lon="4.6092">
        <ele>399.57</ele>
        <time>2016-01-09T11:01:47Z</time>
      </trkpt>
      <trkpt lat="45.91696" lon="4.60927">
        <ele>399.08</ele>
        <time>2016-01-09T11:01:48Z</time>
      </trkpt>
      <trkpt lat="45.91697" lon="4.60935">
        <ele>399.08</ele>
        <time>2016-01-09T11:01:49Z</time>
      </trkpt>
      <trkpt lat="45.91699" lon="4.60943">
        <ele>398.12</ele>
        <time>2016-01-09T11:01:50Z</time>
      </trkpt>
      <trkpt lat="45.91701" lon="4.60952">
        <ele>398.12</ele>
        <time>2016-01-09T11:01:51Z</time>
      </trkpt>
      <trkpt lat="45.91704" lon="4.60961">
        <ele>397.64</ele>
        <time>2016-01-09T11:01:52Z</time>
      </trkpt>
      <trkpt lat="45.91728" lon="4.6103">
        <ele>394.76</ele>
        <time>2016-01-09T11:01:59Z</time>
      </trkpt>
      <trkpt lat="45.91732" lon="4.6104">
        <ele>394.76</ele>
        <time>2016-01-09T11:02:00Z</time>
      </trkpt>
      <trkpt lat="45.91776" lon="4.61168">
        <ele>394.28</ele>
        <time>2016-01-09T11:02:14Z</time>
      </trkpt>
      <trkpt lat="45.91805" lon="4.61257">
        <ele>396.2</ele>
        <time>2016-01-09T11:02:27Z</time>
      </trkpt>
      <trkpt lat="45.91807" lon="4.61264">
        <ele>396.2</ele>
        <time>2016-01-09T11:02:28Z</time>
      </trkpt>
      <trkpt lat="45.91817" lon="4.61312">
        <ele>396.2</ele>
        <time>2016-01-09T11:02:35Z</time>
      </trkpt>
      <trkpt lat="45.91817" lon="4.61319">
        <ele>396.2</ele>
        <time>2016-01-09T11:02:36Z</time>
      </trkpt>
      <trkpt lat="45.91828" lon="4.61419">
        <ele>396.68</ele>
        <time>2016-01-09T11:02:52Z</time>
      </trkpt>
      <trkpt lat="45.91837" lon="4.61496">
        <ele>398.6</ele>
        <time>2016-01-09T11:03:07Z</time>
      </trkpt>
      <trkpt lat="45.91857" lon="4.61543">
        <ele>400.53</ele>
        <time>2016-01-09T11:03:21Z</time>
      </trkpt>
      <trkpt lat="45.91869" lon="4.61557">
        <ele>400.05</ele>
        <time>2016-01-09T11:03:27Z</time>
      </trkpt>
      <trkpt lat="45.91872" lon="4.61556">
        <ele>400.53</ele>
        <time>2016-01-09T11:03:28Z</time>
      </trkpt>
      <trkpt lat="45.91873" lon="4.61554">
        <ele>400.53</ele>
        <time>2016-01-09T11:03:29Z</time>
      </trkpt>
      <trkpt lat="45.91874" lon="4.61551">
        <ele>401.01</ele>
        <time>2016-01-09T11:03:30Z</time>
      </trkpt>
      <trkpt lat="45.91875" lon="4.61549">
        <ele>401.49</ele>
        <time>2016-01-09T11:03:31Z</time>
      </trkpt>
      <trkpt lat="45.91875" lon="4.61548">
        <ele>402.45</ele>
        <time>2016-01-09T11:03:32Z</time>
      </trkpt>
      <trkpt lat="45.91875" lon="4.61545">
        <ele>402.45</ele>
        <time>2016-01-09T11:03:33Z</time>
      </trkpt>
      <trkpt lat="45.9188" lon="4.61534">
        <ele>403.41</ele>
        <time>2016-01-09T11:03:40Z</time>
      </trkpt>
      <trkpt lat="45.91881" lon="4.61533">
        <ele>403.89</ele>
        <time>2016-01-09T11:03:41Z</time>
      </trkpt>
      <trkpt lat="45.91884" lon="4.61525">
        <ele>404.85</ele>
        <time>2016-01-09T11:03:47Z</time>
      </trkpt>
      <trkpt lat="45.91886" lon="4.6152">
        <ele>405.33</ele>
        <time>2016-01-09T11:03:50Z</time>
      </trkpt>
      <trkpt lat="45.91891" lon="4.61505">
        <ele>406.77</ele>
        <time>2016-01-09T11:03:59Z</time>
      </trkpt>
      <trkpt lat="45.91892" lon="4.61503">
        <ele>407.26</ele>
        <time>2016-01-09T11:04:00Z</time>
      </trkpt>
      <trkpt lat="45.91892" lon="4.61502">
        <ele>407.74</ele>
        <time>2016-01-09T11:04:01Z</time>
      </trkpt>
      <trkpt lat="45.91893" lon="4.615">
        <ele>407.74</ele>
        <time>2016-01-09T11:04:02Z</time>
      </trkpt>
      <trkpt lat="45.91894" lon="4.61499">
        <ele>407.74</ele>
        <time>2016-01-09T11:04:03Z</time>
      </trkpt>
      <trkpt lat="45.91897" lon="4.61485">
        <ele>409.18</ele>
        <time>2016-01-09T11:04:17Z</time>
      </trkpt>
      <trkpt lat="45.91898" lon="4.61483">
        <ele>409.66</ele>
        <time>2016-01-09T11:04:31Z</time>
      </trkpt>
      <trkpt lat="45.91901" lon="4.61471">
        <ele>411.1</ele>
        <time>2016-01-09T11:04:46Z</time>
      </trkpt>
      <trkpt lat="45.91905" lon="4.61455">
        <ele>412.54</ele>
        <time>2016-01-09T11:05:01Z</time>
      </trkpt>
      <trkpt lat="45.91909" lon="4.61443">
        <ele>414.95</ele>
        <time>2016-01-09T11:05:14Z</time>
      </trkpt>
      <trkpt lat="45.91914" lon="4.61434">
        <ele>415.91</ele>
        <time>2016-01-09T11:05:22Z</time>
      </trkpt>
      <trkpt lat="45.9192" lon="4.61418">
        <ele>418.31</ele>
        <time>2016-01-09T11:05:36Z</time>
      </trkpt>
      <trkpt lat="45.91924" lon="4.61401">
        <ele>420.71</ele>
        <time>2016-01-09T11:05:51Z</time>
      </trkpt>
      <trkpt lat="45.91929" lon="4.61384">
        <ele>423.6</ele>
        <time>2016-01-09T11:06:06Z</time>
      </trkpt>
      <trkpt lat="45.91932" lon="4.61381">
        <ele>424.56</ele>
        <time>2016-01-09T11:06:09Z</time>
      </trkpt>
      <trkpt lat="45.91943" lon="4.61369">
        <ele>425.52</ele>
        <time>2016-01-09T11:06:24Z</time>
      </trkpt>
      <trkpt lat="45.91957" lon="4.61362">
        <ele>427.92</ele>
        <time>2016-01-09T11:06:39Z</time>
      </trkpt>
      <trkpt lat="45.91959" lon="4.61361">
        <ele>427.92</ele>
        <time>2016-01-09T11:06:41Z</time>
      </trkpt>
      <trkpt lat="45.91967" lon="4.6135">
        <ele>430.33</ele>
        <time>2016-01-09T11:06:54Z</time>
      </trkpt>
      <trkpt lat="45.91971" lon="4.6134">
        <ele>431.29</ele>
        <time>2016-01-09T11:07:08Z</time>
      </trkpt>
      <trkpt lat="45.9197" lon="4.61338">
        <ele>431.29</ele>
        <time>2016-01-09T11:07:30Z</time>
      </trkpt>
      <trkpt lat="45.9197" lon="4.61336">
        <ele>431.29</ele>
        <time>2016-01-09T11:07:31Z</time>
      </trkpt>
      <trkpt lat="45.91969" lon="4.61334">
        <ele>431.29</ele>
        <time>2016-01-09T11:07:32Z</time>
      </trkpt>
      <trkpt lat="45.91967" lon="4.61328">
        <ele>427.44</ele>
        <time>2016-01-09T11:07:35Z</time>
      </trkpt>
      <trkpt lat="45.91967" lon="4.61326">
        <ele>432.25</ele>
        <time>2016-01-09T11:07:36Z</time>
      </trkpt>
      <trkpt lat="45.91967" lon="4.61323">
        <ele>431.29</ele>
        <time>2016-01-09T11:07:37Z</time>
      </trkpt>
      <trkpt lat="45.91957" lon="4.61273">
        <ele>431.77</ele>
        <time>2016-01-09T11:07:51Z</time>
      </trkpt>
      <trkpt lat="45.91947" lon="4.61236">
        <ele>432.25</ele>
        <time>2016-01-09T11:08:04Z</time>
      </trkpt>
      <trkpt lat="45.91948" lon="4.61233">
        <ele>432.25</ele>
        <time>2016-01-09T11:08:05Z</time>
      </trkpt>
      <trkpt lat="45.91949" lon="4.61231">
        <ele>432.73</ele>
        <time>2016-01-09T11:08:06Z</time>
      </trkpt>
      <trkpt lat="45.91951" lon="4.6123">
        <ele>433.21</ele>
        <time>2016-01-09T11:08:07Z</time>
      </trkpt>
      <trkpt lat="45.91952" lon="4.61229">
        <ele>433.69</ele>
        <time>2016-01-09T11:08:08Z</time>
      </trkpt>
      <trkpt lat="45.91966" lon="4.61223">
        <ele>435.61</ele>
        <time>2016-01-09T11:08:19Z</time>
      </trkpt>
      <trkpt lat="45.91969" lon="4.61222">
        <ele>435.61</ele>
        <time>2016-01-09T11:08:21Z</time>
      </trkpt>
      <trkpt lat="45.9197" lon="4.61221">
        <ele>435.61</ele>
        <time>2016-01-09T11:08:22Z</time>
      </trkpt>
      <trkpt lat="45.91971" lon="4.6122">
        <ele>436.1</ele>
        <time>2016-01-09T11:08:23Z</time>
      </trkpt>
      <trkpt lat="45.91972" lon="4.6122">
        <ele>436.1</ele>
        <time>2016-01-09T11:08:24Z</time>
      </trkpt>
      <trkpt lat="45.91982" lon="4.61214">
        <ele>438.5</ele>
        <time>2016-01-09T11:08:34Z</time>
      </trkpt>
      <trkpt lat="45.91983" lon="4.61214">
        <ele>438.5</ele>
        <time>2016-01-09T11:08:35Z</time>
      </trkpt>
      <trkpt lat="45.91985" lon="4.61213">
        <ele>438.98</ele>
        <time>2016-01-09T11:08:36Z</time>
      </trkpt>
      <trkpt lat="45.91986" lon="4.61212">
        <ele>438.98</ele>
        <time>2016-01-09T11:08:37Z</time>
      </trkpt>
      <trkpt lat="45.91987" lon="4.61211">
        <ele>438.5</ele>
        <time>2016-01-09T11:08:38Z</time>
      </trkpt>
      <trkpt lat="45.91988" lon="4.6121">
        <ele>438.98</ele>
        <time>2016-01-09T11:08:39Z</time>
      </trkpt>
      <trkpt lat="45.91989" lon="4.6121">
        <ele>438.98</ele>
        <time>2016-01-09T11:08:40Z</time>
      </trkpt>
      <trkpt lat="45.9199" lon="4.61209">
        <ele>438.98</ele>
        <time>2016-01-09T11:08:41Z</time>
      </trkpt>
      <trkpt lat="45.91995" lon="4.61205">
        <ele>439.94</ele>
        <time>2016-01-09T11:08:47Z</time>
      </trkpt>
      <trkpt lat="45.91996" lon="4.61205">
        <ele>439.94</ele>
        <time>2016-01-09T11:08:48Z</time>
      </trkpt>
      <trkpt lat="45.91998" lon="4.61205">
        <ele>439.94</ele>
        <time>2016-01-09T11:08:49Z</time>
      </trkpt>
      <trkpt lat="45.91999" lon="4.61204">
        <ele>439.94</ele>
        <time>2016-01-09T11:08:50Z</time>
      </trkpt>
      <trkpt lat="45.92" lon="4.61204">
        <ele>439.94</ele>
        <time>2016-01-09T11:08:51Z</time>
      </trkpt>
      <trkpt lat="45.92001" lon="4.61203">
        <ele>439.94</ele>
        <time>2016-01-09T11:08:52Z</time>
      </trkpt>
      <trkpt lat="45.92005" lon="4.61202">
        <ele>440.9</ele>
        <time>2016-01-09T11:08:56Z</time>
      </trkpt>
      <trkpt lat="45.92006" lon="4.61202">
        <ele>440.9</ele>
        <time>2016-01-09T11:08:57Z</time>
      </trkpt>
      <trkpt lat="45.92024" lon="4.61193">
        <ele>441.86</ele>
        <time>2016-01-09T11:09:12Z</time>
      </trkpt>
      <trkpt lat="45.92028" lon="4.61185">
        <ele>442.82</ele>
        <time>2016-01-09T11:09:18Z</time>
      </trkpt>
      <trkpt lat="45.92029" lon="4.61181">
        <ele>443.31</ele>
        <time>2016-01-09T11:09:20Z</time>
      </trkpt>
      <trkpt lat="45.92032" lon="4.61179">
        <ele>443.31</ele>
        <time>2016-01-09T11:09:22Z</time>
      </trkpt>
      <trkpt lat="45.92049" lon="4.61176">
        <ele>443.79</ele>
        <time>2016-01-09T11:09:32Z</time>
      </trkpt>
      <trkpt lat="45.92071" lon="4.61169">
        <ele>442.82</ele>
        <time>2016-01-09T11:09:41Z</time>
      </trkpt>
      <trkpt lat="45.92101" lon="4.61167">
        <ele>440.9</ele>
        <time>2016-01-09T11:09:53Z</time>
      </trkpt>
      <trkpt lat="45.92132" lon="4.61165">
        <ele>438.02</ele>
        <time>2016-01-09T11:10:03Z</time>
      </trkpt>
      <trkpt lat="45.92135" lon="4.61164">
        <ele>438.02</ele>
        <time>2016-01-09T11:10:05Z</time>
      </trkpt>
      <trkpt lat="45.92137" lon="4.61162">
        <ele>438.02</ele>
        <time>2016-01-09T11:10:06Z</time>
      </trkpt>
      <trkpt lat="45.92137" lon="4.61161">
        <ele>438.02</ele>
        <time>2016-01-09T11:10:07Z</time>
      </trkpt>
      <trkpt lat="45.92138" lon="4.61167">
        <ele>437.54</ele>
        <time>2016-01-09T11:10:12Z</time>
      </trkpt>
      <trkpt lat="45.92138" lon="4.61169">
        <ele>438.02</ele>
        <time>2016-01-09T11:10:13Z</time>
      </trkpt>
      <trkpt lat="45.92139" lon="4.61171">
        <ele>437.54</ele>
        <time>2016-01-09T11:10:14Z</time>
      </trkpt>
      <trkpt lat="45.92134" lon="4.61204">
        <ele>437.06</ele>
        <time>2016-01-09T11:10:26Z</time>
      </trkpt>
      <trkpt lat="45.9213" lon="4.61256">
        <ele>435.61</ele>
        <time>2016-01-09T11:10:36Z</time>
      </trkpt>
      <trkpt lat="45.9213" lon="4.61272">
        <ele>435.13</ele>
        <time>2016-01-09T11:10:38Z</time>
      </trkpt>
      <trkpt lat="45.92128" lon="4.6128">
        <ele>434.17</ele>
        <time>2016-01-09T11:10:39Z</time>
      </trkpt>
      <trkpt lat="45.92126" lon="4.61287">
        <ele>433.69</ele>
        <time>2016-01-09T11:10:40Z</time>
      </trkpt>
      <trkpt lat="45.92125" lon="4.61299">
        <ele>432.73</ele>
        <time>2016-01-09T11:10:42Z</time>
      </trkpt>
      <trkpt lat="45.92125" lon="4.61304">
        <ele>432.73</ele>
        <time>2016-01-09T11:10:43Z</time>
      </trkpt>
      <trkpt lat="45.92127" lon="4.61308">
        <ele>432.25</ele>
        <time>2016-01-09T11:10:44Z</time>
      </trkpt>
      <trkpt lat="45.9213" lon="4.61311">
        <ele>431.77</ele>
        <time>2016-01-09T11:10:45Z</time>
      </trkpt>
      <trkpt lat="45.92133" lon="4.61313">
        <ele>431.29</ele>
        <time>2016-01-09T11:10:46Z</time>
      </trkpt>
      <trkpt lat="45.92138" lon="4.61313">
        <ele>430.81</ele>
        <time>2016-01-09T11:10:47Z</time>
      </trkpt>
      <trkpt lat="45.92144" lon="4.61311">
        <ele>429.85</ele>
        <time>2016-01-09T11:10:48Z</time>
      </trkpt>
      <trkpt lat="45.92149" lon="4.61309">
        <ele>429.85</ele>
        <time>2016-01-09T11:10:49Z</time>
      </trkpt>
      <trkpt lat="45.92196" lon="4.61286">
        <ele>426.48</ele>
        <time>2016-01-09T11:10:56Z</time>
      </trkpt>
      <trkpt lat="45.92241" lon="4.61266">
        <ele>423.6</ele>
        <time>2016-01-09T11:11:01Z</time>
      </trkpt>
      <trkpt lat="45.9229" lon="4.61247">
        <ele>420.23</ele>
        <time>2016-01-09T11:11:06Z</time>
      </trkpt>
      <trkpt lat="45.92299" lon="4.61243">
        <ele>419.75</ele>
        <time>2016-01-09T11:11:07Z</time>
      </trkpt>
      <trkpt lat="45.92326" lon="4.61229">
        <ele>418.31</ele>
        <time>2016-01-09T11:11:10Z</time>
      </trkpt>
      <trkpt lat="45.9234" lon="4.61219">
        <ele>417.83</ele>
        <time>2016-01-09T11:11:12Z</time>
      </trkpt>
      <trkpt lat="45.92367" lon="4.61199">
        <ele>417.35</ele>
        <time>2016-01-09T11:11:17Z</time>
      </trkpt>
      <trkpt lat="45.92408" lon="4.6118">
        <ele>416.39</ele>
        <time>2016-01-09T11:11:24Z</time>
      </trkpt>
      <trkpt lat="45.9247" lon="4.61156">
        <ele>416.39</ele>
        <time>2016-01-09T11:11:35Z</time>
      </trkpt>
      <trkpt lat="45.9248" lon="4.61153">
        <ele>416.87</ele>
        <time>2016-01-09T11:11:37Z</time>
      </trkpt>
      <trkpt lat="45.92486" lon="4.61151">
        <ele>416.87</ele>
        <time>2016-01-09T11:11:38Z</time>
      </trkpt>
      <trkpt lat="45.92491" lon="4.61149">
        <ele>416.87</ele>
        <time>2016-01-09T11:11:39Z</time>
      </trkpt>
      <trkpt lat="45.92531" lon="4.61135">
        <ele>418.31</ele>
        <time>2016-01-09T11:11:51Z</time>
      </trkpt>
      <trkpt lat="45.9256" lon="4.61128">
        <ele>420.23</ele>
        <time>2016-01-09T11:12:04Z</time>
      </trkpt>
      <trkpt lat="45.9258" lon="4.61102">
        <ele>422.64</ele>
        <time>2016-01-09T11:12:16Z</time>
      </trkpt>
      <trkpt lat="45.92601" lon="4.61078">
        <ele>425.04</ele>
        <time>2016-01-09T11:12:31Z</time>
      </trkpt>
      <trkpt lat="45.92621" lon="4.61083">
        <ele>426.96</ele>
        <time>2016-01-09T11:12:43Z</time>
      </trkpt>
      <trkpt lat="45.9265" lon="4.61108">
        <ele>427.92</ele>
        <time>2016-01-09T11:13:00Z</time>
      </trkpt>
      <trkpt lat="45.9268" lon="4.61141">
        <ele>429.37</ele>
        <time>2016-01-09T11:13:16Z</time>
      </trkpt>
      <trkpt lat="45.92705" lon="4.61168">
        <ele>431.77</ele>
        <time>2016-01-09T11:13:31Z</time>
      </trkpt>
      <trkpt lat="45.9273" lon="4.61181">
        <ele>432.73</ele>
        <time>2016-01-09T11:13:45Z</time>
      </trkpt>
      <trkpt lat="45.92745" lon="4.61161">
        <ele>435.61</ele>
        <time>2016-01-09T11:14:00Z</time>
      </trkpt>
      <trkpt lat="45.92746" lon="4.6116">
        <ele>436.1</ele>
        <time>2016-01-09T11:14:01Z</time>
      </trkpt>
      <trkpt lat="45.92752" lon="4.61146">
        <ele>438.02</ele>
        <time>2016-01-09T11:14:11Z</time>
      </trkpt>
      <trkpt lat="45.92753" lon="4.61142">
        <ele>438.5</ele>
        <time>2016-01-09T11:14:13Z</time>
      </trkpt>
      <trkpt lat="45.92753" lon="4.6114">
        <ele>438.5</ele>
        <time>2016-01-09T11:14:14Z</time>
      </trkpt>
      <trkpt lat="45.92752" lon="4.61139">
        <ele>438.98</ele>
        <time>2016-01-09T11:14:15Z</time>
      </trkpt>
      <trkpt lat="45.92751" lon="4.61136">
        <ele>439.94</ele>
        <time>2016-01-09T11:14:17Z</time>
      </trkpt>
      <trkpt lat="45.92751" lon="4.61131">
        <ele>440.42</ele>
        <time>2016-01-09T11:14:19Z</time>
      </trkpt>
      <trkpt lat="45.92751" lon="4.61129">
        <ele>439.46</ele>
        <time>2016-01-09T11:14:20Z</time>
      </trkpt>
      <trkpt lat="45.92751" lon="4.61127">
        <ele>440.42</ele>
        <time>2016-01-09T11:14:21Z</time>
      </trkpt>
      <trkpt lat="45.92752" lon="4.61125">
        <ele>439.94</ele>
        <time>2016-01-09T11:14:22Z</time>
      </trkpt>
      <trkpt lat="45.9276" lon="4.61115">
        <ele>442.34</ele>
        <time>2016-01-09T11:14:30Z</time>
      </trkpt>
      <trkpt lat="45.92762" lon="4.61115">
        <ele>442.34</ele>
        <time>2016-01-09T11:14:31Z</time>
      </trkpt>
      <trkpt lat="45.92778" lon="4.61111">
        <ele>444.75</ele>
        <time>2016-01-09T11:14:43Z</time>
      </trkpt>
      <trkpt lat="45.92796" lon="4.61108">
        <ele>448.11</ele>
        <time>2016-01-09T11:14:57Z</time>
      </trkpt>
      <trkpt lat="45.92813" lon="4.61105">
        <ele>450.03</ele>
        <time>2016-01-09T11:15:11Z</time>
      </trkpt>
      <trkpt lat="45.92827" lon="4.61103">
        <ele>452.44</ele>
        <time>2016-01-09T11:15:23Z</time>
      </trkpt>
      <trkpt lat="45.9284" lon="4.61099">
        <ele>454.36</ele>
        <time>2016-01-09T11:15:34Z</time>
      </trkpt>
      <trkpt lat="45.92852" lon="4.61087">
        <ele>455.8</ele>
        <time>2016-01-09T11:15:45Z</time>
      </trkpt>
      <trkpt lat="45.92852" lon="4.61086">
        <ele>456.28</ele>
        <time>2016-01-09T11:15:46Z</time>
      </trkpt>
      <trkpt lat="45.92853" lon="4.61084">
        <ele>456.28</ele>
        <time>2016-01-09T11:15:47Z</time>
      </trkpt>
      <trkpt lat="45.92855" lon="4.61083">
        <ele>456.28</ele>
        <time>2016-01-09T11:15:48Z</time>
      </trkpt>
      <trkpt lat="45.92856" lon="4.61081">
        <ele>456.76</ele>
        <time>2016-01-09T11:15:49Z</time>
      </trkpt>
      <trkpt lat="45.92862" lon="4.6107">
        <ele>458.21</ele>
        <time>2016-01-09T11:15:56Z</time>
      </trkpt>
      <trkpt lat="45.92863" lon="4.61069">
        <ele>458.21</ele>
        <time>2016-01-09T11:15:57Z</time>
      </trkpt>
      <trkpt lat="45.92864" lon="4.61068">
        <ele>458.69</ele>
        <time>2016-01-09T11:15:58Z</time>
      </trkpt>
      <trkpt lat="45.92864" lon="4.61067">
        <ele>458.69</ele>
        <time>2016-01-09T11:15:59Z</time>
      </trkpt>
      <trkpt lat="45.92864" lon="4.61065">
        <ele>458.69</ele>
        <time>2016-01-09T11:16:00Z</time>
      </trkpt>
      <trkpt lat="45.92865" lon="4.61064">
        <ele>459.17</ele>
        <time>2016-01-09T11:16:01Z</time>
      </trkpt>
      <trkpt lat="45.92865" lon="4.61062">
        <ele>459.17</ele>
        <time>2016-01-09T11:16:02Z</time>
      </trkpt>
      <trkpt lat="45.92866" lon="4.61061">
        <ele>459.65</ele>
        <time>2016-01-09T11:16:03Z</time>
      </trkpt>
      <trkpt lat="45.92867" lon="4.6106">
        <ele>459.65</ele>
        <time>2016-01-09T11:16:04Z</time>
      </trkpt>
      <trkpt lat="45.92868" lon="4.61059">
        <ele>460.13</ele>
        <time>2016-01-09T11:16:05Z</time>
      </trkpt>
      <trkpt lat="45.92868" lon="4.61058">
        <ele>460.61</ele>
        <time>2016-01-09T11:16:06Z</time>
      </trkpt>
      <trkpt lat="45.92875" lon="4.61047">
        <ele>461.09</ele>
        <time>2016-01-09T11:16:15Z</time>
      </trkpt>
      <trkpt lat="45.92879" lon="4.61042">
        <ele>462.53</ele>
        <time>2016-01-09T11:16:20Z</time>
      </trkpt>
      <trkpt lat="45.9288" lon="4.6104">
        <ele>462.53</ele>
        <time>2016-01-09T11:16:21Z</time>
      </trkpt>
      <trkpt lat="45.92887" lon="4.61031">
        <ele>463.01</ele>
        <time>2016-01-09T11:16:29Z</time>
      </trkpt>
      <trkpt lat="45.92888" lon="4.6103">
        <ele>463.49</ele>
        <time>2016-01-09T11:16:30Z</time>
      </trkpt>
      <trkpt lat="45.92889" lon="4.61029">
        <ele>463.49</ele>
        <time>2016-01-09T11:16:31Z</time>
      </trkpt>
      <trkpt lat="45.92901" lon="4.61006">
        <ele>466.38</ele>
        <time>2016-01-09T11:16:49Z</time>
      </trkpt>
      <trkpt lat="45.92902" lon="4.61005">
        <ele>466.38</ele>
        <time>2016-01-09T11:16:50Z</time>
      </trkpt>
      <trkpt lat="45.92903" lon="4.61003">
        <ele>467.34</ele>
        <time>2016-01-09T11:16:51Z</time>
      </trkpt>
      <trkpt lat="45.92904" lon="4.61002">
        <ele>466.86</ele>
        <time>2016-01-09T11:16:52Z</time>
      </trkpt>
      <trkpt lat="45.92904" lon="4.61">
        <ele>466.86</ele>
        <time>2016-01-09T11:16:53Z</time>
      </trkpt>
      <trkpt lat="45.92905" lon="4.60998">
        <ele>467.34</ele>
        <time>2016-01-09T11:16:54Z</time>
      </trkpt>
      <trkpt lat="45.92905" lon="4.60997">
        <ele>467.34</ele>
        <time>2016-01-09T11:16:55Z</time>
      </trkpt>
      <trkpt lat="45.92905" lon="4.60995">
        <ele>467.82</ele>
        <time>2016-01-09T11:16:56Z</time>
      </trkpt>
      <trkpt lat="45.92906" lon="4.60994">
        <ele>468.3</ele>
        <time>2016-01-09T11:16:57Z</time>
      </trkpt>
      <trkpt lat="45.92907" lon="4.60991">
        <ele>468.3</ele>
        <time>2016-01-09T11:16:59Z</time>
      </trkpt>
      <trkpt lat="45.92908" lon="4.60989">
        <ele>468.78</ele>
        <time>2016-01-09T11:17:00Z</time>
      </trkpt>
      <trkpt lat="45.92916" lon="4.60968">
        <ele>471.66</ele>
        <time>2016-01-09T11:17:15Z</time>
      </trkpt>
      <trkpt lat="45.92926" lon="4.60941">
        <ele>474.55</ele>
        <time>2016-01-09T11:17:33Z</time>
      </trkpt>
      <trkpt lat="45.92932" lon="4.6093">
        <ele>476.47</ele>
        <time>2016-01-09T11:17:41Z</time>
      </trkpt>
      <trkpt lat="45.92935" lon="4.60926">
        <ele>476.95</ele>
        <time>2016-01-09T11:17:45Z</time>
      </trkpt>
      <trkpt lat="45.92937" lon="4.60926">
        <ele>476.95</ele>
        <time>2016-01-09T11:17:46Z</time>
      </trkpt>
      <trkpt lat="45.92954" lon="4.60916">
        <ele>480.32</ele>
        <time>2016-01-09T11:18:03Z</time>
      </trkpt>
      <trkpt lat="45.92957" lon="4.60914">
        <ele>480.32</ele>
        <time>2016-01-09T11:18:06Z</time>
      </trkpt>
      <trkpt lat="45.92964" lon="4.60909">
        <ele>481.76</ele>
        <time>2016-01-09T11:18:12Z</time>
      </trkpt>
      <trkpt lat="45.92965" lon="4.60908">
        <ele>481.76</ele>
        <time>2016-01-09T11:18:13Z</time>
      </trkpt>
      <trkpt lat="45.9298" lon="4.6089">
        <ele>484.64</ele>
        <time>2016-01-09T11:18:28Z</time>
      </trkpt>
      <trkpt lat="45.9298" lon="4.60888">
        <ele>485.12</ele>
        <time>2016-01-09T11:18:29Z</time>
      </trkpt>
      <trkpt lat="45.92981" lon="4.60886">
        <ele>485.6</ele>
        <time>2016-01-09T11:18:30Z</time>
      </trkpt>
      <trkpt lat="45.92988" lon="4.60869">
        <ele>488.01</ele>
        <time>2016-01-09T11:18:42Z</time>
      </trkpt>
      <trkpt lat="45.92997" lon="4.60851">
        <ele>490.89</ele>
        <time>2016-01-09T11:18:56Z</time>
      </trkpt>
      <trkpt lat="45.92997" lon="4.6085">
        <ele>491.37</ele>
        <time>2016-01-09T11:18:57Z</time>
      </trkpt>
      <trkpt lat="45.92997" lon="4.60848">
        <ele>491.85</ele>
        <time>2016-01-09T11:18:58Z</time>
      </trkpt>
      <trkpt lat="45.92998" lon="4.60847">
        <ele>491.37</ele>
        <time>2016-01-09T11:18:59Z</time>
      </trkpt>
      <trkpt lat="45.92999" lon="4.60845">
        <ele>492.33</ele>
        <time>2016-01-09T11:19:00Z</time>
      </trkpt>
      <trkpt lat="45.93" lon="4.60844">
        <ele>492.33</ele>
        <time>2016-01-09T11:19:01Z</time>
      </trkpt>
      <trkpt lat="45.93" lon="4.60843">
        <ele>491.85</ele>
        <time>2016-01-09T11:19:02Z</time>
      </trkpt>
      <trkpt lat="45.93007" lon="4.60826">
        <ele>494.74</ele>
        <time>2016-01-09T11:19:15Z</time>
      </trkpt>
      <trkpt lat="45.93015" lon="4.60804">
        <ele>497.62</ele>
        <time>2016-01-09T11:19:30Z</time>
      </trkpt>
      <trkpt lat="45.93023" lon="4.60782">
        <ele>500.98</ele>
        <time>2016-01-09T11:19:46Z</time>
      </trkpt>
      <trkpt lat="45.93033" lon="4.60762">
        <ele>503.87</ele>
        <time>2016-01-09T11:20:00Z</time>
      </trkpt>
      <trkpt lat="45.93033" lon="4.6076">
        <ele>503.39</ele>
        <time>2016-01-09T11:20:01Z</time>
      </trkpt>
      <trkpt lat="45.93032" lon="4.60759">
        <ele>503.87</ele>
        <time>2016-01-09T11:20:02Z</time>
      </trkpt>
      <trkpt lat="45.93032" lon="4.60757">
        <ele>503.87</ele>
        <time>2016-01-09T11:20:03Z</time>
      </trkpt>
      <trkpt lat="45.93033" lon="4.60755">
        <ele>503.87</ele>
        <time>2016-01-09T11:20:04Z</time>
      </trkpt>
      <trkpt lat="45.93033" lon="4.60754">
        <ele>503.87</ele>
        <time>2016-01-09T11:20:05Z</time>
      </trkpt>
      <trkpt lat="45.93034" lon="4.60752">
        <ele>505.31</ele>
        <time>2016-01-09T11:20:06Z</time>
      </trkpt>
      <trkpt lat="45.93035" lon="4.60751">
        <ele>504.83</ele>
        <time>2016-01-09T11:20:07Z</time>
      </trkpt>
      <trkpt lat="45.93036" lon="4.6075">
        <ele>504.35</ele>
        <time>2016-01-09T11:20:08Z</time>
      </trkpt>
      <trkpt lat="45.93037" lon="4.60748">
        <ele>505.31</ele>
        <time>2016-01-09T11:20:09Z</time>
      </trkpt>
      <trkpt lat="45.93037" lon="4.60747">
        <ele>505.31</ele>
        <time>2016-01-09T11:20:10Z</time>
      </trkpt>
      <trkpt lat="45.93038" lon="4.60746">
        <ele>505.31</ele>
        <time>2016-01-09T11:20:11Z</time>
      </trkpt>
      <trkpt lat="45.93045" lon="4.60725">
        <ele>507.71</ele>
        <time>2016-01-09T11:20:25Z</time>
      </trkpt>
      <trkpt lat="45.93053" lon="4.60704">
        <ele>509.16</ele>
        <time>2016-01-09T11:20:40Z</time>
      </trkpt>
      <trkpt lat="45.93055" lon="4.60698">
        <ele>509.64</ele>
        <time>2016-01-09T11:20:44Z</time>
      </trkpt>
      <trkpt lat="45.93056" lon="4.60697">
        <ele>510.12</ele>
        <time>2016-01-09T11:20:45Z</time>
      </trkpt>
      <trkpt lat="45.93056" lon="4.60695">
        <ele>510.12</ele>
        <time>2016-01-09T11:20:46Z</time>
      </trkpt>
      <trkpt lat="45.93056" lon="4.60694">
        <ele>509.64</ele>
        <time>2016-01-09T11:20:47Z</time>
      </trkpt>
      <trkpt lat="45.93057" lon="4.60692">
        <ele>510.12</ele>
        <time>2016-01-09T11:20:48Z</time>
      </trkpt>
      <trkpt lat="45.93057" lon="4.60691">
        <ele>510.12</ele>
        <time>2016-01-09T11:20:49Z</time>
      </trkpt>
      <trkpt lat="45.93058" lon="4.6069">
        <ele>509.64</ele>
        <time>2016-01-09T11:20:50Z</time>
      </trkpt>
      <trkpt lat="45.93058" lon="4.60683">
        <ele>510.6</ele>
        <time>2016-01-09T11:21:01Z</time>
      </trkpt>
      <trkpt lat="45.93058" lon="4.60683">
        <ele>510.6</ele>
        <time>2016-01-09T11:21:27Z</time>
      </trkpt>
      <trkpt lat="45.93058" lon="4.60684">
        <ele>510.6</ele>
        <time>2016-01-09T11:22:05Z</time>
      </trkpt>
      <trkpt lat="45.93058" lon="4.60684">
        <ele>511.08</ele>
        <time>2016-01-09T11:22:45Z</time>
      </trkpt>
      <trkpt lat="45.93058" lon="4.60684">
        <ele>511.08</ele>
        <time>2016-01-09T11:23:28Z</time>
      </trkpt>
      <trkpt lat="45.93058" lon="4.60684">
        <ele>510.6</ele>
        <time>2016-01-09T11:24:05Z</time>
      </trkpt>
      <trkpt lat="45.93058" lon="4.60684">
        <ele>510.6</ele>
        <time>2016-01-09T11:24:37Z</time>
      </trkpt>
      <trkpt lat="45.93058" lon="4.60684">
        <ele>510.6</ele>
        <time>2016-01-09T11:25:14Z</time>
      </trkpt>
      <trkpt lat="45.93058" lon="4.60684">
        <ele>512.04</ele>
        <time>2016-01-09T11:25:56Z</time>
      </trkpt>
      <trkpt lat="45.93058" lon="4.60684">
        <ele>511.08</ele>
        <time>2016-01-09T11:26:38Z</time>
      </trkpt>
      <trkpt lat="45.93058" lon="4.60684">
        <ele>512.04</ele>
        <time>2016-01-09T11:27:16Z</time>
      </trkpt>
      <trkpt lat="45.93059" lon="4.60684">
        <ele>511.56</ele>
        <time>2016-01-09T11:27:58Z</time>
      </trkpt>
      <trkpt lat="45.93058" lon="4.60683">
        <ele>511.56</ele>
        <time>2016-01-09T11:28:36Z</time>
      </trkpt>
      <trkpt lat="45.93059" lon="4.60683">
        <ele>512.52</ele>
        <time>2016-01-09T11:29:09Z</time>
      </trkpt>
      <trkpt lat="45.93059" lon="4.60683">
        <ele>512.04</ele>
        <time>2016-01-09T11:29:30Z</time>
      </trkpt>
      <trkpt lat="45.93059" lon="4.60683">
        <ele>511.56</ele>
        <time>2016-01-09T11:29:47Z</time>
      </trkpt>
      <trkpt lat="45.93059" lon="4.60682">
        <ele>511.56</ele>
        <time>2016-01-09T11:30:05Z</time>
      </trkpt>
      <trkpt lat="45.93061" lon="4.60679">
        <ele>512.04</ele>
        <time>2016-01-09T11:30:07Z</time>
      </trkpt>
      <trkpt lat="45.93061" lon="4.60677">
        <ele>512.52</ele>
        <time>2016-01-09T11:30:08Z</time>
      </trkpt>
      <trkpt lat="45.93062" lon="4.60676">
        <ele>513</ele>
        <time>2016-01-09T11:30:09Z</time>
      </trkpt>
      <trkpt lat="45.93077" lon="4.60637">
        <ele>512.52</ele>
        <time>2016-01-09T11:30:23Z</time>
      </trkpt>
      <trkpt lat="45.93096" lon="4.60584">
        <ele>511.56</ele>
        <time>2016-01-09T11:30:36Z</time>
      </trkpt>
      <trkpt lat="45.93111" lon="4.60546">
        <ele>514.92</ele>
        <time>2016-01-09T11:30:45Z</time>
      </trkpt>
      <trkpt lat="45.93113" lon="4.60544">
        <ele>514.92</ele>
        <time>2016-01-09T11:30:46Z</time>
      </trkpt>
      <trkpt lat="45.93115" lon="4.60544">
        <ele>515.4</ele>
        <time>2016-01-09T11:30:48Z</time>
      </trkpt>
      <trkpt lat="45.9312" lon="4.60547">
        <ele>513.96</ele>
        <time>2016-01-09T11:30:57Z</time>
      </trkpt>
      <trkpt lat="45.93121" lon="4.60548">
        <ele>514.92</ele>
        <time>2016-01-09T11:30:58Z</time>
      </trkpt>
      <trkpt lat="45.93123" lon="4.60549">
        <ele>513.96</ele>
        <time>2016-01-09T11:30:59Z</time>
      </trkpt>
      <trkpt lat="45.93125" lon="4.60549">
        <ele>514.44</ele>
        <time>2016-01-09T11:31:00Z</time>
      </trkpt>
      <trkpt lat="45.93127" lon="4.6055">
        <ele>514.44</ele>
        <time>2016-01-09T11:31:01Z</time>
      </trkpt>
      <trkpt lat="45.93157" lon="4.60556">
        <ele>511.56</ele>
        <time>2016-01-09T11:31:12Z</time>
      </trkpt>
      <trkpt lat="45.93171" lon="4.60558">
        <ele>509.16</ele>
        <time>2016-01-09T11:31:20Z</time>
      </trkpt>
      <trkpt lat="45.93174" lon="4.60559">
        <ele>508.67</ele>
        <time>2016-01-09T11:31:24Z</time>
      </trkpt>
      <trkpt lat="45.93178" lon="4.6056">
        <ele>507.71</ele>
        <time>2016-01-09T11:31:28Z</time>
      </trkpt>
      <trkpt lat="45.93196" lon="4.60571">
        <ele>504.35</ele>
        <time>2016-01-09T11:31:36Z</time>
      </trkpt>
      <trkpt lat="45.93199" lon="4.60574">
        <ele>504.83</ele>
        <time>2016-01-09T11:31:37Z</time>
      </trkpt>
      <trkpt lat="45.93206" lon="4.6058">
        <ele>502.91</ele>
        <time>2016-01-09T11:31:39Z</time>
      </trkpt>
      <trkpt lat="45.93226" lon="4.60591">
        <ele>499.54</ele>
        <time>2016-01-09T11:31:43Z</time>
      </trkpt>
      <trkpt lat="45.93236" lon="4.60596">
        <ele>497.62</ele>
        <time>2016-01-09T11:31:45Z</time>
      </trkpt>
      <trkpt lat="45.9325" lon="4.60605">
        <ele>495.7</ele>
        <time>2016-01-09T11:31:48Z</time>
      </trkpt>
      <trkpt lat="45.93261" lon="4.60616">
        <ele>492.33</ele>
        <time>2016-01-09T11:31:51Z</time>
      </trkpt>
      <trkpt lat="45.93269" lon="4.60622">
        <ele>490.89</ele>
        <time>2016-01-09T11:31:54Z</time>
      </trkpt>
      <trkpt lat="45.93276" lon="4.60619">
        <ele>489.45</ele>
        <time>2016-01-09T11:31:58Z</time>
      </trkpt>
      <trkpt lat="45.93299" lon="4.60587">
        <ele>488.97</ele>
        <time>2016-01-09T11:32:11Z</time>
      </trkpt>
      <trkpt lat="45.93325" lon="4.6057">
        <ele>487.53</ele>
        <time>2016-01-09T11:32:23Z</time>
      </trkpt>
      <trkpt lat="45.93342" lon="4.60572">
        <ele>486.56</ele>
        <time>2016-01-09T11:32:28Z</time>
      </trkpt>
      <trkpt lat="45.93346" lon="4.60573">
        <ele>485.12</ele>
        <time>2016-01-09T11:32:29Z</time>
      </trkpt>
      <trkpt lat="45.93354" lon="4.60575">
        <ele>484.64</ele>
        <time>2016-01-09T11:32:31Z</time>
      </trkpt>
      <trkpt lat="45.93376" lon="4.60582">
        <ele>481.76</ele>
        <time>2016-01-09T11:32:36Z</time>
      </trkpt>
      <trkpt lat="45.93397" lon="4.60592">
        <ele>478.39</ele>
        <time>2016-01-09T11:32:41Z</time>
      </trkpt>
      <trkpt lat="45.93401" lon="4.60593">
        <ele>478.39</ele>
        <time>2016-01-09T11:32:42Z</time>
      </trkpt>
      <trkpt lat="45.93417" lon="4.60599">
        <ele>475.03</ele>
        <time>2016-01-09T11:32:46Z</time>
      </trkpt>
      <trkpt lat="45.93421" lon="4.606">
        <ele>475.51</ele>
        <time>2016-01-09T11:32:47Z</time>
      </trkpt>
      <trkpt lat="45.93438" lon="4.60604">
        <ele>472.14</ele>
        <time>2016-01-09T11:32:51Z</time>
      </trkpt>
      <trkpt lat="45.93443" lon="4.60605">
        <ele>471.66</ele>
        <time>2016-01-09T11:32:52Z</time>
      </trkpt>
      <trkpt lat="45.93447" lon="4.60606">
        <ele>471.66</ele>
        <time>2016-01-09T11:32:53Z</time>
      </trkpt>
      <trkpt lat="45.93452" lon="4.60607">
        <ele>470.7</ele>
        <time>2016-01-09T11:32:54Z</time>
      </trkpt>
      <trkpt lat="45.93457" lon="4.60608">
        <ele>470.22</ele>
        <time>2016-01-09T11:32:55Z</time>
      </trkpt>
      <trkpt lat="45.93462" lon="4.6061">
        <ele>469.26</ele>
        <time>2016-01-09T11:32:56Z</time>
      </trkpt>
      <trkpt lat="45.93468" lon="4.60612">
        <ele>469.26</ele>
        <time>2016-01-09T11:32:57Z</time>
      </trkpt>
      <trkpt lat="45.93473" lon="4.60614">
        <ele>468.3</ele>
        <time>2016-01-09T11:32:58Z</time>
      </trkpt>
      <trkpt lat="45.93479" lon="4.60614">
        <ele>467.82</ele>
        <time>2016-01-09T11:32:59Z</time>
      </trkpt>
      <trkpt lat="45.93506" lon="4.60617">
        <ele>465.42</ele>
        <time>2016-01-09T11:33:03Z</time>
      </trkpt>
      <trkpt lat="45.93537" lon="4.60621">
        <ele>462.05</ele>
        <time>2016-01-09T11:33:08Z</time>
      </trkpt>
      <trkpt lat="45.93562" lon="4.60625">
        <ele>458.21</ele>
        <time>2016-01-09T11:33:12Z</time>
      </trkpt>
      <trkpt lat="45.93587" lon="4.6063">
        <ele>455.8</ele>
        <time>2016-01-09T11:33:17Z</time>
      </trkpt>
      <trkpt lat="45.93591" lon="4.60633">
        <ele>455.32</ele>
        <time>2016-01-09T11:33:18Z</time>
      </trkpt>
      <trkpt lat="45.93594" lon="4.60636">
        <ele>454.84</ele>
        <time>2016-01-09T11:33:19Z</time>
      </trkpt>
      <trkpt lat="45.93597" lon="4.60641">
        <ele>453.88</ele>
        <time>2016-01-09T11:33:20Z</time>
      </trkpt>
      <trkpt lat="45.936" lon="4.60646">
        <ele>452.92</ele>
        <time>2016-01-09T11:33:21Z</time>
      </trkpt>
      <trkpt lat="45.93603" lon="4.60651">
        <ele>451.96</ele>
        <time>2016-01-09T11:33:22Z</time>
      </trkpt>
      <trkpt lat="45.93605" lon="4.60655">
        <ele>451.96</ele>
        <time>2016-01-09T11:33:23Z</time>
      </trkpt>
      <trkpt lat="45.93608" lon="4.6066">
        <ele>450.03</ele>
        <time>2016-01-09T11:33:31Z</time>
      </trkpt>
      <trkpt lat="45.93608" lon="4.6066">
        <ele>450.03</ele>
        <time>2016-01-09T11:33:50Z</time>
      </trkpt>
      <trkpt lat="45.93608" lon="4.60659">
        <ele>450.03</ele>
        <time>2016-01-09T11:34:17Z</time>
      </trkpt>
      <trkpt lat="45.93608" lon="4.60659">
        <ele>450.03</ele>
        <time>2016-01-09T11:34:40Z</time>
      </trkpt>
      <trkpt lat="45.93614" lon="4.60671">
        <ele>449.07</ele>
        <time>2016-01-09T11:34:57Z</time>
      </trkpt>
      <trkpt lat="45.93626" lon="4.60692">
        <ele>445.71</ele>
        <time>2016-01-09T11:35:03Z</time>
      </trkpt>
      <trkpt lat="45.93631" lon="4.607">
        <ele>444.27</ele>
        <time>2016-01-09T11:35:12Z</time>
      </trkpt>
      <trkpt lat="45.93641" lon="4.60722">
        <ele>442.34</ele>
        <time>2016-01-09T11:35:21Z</time>
      </trkpt>
      <trkpt lat="45.93658" lon="4.60753">
        <ele>438.5</ele>
        <time>2016-01-09T11:35:25Z</time>
      </trkpt>
      <trkpt lat="45.93674" lon="4.60785">
        <ele>433.69</ele>
        <time>2016-01-09T11:35:28Z</time>
      </trkpt>
      <trkpt lat="45.93686" lon="4.60807">
        <ele>429.85</ele>
        <time>2016-01-09T11:35:30Z</time>
      </trkpt>
      <trkpt lat="45.93701" lon="4.60837">
        <ele>426.48</ele>
        <time>2016-01-09T11:35:33Z</time>
      </trkpt>
      <trkpt lat="45.93705" lon="4.60844">
        <ele>425.52</ele>
        <time>2016-01-09T11:35:34Z</time>
      </trkpt>
      <trkpt lat="45.93709" lon="4.6085">
        <ele>425.04</ele>
        <time>2016-01-09T11:35:35Z</time>
      </trkpt>
      <trkpt lat="45.93713" lon="4.60854">
        <ele>424.08</ele>
        <time>2016-01-09T11:35:36Z</time>
      </trkpt>
      <trkpt lat="45.93718" lon="4.60856">
        <ele>423.6</ele>
        <time>2016-01-09T11:35:37Z</time>
      </trkpt>
      <trkpt lat="45.93723" lon="4.60856">
        <ele>423.12</ele>
        <time>2016-01-09T11:35:38Z</time>
      </trkpt>
      <trkpt lat="45.93728" lon="4.60854">
        <ele>423.12</ele>
        <time>2016-01-09T11:35:39Z</time>
      </trkpt>
      <trkpt lat="45.93733" lon="4.60851">
        <ele>423.12</ele>
        <time>2016-01-09T11:35:40Z</time>
      </trkpt>
      <trkpt lat="45.93738" lon="4.60848">
        <ele>423.12</ele>
        <time>2016-01-09T11:35:41Z</time>
      </trkpt>
      <trkpt lat="45.93743" lon="4.60847">
        <ele>422.64</ele>
        <time>2016-01-09T11:35:42Z</time>
      </trkpt>
      <trkpt lat="45.93749" lon="4.60849">
        <ele>422.64</ele>
        <time>2016-01-09T11:35:43Z</time>
      </trkpt>
      <trkpt lat="45.93753" lon="4.60854">
        <ele>422.16</ele>
        <time>2016-01-09T11:35:44Z</time>
      </trkpt>
      <trkpt lat="45.93755" lon="4.60858">
        <ele>422.16</ele>
        <time>2016-01-09T11:35:45Z</time>
      </trkpt>
      <trkpt lat="45.93757" lon="4.60861">
        <ele>421.68</ele>
        <time>2016-01-09T11:35:46Z</time>
      </trkpt>
      <trkpt lat="45.9376" lon="4.60865">
        <ele>421.68</ele>
        <time>2016-01-09T11:35:48Z</time>
      </trkpt>
      <trkpt lat="45.93762" lon="4.60866">
        <ele>421.68</ele>
        <time>2016-01-09T11:35:49Z</time>
      </trkpt>
      <trkpt lat="45.93763" lon="4.60867">
        <ele>421.68</ele>
        <time>2016-01-09T11:35:50Z</time>
      </trkpt>
      <trkpt lat="45.93765" lon="4.60867">
        <ele>421.68</ele>
        <time>2016-01-09T11:35:51Z</time>
      </trkpt>
      <trkpt lat="45.93768" lon="4.60866">
        <ele>421.19</ele>
        <time>2016-01-09T11:35:52Z</time>
      </trkpt>
      <trkpt lat="45.93769" lon="4.60864">
        <ele>421.68</ele>
        <time>2016-01-09T11:35:53Z</time>
      </trkpt>
      <trkpt lat="45.93771" lon="4.60862">
        <ele>422.16</ele>
        <time>2016-01-09T11:35:54Z</time>
      </trkpt>
      <trkpt lat="45.93772" lon="4.6086">
        <ele>421.68</ele>
        <time>2016-01-09T11:35:55Z</time>
      </trkpt>
      <trkpt lat="45.93774" lon="4.60858">
        <ele>422.16</ele>
        <time>2016-01-09T11:35:56Z</time>
      </trkpt>
      <trkpt lat="45.93775" lon="4.60857">
        <ele>422.16</ele>
        <time>2016-01-09T11:35:57Z</time>
      </trkpt>
      <trkpt lat="45.93777" lon="4.60855">
        <ele>422.64</ele>
        <time>2016-01-09T11:35:58Z</time>
      </trkpt>
      <trkpt lat="45.93778" lon="4.60852">
        <ele>422.64</ele>
        <time>2016-01-09T11:35:59Z</time>
      </trkpt>
      <trkpt lat="45.9378" lon="4.60851">
        <ele>423.12</ele>
        <time>2016-01-09T11:36:00Z</time>
      </trkpt>
      <trkpt lat="45.93781" lon="4.60849">
        <ele>423.12</ele>
        <time>2016-01-09T11:36:01Z</time>
      </trkpt>
      <trkpt lat="45.93792" lon="4.60834">
        <ele>424.08</ele>
        <time>2016-01-09T11:36:08Z</time>
      </trkpt>
      <trkpt lat="45.93817" lon="4.60811">
        <ele>424.08</ele>
        <time>2016-01-09T11:36:23Z</time>
      </trkpt>
      <trkpt lat="45.93852" lon="4.60773">
        <ele>423.6</ele>
        <time>2016-01-09T11:36:37Z</time>
      </trkpt>
      <trkpt lat="45.93886" lon="4.60731">
        <ele>423.12</ele>
        <time>2016-01-09T11:36:50Z</time>
      </trkpt>
      <trkpt lat="45.93896" lon="4.60722">
        <ele>423.12</ele>
        <time>2016-01-09T11:36:55Z</time>
      </trkpt>
      <trkpt lat="45.93897" lon="4.60719">
        <ele>423.12</ele>
        <time>2016-01-09T11:36:56Z</time>
      </trkpt>
      <trkpt lat="45.93899" lon="4.60717">
        <ele>423.6</ele>
        <time>2016-01-09T11:36:57Z</time>
      </trkpt>
      <trkpt lat="45.939" lon="4.60715">
        <ele>423.6</ele>
        <time>2016-01-09T11:36:58Z</time>
      </trkpt>
      <trkpt lat="45.93902" lon="4.60713">
        <ele>423.6</ele>
        <time>2016-01-09T11:36:59Z</time>
      </trkpt>
      <trkpt lat="45.93904" lon="4.60711">
        <ele>423.6</ele>
        <time>2016-01-09T11:37:00Z</time>
      </trkpt>
      <trkpt lat="45.93928" lon="4.60683">
        <ele>425.52</ele>
        <time>2016-01-09T11:37:14Z</time>
      </trkpt>
      <trkpt lat="45.93954" lon="4.60664">
        <ele>427.92</ele>
        <time>2016-01-09T11:37:28Z</time>
      </trkpt>
      <trkpt lat="45.93986" lon="4.60655">
        <ele>428.89</ele>
        <time>2016-01-09T11:37:42Z</time>
      </trkpt>
      <trkpt lat="45.94011" lon="4.60653">
        <ele>428.4</ele>
        <time>2016-01-09T11:37:53Z</time>
      </trkpt>
      <trkpt lat="45.94013" lon="4.60656">
        <ele>428.4</ele>
        <time>2016-01-09T11:37:54Z</time>
      </trkpt>
      <trkpt lat="45.94019" lon="4.60673">
        <ele>427.92</ele>
        <time>2016-01-09T11:37:58Z</time>
      </trkpt>
      <trkpt lat="45.94" lon="4.60722">
        <ele>427.92</ele>
        <time>2016-01-09T11:38:10Z</time>
      </trkpt>
      <trkpt lat="45.93975" lon="4.60768">
        <ele>428.4</ele>
        <time>2016-01-09T11:38:24Z</time>
      </trkpt>
      <trkpt lat="45.93964" lon="4.60805">
        <ele>430.33</ele>
        <time>2016-01-09T11:38:38Z</time>
      </trkpt>
      <trkpt lat="45.9396" lon="4.60834">
        <ele>433.21</ele>
        <time>2016-01-09T11:38:53Z</time>
      </trkpt>
      <trkpt lat="45.93958" lon="4.60845">
        <ele>433.69</ele>
        <time>2016-01-09T11:38:59Z</time>
      </trkpt>
      <trkpt lat="45.93959" lon="4.60847">
        <ele>434.17</ele>
        <time>2016-01-09T11:39:00Z</time>
      </trkpt>
      <trkpt lat="45.93959" lon="4.60849">
        <ele>434.65</ele>
        <time>2016-01-09T11:39:01Z</time>
      </trkpt>
      <trkpt lat="45.93958" lon="4.60851">
        <ele>434.17</ele>
        <time>2016-01-09T11:39:02Z</time>
      </trkpt>
      <trkpt lat="45.93958" lon="4.60853">
        <ele>434.65</ele>
        <time>2016-01-09T11:39:03Z</time>
      </trkpt>
      <trkpt lat="45.93958" lon="4.60854">
        <ele>435.13</ele>
        <time>2016-01-09T11:39:04Z</time>
      </trkpt>
      <trkpt lat="45.93956" lon="4.60885">
        <ele>436.58</ele>
        <time>2016-01-09T11:39:21Z</time>
      </trkpt>
      <trkpt lat="45.93954" lon="4.60912">
        <ele>439.94</ele>
        <time>2016-01-09T11:39:36Z</time>
      </trkpt>
      <trkpt lat="45.93953" lon="4.60915">
        <ele>439.94</ele>
        <time>2016-01-09T11:39:47Z</time>
      </trkpt>
      <trkpt lat="45.93952" lon="4.60924">
        <ele>441.38</ele>
        <time>2016-01-09T11:40:05Z</time>
      </trkpt>
      <trkpt lat="45.93952" lon="4.60931">
        <ele>442.34</ele>
        <time>2016-01-09T11:40:13Z</time>
      </trkpt>
      <trkpt lat="45.93951" lon="4.60944">
        <ele>443.79</ele>
        <time>2016-01-09T11:40:26Z</time>
      </trkpt>
      <trkpt lat="45.9395" lon="4.60954">
        <ele>445.71</ele>
        <time>2016-01-09T11:40:38Z</time>
      </trkpt>
      <trkpt lat="45.93945" lon="4.60968">
        <ele>446.67</ele>
        <time>2016-01-09T11:40:52Z</time>
      </trkpt>
      <trkpt lat="45.93946" lon="4.60971">
        <ele>446.67</ele>
        <time>2016-01-09T11:40:54Z</time>
      </trkpt>
      <trkpt lat="45.93945" lon="4.60988">
        <ele>448.11</ele>
        <time>2016-01-09T11:41:08Z</time>
      </trkpt>
      <trkpt lat="45.93944" lon="4.61005">
        <ele>450.52</ele>
        <time>2016-01-09T11:41:23Z</time>
      </trkpt>
      <trkpt lat="45.93942" lon="4.61018">
        <ele>451.48</ele>
        <time>2016-01-09T11:41:36Z</time>
      </trkpt>
      <trkpt lat="45.9394" lon="4.61028">
        <ele>452.92</ele>
        <time>2016-01-09T11:41:42Z</time>
      </trkpt>
      <trkpt lat="45.9394" lon="4.6103">
        <ele>452.92</ele>
        <time>2016-01-09T11:41:43Z</time>
      </trkpt>
      <trkpt lat="45.93939" lon="4.61032">
        <ele>452.92</ele>
        <time>2016-01-09T11:41:44Z</time>
      </trkpt>
      <trkpt lat="45.93939" lon="4.61034">
        <ele>452.44</ele>
        <time>2016-01-09T11:41:45Z</time>
      </trkpt>
      <trkpt lat="45.93938" lon="4.61036">
        <ele>452.92</ele>
        <time>2016-01-09T11:41:46Z</time>
      </trkpt>
      <trkpt lat="45.93938" lon="4.61038">
        <ele>452.92</ele>
        <time>2016-01-09T11:41:47Z</time>
      </trkpt>
      <trkpt lat="45.93937" lon="4.6104">
        <ele>452.92</ele>
        <time>2016-01-09T11:41:48Z</time>
      </trkpt>
      <trkpt lat="45.93937" lon="4.61042">
        <ele>452.92</ele>
        <time>2016-01-09T11:41:49Z</time>
      </trkpt>
      <trkpt lat="45.93931" lon="4.6108">
        <ele>454.36</ele>
        <time>2016-01-09T11:42:06Z</time>
      </trkpt>
      <trkpt lat="45.9392" lon="4.61115">
        <ele>455.32</ele>
        <time>2016-01-09T11:42:21Z</time>
      </trkpt>
      <trkpt lat="45.93917" lon="4.61154">
        <ele>457.24</ele>
        <time>2016-01-09T11:42:35Z</time>
      </trkpt>
      <trkpt lat="45.93918" lon="4.61164">
        <ele>457.72</ele>
        <time>2016-01-09T11:42:39Z</time>
      </trkpt>
      <trkpt lat="45.93918" lon="4.61166">
        <ele>457.72</ele>
        <time>2016-01-09T11:42:40Z</time>
      </trkpt>
      <trkpt lat="45.93921" lon="4.61181">
        <ele>458.21</ele>
        <time>2016-01-09T11:42:46Z</time>
      </trkpt>
      <trkpt lat="45.93922" lon="4.61183">
        <ele>458.69</ele>
        <time>2016-01-09T11:42:47Z</time>
      </trkpt>
      <trkpt lat="45.93924" lon="4.61184">
        <ele>458.21</ele>
        <time>2016-01-09T11:42:48Z</time>
      </trkpt>
      <trkpt lat="45.93925" lon="4.61186">
        <ele>458.21</ele>
        <time>2016-01-09T11:42:49Z</time>
      </trkpt>
      <trkpt lat="45.93926" lon="4.61187">
        <ele>458.69</ele>
        <time>2016-01-09T11:42:50Z</time>
      </trkpt>
      <trkpt lat="45.93928" lon="4.61189">
        <ele>458.69</ele>
        <time>2016-01-09T11:42:51Z</time>
      </trkpt>
      <trkpt lat="45.93935" lon="4.61198">
        <ele>459.65</ele>
        <time>2016-01-09T11:42:57Z</time>
      </trkpt>
      <trkpt lat="45.93957" lon="4.61228">
        <ele>459.65</ele>
        <time>2016-01-09T11:43:10Z</time>
      </trkpt>
      <trkpt lat="45.93972" lon="4.61279">
        <ele>459.65</ele>
        <time>2016-01-09T11:43:22Z</time>
      </trkpt>
      <trkpt lat="45.93984" lon="4.61338">
        <ele>459.65</ele>
        <time>2016-01-09T11:43:36Z</time>
      </trkpt>
      <trkpt lat="45.93992" lon="4.61388">
        <ele>461.09</ele>
        <time>2016-01-09T11:43:50Z</time>
      </trkpt>
      <trkpt lat="45.93992" lon="4.61395">
        <ele>460.61</ele>
        <time>2016-01-09T11:43:52Z</time>
      </trkpt>
      <trkpt lat="45.93992" lon="4.61398">
        <ele>461.09</ele>
        <time>2016-01-09T11:43:53Z</time>
      </trkpt>
      <trkpt lat="45.93992" lon="4.614">
        <ele>461.09</ele>
        <time>2016-01-09T11:43:54Z</time>
      </trkpt>
      <trkpt lat="45.93991" lon="4.61402">
        <ele>461.09</ele>
        <time>2016-01-09T11:43:55Z</time>
      </trkpt>
      <trkpt lat="45.93991" lon="4.61403">
        <ele>460.13</ele>
        <time>2016-01-09T11:44:08Z</time>
      </trkpt>
      <trkpt lat="45.93992" lon="4.61405">
        <ele>460.61</ele>
        <time>2016-01-09T11:44:09Z</time>
      </trkpt>
      <trkpt lat="45.93992" lon="4.61408">
        <ele>460.61</ele>
        <time>2016-01-09T11:44:10Z</time>
      </trkpt>
      <trkpt lat="45.93991" lon="4.61412">
        <ele>460.61</ele>
        <time>2016-01-09T11:44:11Z</time>
      </trkpt>
      <trkpt lat="45.9399" lon="4.61415">
        <ele>460.13</ele>
        <time>2016-01-09T11:44:12Z</time>
      </trkpt>
      <trkpt lat="45.93989" lon="4.61419">
        <ele>460.61</ele>
        <time>2016-01-09T11:44:13Z</time>
      </trkpt>
      <trkpt lat="45.93987" lon="4.61423">
        <ele>460.13</ele>
        <time>2016-01-09T11:44:14Z</time>
      </trkpt>
      <trkpt lat="45.93985" lon="4.61428">
        <ele>459.65</ele>
        <time>2016-01-09T11:44:15Z</time>
      </trkpt>
      <trkpt lat="45.93979" lon="4.61444">
        <ele>459.17</ele>
        <time>2016-01-09T11:44:18Z</time>
      </trkpt>
      <trkpt lat="45.93977" lon="4.6145">
        <ele>459.17</ele>
        <time>2016-01-09T11:44:19Z</time>
      </trkpt>
      <trkpt lat="45.93978" lon="4.61455">
        <ele>458.69</ele>
        <time>2016-01-09T11:44:20Z</time>
      </trkpt>
      <trkpt lat="45.9398" lon="4.6146">
        <ele>459.17</ele>
        <time>2016-01-09T11:44:21Z</time>
      </trkpt>
      <trkpt lat="45.93982" lon="4.61464">
        <ele>459.17</ele>
        <time>2016-01-09T11:44:22Z</time>
      </trkpt>
      <trkpt lat="45.93984" lon="4.6147">
        <ele>459.17</ele>
        <time>2016-01-09T11:44:23Z</time>
      </trkpt>
      <trkpt lat="45.93985" lon="4.61475">
        <ele>459.65</ele>
        <time>2016-01-09T11:44:24Z</time>
      </trkpt>
      <trkpt lat="45.93985" lon="4.61481">
        <ele>459.17</ele>
        <time>2016-01-09T11:44:25Z</time>
      </trkpt>
      <trkpt lat="45.93987" lon="4.61498">
        <ele>459.17</ele>
        <time>2016-01-09T11:44:28Z</time>
      </trkpt>
      <trkpt lat="45.9399" lon="4.61561">
        <ele>459.65</ele>
        <time>2016-01-09T11:44:41Z</time>
      </trkpt>
      <trkpt lat="45.93983" lon="4.616">
        <ele>459.65</ele>
        <time>2016-01-09T11:44:52Z</time>
      </trkpt>
      <trkpt lat="45.93981" lon="4.61602">
        <ele>460.13</ele>
        <time>2016-01-09T11:44:53Z</time>
      </trkpt>
      <trkpt lat="45.9398" lon="4.61603">
        <ele>459.65</ele>
        <time>2016-01-09T11:44:54Z</time>
      </trkpt>
      <trkpt lat="45.93978" lon="4.61606">
        <ele>459.65</ele>
        <time>2016-01-09T11:44:55Z</time>
      </trkpt>
      <trkpt lat="45.93977" lon="4.61608">
        <ele>460.13</ele>
        <time>2016-01-09T11:44:56Z</time>
      </trkpt>
      <trkpt lat="45.93976" lon="4.6161">
        <ele>459.65</ele>
        <time>2016-01-09T11:44:57Z</time>
      </trkpt>
      <trkpt lat="45.93975" lon="4.61613">
        <ele>459.65</ele>
        <time>2016-01-09T11:44:58Z</time>
      </trkpt>
      <trkpt lat="45.93975" lon="4.61615">
        <ele>460.13</ele>
        <time>2016-01-09T11:44:59Z</time>
      </trkpt>
      <trkpt lat="45.93976" lon="4.61642">
        <ele>460.61</ele>
        <time>2016-01-09T11:45:10Z</time>
      </trkpt>
      <trkpt lat="45.93992" lon="4.61652">
        <ele>463.01</ele>
        <time>2016-01-09T11:45:20Z</time>
      </trkpt>
      <trkpt lat="45.93995" lon="4.61654">
        <ele>463.49</ele>
        <time>2016-01-09T11:45:22Z</time>
      </trkpt>
      <trkpt lat="45.93997" lon="4.61654">
        <ele>463.01</ele>
        <time>2016-01-09T11:45:23Z</time>
      </trkpt>
      <trkpt lat="45.93998" lon="4.61655">
        <ele>463.49</ele>
        <time>2016-01-09T11:45:24Z</time>
      </trkpt>
      <trkpt lat="45.94" lon="4.61655">
        <ele>463.97</ele>
        <time>2016-01-09T11:45:25Z</time>
      </trkpt>
      <trkpt lat="45.94004" lon="4.61656">
        <ele>464.45</ele>
        <time>2016-01-09T11:45:30Z</time>
      </trkpt>
      <trkpt lat="45.94018" lon="4.61654">
        <ele>465.42</ele>
        <time>2016-01-09T11:45:43Z</time>
      </trkpt>
      <trkpt lat="45.94025" lon="4.61647">
        <ele>465.9</ele>
        <time>2016-01-09T11:45:48Z</time>
      </trkpt>
      <trkpt lat="45.94027" lon="4.61648">
        <ele>466.38</ele>
        <time>2016-01-09T11:45:49Z</time>
      </trkpt>
      <trkpt lat="45.94029" lon="4.61648">
        <ele>466.86</ele>
        <time>2016-01-09T11:45:50Z</time>
      </trkpt>
      <trkpt lat="45.94031" lon="4.61649">
        <ele>466.86</ele>
        <time>2016-01-09T11:45:51Z</time>
      </trkpt>
      <trkpt lat="45.94031" lon="4.61651">
        <ele>466.86</ele>
        <time>2016-01-09T11:45:52Z</time>
      </trkpt>
      <trkpt lat="45.94031" lon="4.61653">
        <ele>467.82</ele>
        <time>2016-01-09T11:45:53Z</time>
      </trkpt>
      <trkpt lat="45.94025" lon="4.61678">
        <ele>469.26</ele>
        <time>2016-01-09T11:46:05Z</time>
      </trkpt>
      <trkpt lat="45.94024" lon="4.61681">
        <ele>469.74</ele>
        <time>2016-01-09T11:46:06Z</time>
      </trkpt>
      <trkpt lat="45.94022" lon="4.61684">
        <ele>468.78</ele>
        <time>2016-01-09T11:46:07Z</time>
      </trkpt>
      <trkpt lat="45.94021" lon="4.61686">
        <ele>469.26</ele>
        <time>2016-01-09T11:46:08Z</time>
      </trkpt>
      <trkpt lat="45.94021" lon="4.61689">
        <ele>468.78</ele>
        <time>2016-01-09T11:46:09Z</time>
      </trkpt>
      <trkpt lat="45.9402" lon="4.61692">
        <ele>469.26</ele>
        <time>2016-01-09T11:46:10Z</time>
      </trkpt>
      <trkpt lat="45.94019" lon="4.61694">
        <ele>468.78</ele>
        <time>2016-01-09T11:46:11Z</time>
      </trkpt>
      <trkpt lat="45.94019" lon="4.617">
        <ele>468.78</ele>
        <time>2016-01-09T11:46:14Z</time>
      </trkpt>
      <trkpt lat="45.9402" lon="4.61702">
        <ele>468.78</ele>
        <time>2016-01-09T11:46:15Z</time>
      </trkpt>
      <trkpt lat="45.94021" lon="4.61699">
        <ele>469.74</ele>
        <time>2016-01-09T11:46:20Z</time>
      </trkpt>
      <trkpt lat="45.94022" lon="4.61697">
        <ele>470.22</ele>
        <time>2016-01-09T11:46:22Z</time>
      </trkpt>
      <trkpt lat="45.94026" lon="4.61696">
        <ele>470.7</ele>
        <time>2016-01-09T11:46:25Z</time>
      </trkpt>
      <trkpt lat="45.94029" lon="4.61696">
        <ele>471.66</ele>
        <time>2016-01-09T11:46:27Z</time>
      </trkpt>
      <trkpt lat="45.94035" lon="4.61694">
        <ele>472.14</ele>
        <time>2016-01-09T11:46:33Z</time>
      </trkpt>
      <trkpt lat="45.94036" lon="4.61694">
        <ele>471.66</ele>
        <time>2016-01-09T11:46:48Z</time>
      </trkpt>
      <trkpt lat="45.94036" lon="4.61694">
        <ele>472.63</ele>
        <time>2016-01-09T11:47:05Z</time>
      </trkpt>
      <trkpt lat="45.94036" lon="4.61694">
        <ele>471.66</ele>
        <time>2016-01-09T11:47:29Z</time>
      </trkpt>
      <trkpt lat="45.94037" lon="4.61694">
        <ele>471.66</ele>
        <time>2016-01-09T11:47:45Z</time>
      </trkpt>
      <trkpt lat="45.94037" lon="4.61694">
        <ele>472.14</ele>
        <time>2016-01-09T11:48:08Z</time>
      </trkpt>
      <trkpt lat="45.94036" lon="4.61697">
        <ele>471.66</ele>
        <time>2016-01-09T11:48:24Z</time>
      </trkpt>
      <trkpt lat="45.94035" lon="4.61698">
        <ele>471.18</ele>
        <time>2016-01-09T11:48:25Z</time>
      </trkpt>
      <trkpt lat="45.94034" lon="4.61698">
        <ele>471.18</ele>
        <time>2016-01-09T11:48:26Z</time>
      </trkpt>
      <trkpt lat="45.94032" lon="4.61699">
        <ele>471.18</ele>
        <time>2016-01-09T11:48:27Z</time>
      </trkpt>
      <trkpt lat="45.94017" lon="4.61705">
        <ele>467.82</ele>
        <time>2016-01-09T11:48:36Z</time>
      </trkpt>
      <trkpt lat="45.94016" lon="4.61709">
        <ele>467.34</ele>
        <time>2016-01-09T11:48:37Z</time>
      </trkpt>
      <trkpt lat="45.94017" lon="4.61713">
        <ele>468.3</ele>
        <time>2016-01-09T11:48:38Z</time>
      </trkpt>
      <trkpt lat="45.94018" lon="4.61718">
        <ele>467.34</ele>
        <time>2016-01-09T11:48:39Z</time>
      </trkpt>
      <trkpt lat="45.94019" lon="4.61722">
        <ele>466.86</ele>
        <time>2016-01-09T11:48:40Z</time>
      </trkpt>
      <trkpt lat="45.94021" lon="4.61725">
        <ele>467.82</ele>
        <time>2016-01-09T11:48:41Z</time>
      </trkpt>
      <trkpt lat="45.94024" lon="4.61728">
        <ele>467.82</ele>
        <time>2016-01-09T11:48:42Z</time>
      </trkpt>
      <trkpt lat="45.94026" lon="4.61731">
        <ele>468.3</ele>
        <time>2016-01-09T11:48:43Z</time>
      </trkpt>
      <trkpt lat="45.94043" lon="4.61761">
        <ele>469.26</ele>
        <time>2016-01-09T11:48:55Z</time>
      </trkpt>
      <trkpt lat="45.94045" lon="4.61767">
        <ele>468.78</ele>
        <time>2016-01-09T11:49:05Z</time>
      </trkpt>
      <trkpt lat="45.94045" lon="4.61767">
        <ele>468.78</ele>
        <time>2016-01-09T11:49:37Z</time>
      </trkpt>
      <trkpt lat="45.94045" lon="4.61767">
        <ele>469.74</ele>
        <time>2016-01-09T11:50:10Z</time>
      </trkpt>
      <trkpt lat="45.94045" lon="4.61767">
        <ele>469.26</ele>
        <time>2016-01-09T11:50:44Z</time>
      </trkpt>
      <trkpt lat="45.94045" lon="4.61767">
        <ele>468.78</ele>
        <time>2016-01-09T11:51:14Z</time>
      </trkpt>
      <trkpt lat="45.94051" lon="4.61764">
        <ele>469.26</ele>
        <time>2016-01-09T11:51:33Z</time>
      </trkpt>
      <trkpt lat="45.94052" lon="4.61763">
        <ele>469.26</ele>
        <time>2016-01-09T11:51:48Z</time>
      </trkpt>
      <trkpt lat="45.94052" lon="4.61763">
        <ele>468.78</ele>
        <time>2016-01-09T11:52:05Z</time>
      </trkpt>
      <trkpt lat="45.94051" lon="4.61763">
        <ele>469.26</ele>
        <time>2016-01-09T11:52:06Z</time>
      </trkpt>
      <trkpt lat="45.94044" lon="4.61756">
        <ele>469.74</ele>
        <time>2016-01-09T11:52:11Z</time>
      </trkpt>
      <trkpt lat="45.9404" lon="4.61751">
        <ele>468.78</ele>
        <time>2016-01-09T11:52:13Z</time>
      </trkpt>
      <trkpt lat="45.94037" lon="4.61748">
        <ele>468.3</ele>
        <time>2016-01-09T11:52:14Z</time>
      </trkpt>
      <trkpt lat="45.94035" lon="4.61745">
        <ele>468.78</ele>
        <time>2016-01-09T11:52:15Z</time>
      </trkpt>
      <trkpt lat="45.94019" lon="4.61723">
        <ele>467.82</ele>
        <time>2016-01-09T11:52:20Z</time>
      </trkpt>
      <trkpt lat="45.94016" lon="4.61718">
        <ele>467.34</ele>
        <time>2016-01-09T11:52:21Z</time>
      </trkpt>
      <trkpt lat="45.93999" lon="4.6167">
        <ele>464.45</ele>
        <time>2016-01-09T11:52:30Z</time>
      </trkpt>
      <trkpt lat="45.93995" lon="4.61665">
        <ele>463.49</ele>
        <time>2016-01-09T11:52:31Z</time>
      </trkpt>
      <trkpt lat="45.93991" lon="4.6166">
        <ele>463.49</ele>
        <time>2016-01-09T11:52:32Z</time>
      </trkpt>
      <trkpt lat="45.93982" lon="4.61652">
        <ele>462.05</ele>
        <time>2016-01-09T11:52:34Z</time>
      </trkpt>
      <trkpt lat="45.93977" lon="4.61649">
        <ele>461.57</ele>
        <time>2016-01-09T11:52:35Z</time>
      </trkpt>
      <trkpt lat="45.93973" lon="4.61647">
        <ele>461.09</ele>
        <time>2016-01-09T11:52:36Z</time>
      </trkpt>
      <trkpt lat="45.9397" lon="4.61644">
        <ele>460.13</ele>
        <time>2016-01-09T11:52:37Z</time>
      </trkpt>
      <trkpt lat="45.93967" lon="4.6164">
        <ele>460.13</ele>
        <time>2016-01-09T11:52:38Z</time>
      </trkpt>
      <trkpt lat="45.93965" lon="4.61635">
        <ele>459.65</ele>
        <time>2016-01-09T11:52:39Z</time>
      </trkpt>
      <trkpt lat="45.93963" lon="4.61631">
        <ele>459.17</ele>
        <time>2016-01-09T11:52:40Z</time>
      </trkpt>
      <trkpt lat="45.9396" lon="4.61627">
        <ele>458.69</ele>
        <time>2016-01-09T11:52:41Z</time>
      </trkpt>
      <trkpt lat="45.93956" lon="4.61622">
        <ele>459.17</ele>
        <time>2016-01-09T11:52:42Z</time>
      </trkpt>
      <trkpt lat="45.93951" lon="4.61618">
        <ele>458.21</ele>
        <time>2016-01-09T11:52:43Z</time>
      </trkpt>
      <trkpt lat="45.93937" lon="4.61606">
        <ele>455.8</ele>
        <time>2016-01-09T11:52:46Z</time>
      </trkpt>
      <trkpt lat="45.93923" lon="4.61592">
        <ele>452.92</ele>
        <time>2016-01-09T11:52:53Z</time>
      </trkpt>
      <trkpt lat="45.93908" lon="4.61598">
        <ele>451.96</ele>
        <time>2016-01-09T11:52:58Z</time>
      </trkpt>
      <trkpt lat="45.93882" lon="4.61613">
        <ele>448.59</ele>
        <time>2016-01-09T11:53:03Z</time>
      </trkpt>
      <trkpt lat="45.93878" lon="4.61617">
        <ele>447.63</ele>
        <time>2016-01-09T11:53:04Z</time>
      </trkpt>
      <trkpt lat="45.93874" lon="4.61621">
        <ele>447.15</ele>
        <time>2016-01-09T11:53:05Z</time>
      </trkpt>
      <trkpt lat="45.93864" lon="4.61627">
        <ele>445.23</ele>
        <time>2016-01-09T11:53:08Z</time>
      </trkpt>
      <trkpt lat="45.93857" lon="4.61626">
        <ele>443.31</ele>
        <time>2016-01-09T11:53:10Z</time>
      </trkpt>
      <trkpt lat="45.93841" lon="4.61622">
        <ele>441.38</ele>
        <time>2016-01-09T11:53:15Z</time>
      </trkpt>
      <trkpt lat="45.93839" lon="4.61623">
        <ele>441.38</ele>
        <time>2016-01-09T11:53:16Z</time>
      </trkpt>
      <trkpt lat="45.93817" lon="4.6163">
        <ele>438.02</ele>
        <time>2016-01-09T11:53:26Z</time>
      </trkpt>
      <trkpt lat="45.93816" lon="4.6163">
        <ele>437.54</ele>
        <time>2016-01-09T11:53:27Z</time>
      </trkpt>
      <trkpt lat="45.93814" lon="4.6163">
        <ele>438.02</ele>
        <time>2016-01-09T11:53:28Z</time>
      </trkpt>
      <trkpt lat="45.93812" lon="4.6163">
        <ele>437.06</ele>
        <time>2016-01-09T11:53:29Z</time>
      </trkpt>
      <trkpt lat="45.93809" lon="4.6163">
        <ele>437.54</ele>
        <time>2016-01-09T11:53:30Z</time>
      </trkpt>
      <trkpt lat="45.93806" lon="4.6163">
        <ele>436.58</ele>
        <time>2016-01-09T11:53:31Z</time>
      </trkpt>
      <trkpt lat="45.938" lon="4.61631">
        <ele>436.1</ele>
        <time>2016-01-09T11:53:32Z</time>
      </trkpt>
      <trkpt lat="45.93795" lon="4.61632">
        <ele>435.61</ele>
        <time>2016-01-09T11:53:33Z</time>
      </trkpt>
      <trkpt lat="45.93767" lon="4.61636">
        <ele>432.25</ele>
        <time>2016-01-09T11:53:38Z</time>
      </trkpt>
      <trkpt lat="45.93743" lon="4.61637">
        <ele>428.89</ele>
        <time>2016-01-09T11:53:42Z</time>
      </trkpt>
      <trkpt lat="45.93737" lon="4.61637">
        <ele>428.4</ele>
        <time>2016-01-09T11:53:43Z</time>
      </trkpt>
      <trkpt lat="45.93718" lon="4.61635">
        <ele>426</ele>
        <time>2016-01-09T11:53:46Z</time>
      </trkpt>
      <trkpt lat="45.93701" lon="4.61635">
        <ele>424.08</ele>
        <time>2016-01-09T11:53:49Z</time>
      </trkpt>
      <trkpt lat="45.93691" lon="4.61636">
        <ele>423.6</ele>
        <time>2016-01-09T11:53:51Z</time>
      </trkpt>
      <trkpt lat="45.93681" lon="4.61639">
        <ele>422.16</ele>
        <time>2016-01-09T11:53:53Z</time>
      </trkpt>
      <trkpt lat="45.93658" lon="4.61645">
        <ele>418.79</ele>
        <time>2016-01-09T11:53:57Z</time>
      </trkpt>
      <trkpt lat="45.93652" lon="4.61646">
        <ele>418.79</ele>
        <time>2016-01-09T11:53:58Z</time>
      </trkpt>
      <trkpt lat="45.93647" lon="4.61645">
        <ele>418.79</ele>
        <time>2016-01-09T11:53:59Z</time>
      </trkpt>
      <trkpt lat="45.93642" lon="4.61643">
        <ele>417.35</ele>
        <time>2016-01-09T11:54:00Z</time>
      </trkpt>
      <trkpt lat="45.93636" lon="4.61639">
        <ele>417.35</ele>
        <time>2016-01-09T11:54:01Z</time>
      </trkpt>
      <trkpt lat="45.9363" lon="4.61635">
        <ele>416.39</ele>
        <time>2016-01-09T11:54:02Z</time>
      </trkpt>
      <trkpt lat="45.93624" lon="4.61632">
        <ele>415.43</ele>
        <time>2016-01-09T11:54:03Z</time>
      </trkpt>
      <trkpt lat="45.93617" lon="4.6163">
        <ele>414.47</ele>
        <time>2016-01-09T11:54:04Z</time>
      </trkpt>
      <trkpt lat="45.93609" lon="4.61629">
        <ele>413.5</ele>
        <time>2016-01-09T11:54:05Z</time>
      </trkpt>
      <trkpt lat="45.93588" lon="4.61628">
        <ele>411.58</ele>
        <time>2016-01-09T11:54:08Z</time>
      </trkpt>
      <trkpt lat="45.93575" lon="4.61628">
        <ele>409.18</ele>
        <time>2016-01-09T11:54:10Z</time>
      </trkpt>
      <trkpt lat="45.93571" lon="4.61626">
        <ele>409.18</ele>
        <time>2016-01-09T11:54:11Z</time>
      </trkpt>
      <trkpt lat="45.93567" lon="4.61622">
        <ele>407.74</ele>
        <time>2016-01-09T11:54:12Z</time>
      </trkpt>
      <trkpt lat="45.93564" lon="4.61617">
        <ele>406.77</ele>
        <time>2016-01-09T11:54:13Z</time>
      </trkpt>
      <trkpt lat="45.93561" lon="4.61611">
        <ele>405.81</ele>
        <time>2016-01-09T11:54:14Z</time>
      </trkpt>
      <trkpt lat="45.93559" lon="4.61605">
        <ele>405.33</ele>
        <time>2016-01-09T11:54:15Z</time>
      </trkpt>
      <trkpt lat="45.93553" lon="4.6159">
        <ele>403.41</ele>
        <time>2016-01-09T11:54:18Z</time>
      </trkpt>
      <trkpt lat="45.93552" lon="4.61583">
        <ele>402.45</ele>
        <time>2016-01-09T11:54:19Z</time>
      </trkpt>
      <trkpt lat="45.93553" lon="4.61559">
        <ele>399.57</ele>
        <time>2016-01-09T11:54:22Z</time>
      </trkpt>
      <trkpt lat="45.93555" lon="4.61534">
        <ele>396.2</ele>
        <time>2016-01-09T11:54:25Z</time>
      </trkpt>
      <trkpt lat="45.93557" lon="4.61503">
        <ele>392.36</ele>
        <time>2016-01-09T11:54:29Z</time>
      </trkpt>
      <trkpt lat="45.93558" lon="4.61496">
        <ele>392.36</ele>
        <time>2016-01-09T11:54:30Z</time>
      </trkpt>
      <trkpt lat="45.93559" lon="4.61491">
        <ele>391.39</ele>
        <time>2016-01-09T11:54:31Z</time>
      </trkpt>
      <trkpt lat="45.9356" lon="4.61486">
        <ele>390.43</ele>
        <time>2016-01-09T11:54:32Z</time>
      </trkpt>
      <trkpt lat="45.9356" lon="4.61481">
        <ele>389.95</ele>
        <time>2016-01-09T11:54:33Z</time>
      </trkpt>
      <trkpt lat="45.93562" lon="4.61476">
        <ele>388.99</ele>
        <time>2016-01-09T11:54:34Z</time>
      </trkpt>
      <trkpt lat="45.93563" lon="4.61471">
        <ele>388.03</ele>
        <time>2016-01-09T11:54:35Z</time>
      </trkpt>
      <trkpt lat="45.93565" lon="4.61468">
        <ele>387.07</ele>
        <time>2016-01-09T11:54:36Z</time>
      </trkpt>
      <trkpt lat="45.93568" lon="4.61465">
        <ele>386.59</ele>
        <time>2016-01-09T11:54:37Z</time>
      </trkpt>
      <trkpt lat="45.9357" lon="4.61461">
        <ele>386.11</ele>
        <time>2016-01-09T11:54:38Z</time>
      </trkpt>
      <trkpt lat="45.93572" lon="4.61457">
        <ele>385.63</ele>
        <time>2016-01-09T11:54:39Z</time>
      </trkpt>
      <trkpt lat="45.93573" lon="4.61453">
        <ele>384.66</ele>
        <time>2016-01-09T11:54:40Z</time>
      </trkpt>
      <trkpt lat="45.93574" lon="4.6145">
        <ele>383.7</ele>
        <time>2016-01-09T11:54:41Z</time>
      </trkpt>
      <trkpt lat="45.93575" lon="4.61446">
        <ele>383.22</ele>
        <time>2016-01-09T11:54:42Z</time>
      </trkpt>
      <trkpt lat="45.93577" lon="4.61441">
        <ele>383.22</ele>
        <time>2016-01-09T11:54:43Z</time>
      </trkpt>
      <trkpt lat="45.93579" lon="4.61431">
        <ele>381.78</ele>
        <time>2016-01-09T11:54:45Z</time>
      </trkpt>
      <trkpt lat="45.93584" lon="4.61408">
        <ele>380.82</ele>
        <time>2016-01-09T11:54:48Z</time>
      </trkpt>
      <trkpt lat="45.93585" lon="4.614">
        <ele>380.34</ele>
        <time>2016-01-09T11:54:49Z</time>
      </trkpt>
      <trkpt lat="45.93585" lon="4.61372">
        <ele>377.94</ele>
        <time>2016-01-09T11:54:57Z</time>
      </trkpt>
      <trkpt lat="45.93583" lon="4.61368">
        <ele>377.94</ele>
        <time>2016-01-09T11:55:10Z</time>
      </trkpt>
      <trkpt lat="45.93581" lon="4.61359">
        <ele>377.45</ele>
        <time>2016-01-09T11:55:22Z</time>
      </trkpt>
      <trkpt lat="45.93579" lon="4.61356">
        <ele>377.45</ele>
        <time>2016-01-09T11:55:31Z</time>
      </trkpt>
      <trkpt lat="45.93571" lon="4.61349">
        <ele>378.42</ele>
        <time>2016-01-09T11:55:40Z</time>
      </trkpt>
      <trkpt lat="45.93555" lon="4.61338">
        <ele>380.82</ele>
        <time>2016-01-09T11:55:53Z</time>
      </trkpt>
      <trkpt lat="45.93541" lon="4.61329">
        <ele>383.22</ele>
        <time>2016-01-09T11:56:06Z</time>
      </trkpt>
      <trkpt lat="45.93539" lon="4.61328">
        <ele>383.7</ele>
        <time>2016-01-09T11:56:07Z</time>
      </trkpt>
      <trkpt lat="45.9353" lon="4.6133">
        <ele>383.7</ele>
        <time>2016-01-09T11:56:18Z</time>
      </trkpt>
      <trkpt lat="45.93524" lon="4.61327">
        <ele>384.66</ele>
        <time>2016-01-09T11:56:29Z</time>
      </trkpt>
      <trkpt lat="45.93516" lon="4.61324">
        <ele>386.59</ele>
        <time>2016-01-09T11:56:39Z</time>
      </trkpt>
      <trkpt lat="45.9351" lon="4.61322">
        <ele>387.55</ele>
        <time>2016-01-09T11:56:46Z</time>
      </trkpt>
      <trkpt lat="45.93504" lon="4.61319">
        <ele>388.51</ele>
        <time>2016-01-09T11:56:55Z</time>
      </trkpt>
      <trkpt lat="45.93504" lon="4.61319">
        <ele>389.47</ele>
        <time>2016-01-09T11:57:01Z</time>
      </trkpt>
      <trkpt lat="45.93496" lon="4.61317">
        <ele>390.43</ele>
        <time>2016-01-09T11:57:10Z</time>
      </trkpt>
      <trkpt lat="45.93491" lon="4.61315">
        <ele>391.87</ele>
        <time>2016-01-09T11:57:22Z</time>
      </trkpt>
      <trkpt lat="45.93483" lon="4.61317">
        <ele>388.03</ele>
        <time>2016-01-09T11:57:31Z</time>
      </trkpt>
      <trkpt lat="45.93482" lon="4.61317">
        <ele>393.8</ele>
        <time>2016-01-09T11:57:32Z</time>
      </trkpt>
      <trkpt lat="45.93468" lon="4.61323">
        <ele>394.28</ele>
        <time>2016-01-09T11:57:46Z</time>
      </trkpt>
      <trkpt lat="45.93467" lon="4.61323">
        <ele>395.24</ele>
        <time>2016-01-09T11:57:47Z</time>
      </trkpt>
      <trkpt lat="45.93453" lon="4.6133">
        <ele>395.72</ele>
        <time>2016-01-09T11:58:02Z</time>
      </trkpt>
      <trkpt lat="45.93453" lon="4.61335">
        <ele>396.2</ele>
        <time>2016-01-09T11:58:16Z</time>
      </trkpt>
      <trkpt lat="45.93453" lon="4.61335">
        <ele>396.2</ele>
        <time>2016-01-09T11:58:44Z</time>
      </trkpt>
      <trkpt lat="45.93451" lon="4.61334">
        <ele>395.72</ele>
        <time>2016-01-09T11:59:03Z</time>
      </trkpt>
      <trkpt lat="45.9345" lon="4.61334">
        <ele>396.2</ele>
        <time>2016-01-09T11:59:04Z</time>
      </trkpt>
      <trkpt lat="45.93448" lon="4.61335">
        <ele>395.72</ele>
        <time>2016-01-09T11:59:05Z</time>
      </trkpt>
      <trkpt lat="45.93446" lon="4.61335">
        <ele>395.72</ele>
        <time>2016-01-09T11:59:06Z</time>
      </trkpt>
      <trkpt lat="45.93445" lon="4.61336">
        <ele>395.72</ele>
        <time>2016-01-09T11:59:07Z</time>
      </trkpt>
      <trkpt lat="45.93443" lon="4.61336">
        <ele>395.72</ele>
        <time>2016-01-09T11:59:08Z</time>
      </trkpt>
      <trkpt lat="45.93441" lon="4.61336">
        <ele>395.24</ele>
        <time>2016-01-09T11:59:09Z</time>
      </trkpt>
      <trkpt lat="45.93439" lon="4.61336">
        <ele>395.72</ele>
        <time>2016-01-09T11:59:10Z</time>
      </trkpt>
      <trkpt lat="45.93397" lon="4.61353">
        <ele>393.8</ele>
        <time>2016-01-09T11:59:22Z</time>
      </trkpt>
      <trkpt lat="45.93388" lon="4.61357">
        <ele>393.8</ele>
        <time>2016-01-09T11:59:24Z</time>
      </trkpt>
      <trkpt lat="45.93378" lon="4.61362">
        <ele>392.84</ele>
        <time>2016-01-09T11:59:26Z</time>
      </trkpt>
      <trkpt lat="45.93373" lon="4.61365">
        <ele>393.32</ele>
        <time>2016-01-09T11:59:27Z</time>
      </trkpt>
      <trkpt lat="45.93335" lon="4.61395">
        <ele>389.95</ele>
        <time>2016-01-09T11:59:33Z</time>
      </trkpt>
      <trkpt lat="45.93328" lon="4.614">
        <ele>389.47</ele>
        <time>2016-01-09T11:59:34Z</time>
      </trkpt>
      <trkpt lat="45.93297" lon="4.6143">
        <ele>388.51</ele>
        <time>2016-01-09T11:59:39Z</time>
      </trkpt>
      <trkpt lat="45.93268" lon="4.61479">
        <ele>386.11</ele>
        <time>2016-01-09T11:59:45Z</time>
      </trkpt>
      <trkpt lat="45.9322" lon="4.6154">
        <ele>383.7</ele>
        <time>2016-01-09T11:59:53Z</time>
      </trkpt>
      <trkpt lat="45.93191" lon="4.61565">
        <ele>381.78</ele>
        <time>2016-01-09T11:59:57Z</time>
      </trkpt>
      <trkpt lat="45.93152" lon="4.61592">
        <ele>379.38</ele>
        <time>2016-01-09T12:00:02Z</time>
      </trkpt>
      <trkpt lat="45.93098" lon="4.61629">
        <ele>376.49</ele>
        <time>2016-01-09T12:00:09Z</time>
      </trkpt>
      <trkpt lat="45.93091" lon="4.61636">
        <ele>376.01</ele>
        <time>2016-01-09T12:00:10Z</time>
      </trkpt>
      <trkpt lat="45.93084" lon="4.61644">
        <ele>375.53</ele>
        <time>2016-01-09T12:00:11Z</time>
      </trkpt>
      <trkpt lat="45.93066" lon="4.61671">
        <ele>374.57</ele>
        <time>2016-01-09T12:00:14Z</time>
      </trkpt>
      <trkpt lat="45.93061" lon="4.6168">
        <ele>374.09</ele>
        <time>2016-01-09T12:00:15Z</time>
      </trkpt>
      <trkpt lat="45.93031" lon="4.6176">
        <ele>373.13</ele>
        <time>2016-01-09T12:00:23Z</time>
      </trkpt>
      <trkpt lat="45.93028" lon="4.61768">
        <ele>373.13</ele>
        <time>2016-01-09T12:00:24Z</time>
      </trkpt>
      <trkpt lat="45.93024" lon="4.61775">
        <ele>373.61</ele>
        <time>2016-01-09T12:00:25Z</time>
      </trkpt>
      <trkpt lat="45.93013" lon="4.61793">
        <ele>373.61</ele>
        <time>2016-01-09T12:00:28Z</time>
      </trkpt>
      <trkpt lat="45.93007" lon="4.61804">
        <ele>374.09</ele>
        <time>2016-01-09T12:00:30Z</time>
      </trkpt>
      <trkpt lat="45.93001" lon="4.61817">
        <ele>374.09</ele>
        <time>2016-01-09T12:00:32Z</time>
      </trkpt>
      <trkpt lat="45.92998" lon="4.61822">
        <ele>374.57</ele>
        <time>2016-01-09T12:00:33Z</time>
      </trkpt>
      <trkpt lat="45.92985" lon="4.61843">
        <ele>375.53</ele>
        <time>2016-01-09T12:00:37Z</time>
      </trkpt>
      <trkpt lat="45.92982" lon="4.61846">
        <ele>375.53</ele>
        <time>2016-01-09T12:00:38Z</time>
      </trkpt>
      <trkpt lat="45.92964" lon="4.61864">
        <ele>376.01</ele>
        <time>2016-01-09T12:00:46Z</time>
      </trkpt>
      <trkpt lat="45.92963" lon="4.61867">
        <ele>376.49</ele>
        <time>2016-01-09T12:00:47Z</time>
      </trkpt>
      <trkpt lat="45.92964" lon="4.61869">
        <ele>376.01</ele>
        <time>2016-01-09T12:00:48Z</time>
      </trkpt>
      <trkpt lat="45.92965" lon="4.6187">
        <ele>375.53</ele>
        <time>2016-01-09T12:00:49Z</time>
      </trkpt>
      <trkpt lat="45.92967" lon="4.61871">
        <ele>376.49</ele>
        <time>2016-01-09T12:00:50Z</time>
      </trkpt>
      <trkpt lat="45.92973" lon="4.6187">
        <ele>375.53</ele>
        <time>2016-01-09T12:00:58Z</time>
      </trkpt>
      <trkpt lat="45.92977" lon="4.6187">
        <ele>374.57</ele>
        <time>2016-01-09T12:00:59Z</time>
      </trkpt>
      <trkpt lat="45.92982" lon="4.61869">
        <ele>374.57</ele>
        <time>2016-01-09T12:01:00Z</time>
      </trkpt>
      <trkpt lat="45.92992" lon="4.61869">
        <ele>373.13</ele>
        <time>2016-01-09T12:01:02Z</time>
      </trkpt>
      <trkpt lat="45.92998" lon="4.61869">
        <ele>372.65</ele>
        <time>2016-01-09T12:01:03Z</time>
      </trkpt>
      <trkpt lat="45.93005" lon="4.61871">
        <ele>371.69</ele>
        <time>2016-01-09T12:01:04Z</time>
      </trkpt>
      <trkpt lat="45.93012" lon="4.61875">
        <ele>371.21</ele>
        <time>2016-01-09T12:01:05Z</time>
      </trkpt>
      <trkpt lat="45.93017" lon="4.61878">
        <ele>370.24</ele>
        <time>2016-01-09T12:01:06Z</time>
      </trkpt>
      <trkpt lat="45.93027" lon="4.61886">
        <ele>367.84</ele>
        <time>2016-01-09T12:01:08Z</time>
      </trkpt>
      <trkpt lat="45.93042" lon="4.61905">
        <ele>365.92</ele>
        <time>2016-01-09T12:01:12Z</time>
      </trkpt>
      <trkpt lat="45.93045" lon="4.61911">
        <ele>365.92</ele>
        <time>2016-01-09T12:01:13Z</time>
      </trkpt>
      <trkpt lat="45.93054" lon="4.61937">
        <ele>362.55</ele>
        <time>2016-01-09T12:01:17Z</time>
      </trkpt>
      <trkpt lat="45.93056" lon="4.61944">
        <ele>362.07</ele>
        <time>2016-01-09T12:01:18Z</time>
      </trkpt>
      <trkpt lat="45.93058" lon="4.61957">
        <ele>361.11</ele>
        <time>2016-01-09T12:01:20Z</time>
      </trkpt>
      <trkpt lat="45.93058" lon="4.61964">
        <ele>360.63</ele>
        <time>2016-01-09T12:01:21Z</time>
      </trkpt>
      <trkpt lat="45.93058" lon="4.61971">
        <ele>360.63</ele>
        <time>2016-01-09T12:01:22Z</time>
      </trkpt>
      <trkpt lat="45.93055" lon="4.62014">
        <ele>358.23</ele>
        <time>2016-01-09T12:01:29Z</time>
      </trkpt>
      <trkpt lat="45.93053" lon="4.62063">
        <ele>357.27</ele>
        <time>2016-01-09T12:01:37Z</time>
      </trkpt>
      <trkpt lat="45.93054" lon="4.6207">
        <ele>355.83</ele>
        <time>2016-01-09T12:01:38Z</time>
      </trkpt>
      <trkpt lat="45.93056" lon="4.62076">
        <ele>355.83</ele>
        <time>2016-01-09T12:01:39Z</time>
      </trkpt>
      <trkpt lat="45.93059" lon="4.62088">
        <ele>354.86</ele>
        <time>2016-01-09T12:01:41Z</time>
      </trkpt>
      <trkpt lat="45.93061" lon="4.62093">
        <ele>354.86</ele>
        <time>2016-01-09T12:01:42Z</time>
      </trkpt>
      <trkpt lat="45.93069" lon="4.62109">
        <ele>353.42</ele>
        <time>2016-01-09T12:01:45Z</time>
      </trkpt>
      <trkpt lat="45.93088" lon="4.62148">
        <ele>349.58</ele>
        <time>2016-01-09T12:01:52Z</time>
      </trkpt>
      <trkpt lat="45.93091" lon="4.62155">
        <ele>348.62</ele>
        <time>2016-01-09T12:01:53Z</time>
      </trkpt>
      <trkpt lat="45.93094" lon="4.62162">
        <ele>347.65</ele>
        <time>2016-01-09T12:01:54Z</time>
      </trkpt>
      <trkpt lat="45.93097" lon="4.62168">
        <ele>347.65</ele>
        <time>2016-01-09T12:01:55Z</time>
      </trkpt>
      <trkpt lat="45.93102" lon="4.62182">
        <ele>346.69</ele>
        <time>2016-01-09T12:01:57Z</time>
      </trkpt>
      <trkpt lat="45.93103" lon="4.6219">
        <ele>345.25</ele>
        <time>2016-01-09T12:01:58Z</time>
      </trkpt>
      <trkpt lat="45.9311" lon="4.62223">
        <ele>341.89</ele>
        <time>2016-01-09T12:02:02Z</time>
      </trkpt>
      <trkpt lat="45.93117" lon="4.62249">
        <ele>338.52</ele>
        <time>2016-01-09T12:02:05Z</time>
      </trkpt>
      <trkpt lat="45.93119" lon="4.62263">
        <ele>337.56</ele>
        <time>2016-01-09T12:02:07Z</time>
      </trkpt>
      <trkpt lat="45.93119" lon="4.62269">
        <ele>337.56</ele>
        <time>2016-01-09T12:02:08Z</time>
      </trkpt>
      <trkpt lat="45.93117" lon="4.62312">
        <ele>336.6</ele>
        <time>2016-01-09T12:02:14Z</time>
      </trkpt>
      <trkpt lat="45.93114" lon="4.62337">
        <ele>335.64</ele>
        <time>2016-01-09T12:02:20Z</time>
      </trkpt>
      <trkpt lat="45.93113" lon="4.6234">
        <ele>335.64</ele>
        <time>2016-01-09T12:02:21Z</time>
      </trkpt>
      <trkpt lat="45.93112" lon="4.62343">
        <ele>335.16</ele>
        <time>2016-01-09T12:02:22Z</time>
      </trkpt>
      <trkpt lat="45.93111" lon="4.62344">
        <ele>335.16</ele>
        <time>2016-01-09T12:02:34Z</time>
      </trkpt>
      <trkpt lat="45.9311" lon="4.62347">
        <ele>335.16</ele>
        <time>2016-01-09T12:02:49Z</time>
      </trkpt>
      <trkpt lat="45.93104" lon="4.62369">
        <ele>334.2</ele>
        <time>2016-01-09T12:02:56Z</time>
      </trkpt>
      <trkpt lat="45.93104" lon="4.62375">
        <ele>333.23</ele>
        <time>2016-01-09T12:02:57Z</time>
      </trkpt>
      <trkpt lat="45.93105" lon="4.6238">
        <ele>332.27</ele>
        <time>2016-01-09T12:02:58Z</time>
      </trkpt>
      <trkpt lat="45.93107" lon="4.62385">
        <ele>331.31</ele>
        <time>2016-01-09T12:02:59Z</time>
      </trkpt>
      <trkpt lat="45.9311" lon="4.62391">
        <ele>330.35</ele>
        <time>2016-01-09T12:03:00Z</time>
      </trkpt>
      <trkpt lat="45.93115" lon="4.62396">
        <ele>329.87</ele>
        <time>2016-01-09T12:03:01Z</time>
      </trkpt>
      <trkpt lat="45.93121" lon="4.62402">
        <ele>328.43</ele>
        <time>2016-01-09T12:03:02Z</time>
      </trkpt>
      <trkpt lat="45.93129" lon="4.62406">
        <ele>326.99</ele>
        <time>2016-01-09T12:03:03Z</time>
      </trkpt>
      <trkpt lat="45.93138" lon="4.6241">
        <ele>326.02</ele>
        <time>2016-01-09T12:03:04Z</time>
      </trkpt>
      <trkpt lat="45.93146" lon="4.62416">
        <ele>325.54</ele>
        <time>2016-01-09T12:03:05Z</time>
      </trkpt>
      <trkpt lat="45.93152" lon="4.62422">
        <ele>324.58</ele>
        <time>2016-01-09T12:03:06Z</time>
      </trkpt>
      <trkpt lat="45.93157" lon="4.62429">
        <ele>324.1</ele>
        <time>2016-01-09T12:03:07Z</time>
      </trkpt>
      <trkpt lat="45.93162" lon="4.62436">
        <ele>323.62</ele>
        <time>2016-01-09T12:03:08Z</time>
      </trkpt>
      <trkpt lat="45.93166" lon="4.62443">
        <ele>323.14</ele>
        <time>2016-01-09T12:03:09Z</time>
      </trkpt>
      <trkpt lat="45.93169" lon="4.62449">
        <ele>322.66</ele>
        <time>2016-01-09T12:03:10Z</time>
      </trkpt>
      <trkpt lat="45.93169" lon="4.62454">
        <ele>323.14</ele>
        <time>2016-01-09T12:03:11Z</time>
      </trkpt>
      <trkpt lat="45.9317" lon="4.62458">
        <ele>323.14</ele>
        <time>2016-01-09T12:03:12Z</time>
      </trkpt>
      <trkpt lat="45.9317" lon="4.62461">
        <ele>322.66</ele>
        <time>2016-01-09T12:03:13Z</time>
      </trkpt>
      <trkpt lat="45.9317" lon="4.62465">
        <ele>322.66</ele>
        <time>2016-01-09T12:03:14Z</time>
      </trkpt>
      <trkpt lat="45.9317" lon="4.6247">
        <ele>322.66</ele>
        <time>2016-01-09T12:03:15Z</time>
      </trkpt>
      <trkpt lat="45.9317" lon="4.62475">
        <ele>322.18</ele>
        <time>2016-01-09T12:03:16Z</time>
      </trkpt>
      <trkpt lat="45.93169" lon="4.6248">
        <ele>322.18</ele>
        <time>2016-01-09T12:03:17Z</time>
      </trkpt>
      <trkpt lat="45.93167" lon="4.62485">
        <ele>321.7</ele>
        <time>2016-01-09T12:03:18Z</time>
      </trkpt>
      <trkpt lat="45.93166" lon="4.62491">
        <ele>322.18</ele>
        <time>2016-01-09T12:03:19Z</time>
      </trkpt>
      <trkpt lat="45.93165" lon="4.62497">
        <ele>321.7</ele>
        <time>2016-01-09T12:03:20Z</time>
      </trkpt>
      <trkpt lat="45.93164" lon="4.62504">
        <ele>321.7</ele>
        <time>2016-01-09T12:03:21Z</time>
      </trkpt>
      <trkpt lat="45.93163" lon="4.62512">
        <ele>321.7</ele>
        <time>2016-01-09T12:03:22Z</time>
      </trkpt>
      <trkpt lat="45.93161" lon="4.6252">
        <ele>321.22</ele>
        <time>2016-01-09T12:03:23Z</time>
      </trkpt>
      <trkpt lat="45.93143" lon="4.6265">
        <ele>319.3</ele>
        <time>2016-01-09T12:03:37Z</time>
      </trkpt>
      <trkpt lat="45.93135" lon="4.62703">
        <ele>318.33</ele>
        <time>2016-01-09T12:03:43Z</time>
      </trkpt>
      <trkpt lat="45.93133" lon="4.62719">
        <ele>318.33</ele>
        <time>2016-01-09T12:03:45Z</time>
      </trkpt>
      <trkpt lat="45.93113" lon="4.62841">
        <ele>317.37</ele>
        <time>2016-01-09T12:03:59Z</time>
      </trkpt>
      <trkpt lat="45.931" lon="4.62924">
        <ele>316.89</ele>
        <time>2016-01-09T12:04:08Z</time>
      </trkpt>
      <trkpt lat="45.93097" lon="4.62979">
        <ele>316.41</ele>
        <time>2016-01-09T12:04:14Z</time>
      </trkpt>
      <trkpt lat="45.93097" lon="4.62988">
        <ele>315.93</ele>
        <time>2016-01-09T12:04:15Z</time>
      </trkpt>
      <trkpt lat="45.93098" lon="4.63015">
        <ele>317.37</ele>
        <time>2016-01-09T12:04:18Z</time>
      </trkpt>
      <trkpt lat="45.93101" lon="4.63037">
        <ele>318.33</ele>
        <time>2016-01-09T12:04:21Z</time>
      </trkpt>
      <trkpt lat="45.93099" lon="4.63107">
        <ele>321.22</ele>
        <time>2016-01-09T12:04:34Z</time>
      </trkpt>
      <trkpt lat="45.93086" lon="4.6315">
        <ele>324.1</ele>
        <time>2016-01-09T12:04:47Z</time>
      </trkpt>
      <trkpt lat="45.93065" lon="4.63188">
        <ele>327.47</ele>
        <time>2016-01-09T12:05:03Z</time>
      </trkpt>
      <trkpt lat="45.93049" lon="4.63217">
        <ele>329.39</ele>
        <time>2016-01-09T12:05:18Z</time>
      </trkpt>
      <trkpt lat="45.93048" lon="4.63219">
        <ele>329.39</ele>
        <time>2016-01-09T12:05:19Z</time>
      </trkpt>
      <trkpt lat="45.93047" lon="4.6322">
        <ele>330.35</ele>
        <time>2016-01-09T12:05:20Z</time>
      </trkpt>
      <trkpt lat="45.93034" lon="4.63246">
        <ele>332.27</ele>
        <time>2016-01-09T12:05:33Z</time>
      </trkpt>
      <trkpt lat="45.93033" lon="4.63248">
        <ele>332.27</ele>
        <time>2016-01-09T12:05:34Z</time>
      </trkpt>
      <trkpt lat="45.93032" lon="4.6325">
        <ele>332.75</ele>
        <time>2016-01-09T12:05:35Z</time>
      </trkpt>
      <trkpt lat="45.93031" lon="4.63252">
        <ele>332.27</ele>
        <time>2016-01-09T12:05:36Z</time>
      </trkpt>
      <trkpt lat="45.9303" lon="4.63254">
        <ele>332.75</ele>
        <time>2016-01-09T12:05:37Z</time>
      </trkpt>
      <trkpt lat="45.9303" lon="4.63256">
        <ele>332.75</ele>
        <time>2016-01-09T12:05:38Z</time>
      </trkpt>
      <trkpt lat="45.93029" lon="4.63258">
        <ele>332.75</ele>
        <time>2016-01-09T12:05:39Z</time>
      </trkpt>
      <trkpt lat="45.93028" lon="4.63259">
        <ele>333.23</ele>
        <time>2016-01-09T12:05:40Z</time>
      </trkpt>
      <trkpt lat="45.93028" lon="4.63261">
        <ele>333.71</ele>
        <time>2016-01-09T12:05:41Z</time>
      </trkpt>
      <trkpt lat="45.93024" lon="4.63277">
        <ele>333.71</ele>
        <time>2016-01-09T12:05:47Z</time>
      </trkpt>
      <trkpt lat="45.93023" lon="4.63279">
        <ele>334.2</ele>
        <time>2016-01-09T12:05:48Z</time>
      </trkpt>
      <trkpt lat="45.93022" lon="4.63282">
        <ele>333.71</ele>
        <time>2016-01-09T12:05:49Z</time>
      </trkpt>
      <trkpt lat="45.93021" lon="4.63283">
        <ele>334.2</ele>
        <time>2016-01-09T12:05:50Z</time>
      </trkpt>
      <trkpt lat="45.93021" lon="4.63285">
        <ele>334.2</ele>
        <time>2016-01-09T12:05:51Z</time>
      </trkpt>
      <trkpt lat="45.93021" lon="4.63287">
        <ele>334.2</ele>
        <time>2016-01-09T12:05:52Z</time>
      </trkpt>
      <trkpt lat="45.93021" lon="4.63289">
        <ele>334.2</ele>
        <time>2016-01-09T12:05:53Z</time>
      </trkpt>
      <trkpt lat="45.93021" lon="4.63291">
        <ele>335.16</ele>
        <time>2016-01-09T12:05:54Z</time>
      </trkpt>
      <trkpt lat="45.9302" lon="4.63293">
        <ele>335.16</ele>
        <time>2016-01-09T12:05:55Z</time>
      </trkpt>
      <trkpt lat="45.93008" lon="4.63325">
        <ele>336.12</ele>
        <time>2016-01-09T12:06:08Z</time>
      </trkpt>
      <trkpt lat="45.9299" lon="4.63367">
        <ele>337.56</ele>
        <time>2016-01-09T12:06:23Z</time>
      </trkpt>
      <trkpt lat="45.9297" lon="4.6341">
        <ele>338.04</ele>
        <time>2016-01-09T12:06:37Z</time>
      </trkpt>
      <trkpt lat="45.92949" lon="4.6346">
        <ele>336.6</ele>
        <time>2016-01-09T12:06:46Z</time>
      </trkpt>
      <trkpt lat="45.92947" lon="4.63467">
        <ele>337.08</ele>
        <time>2016-01-09T12:06:47Z</time>
      </trkpt>
      <trkpt lat="45.92945" lon="4.63473">
        <ele>337.08</ele>
        <time>2016-01-09T12:06:48Z</time>
      </trkpt>
      <trkpt lat="45.92935" lon="4.63491">
        <ele>336.12</ele>
        <time>2016-01-09T12:06:51Z</time>
      </trkpt>
      <trkpt lat="45.92895" lon="4.63576">
        <ele>334.2</ele>
        <time>2016-01-09T12:07:03Z</time>
      </trkpt>
      <trkpt lat="45.92881" lon="4.63632">
        <ele>332.27</ele>
        <time>2016-01-09T12:07:09Z</time>
      </trkpt>
      <trkpt lat="45.92874" lon="4.63696">
        <ele>329.87</ele>
        <time>2016-01-09T12:07:15Z</time>
      </trkpt>
      <trkpt lat="45.92872" lon="4.63752">
        <ele>328.91</ele>
        <time>2016-01-09T12:07:20Z</time>
      </trkpt>
      <trkpt lat="45.92874" lon="4.63763">
        <ele>328.91</ele>
        <time>2016-01-09T12:07:21Z</time>
      </trkpt>
      <trkpt lat="45.92875" lon="4.63773">
        <ele>328.43</ele>
        <time>2016-01-09T12:07:22Z</time>
      </trkpt>
      <trkpt lat="45.92875" lon="4.63783">
        <ele>328.91</ele>
        <time>2016-01-09T12:07:23Z</time>
      </trkpt>
      <trkpt lat="45.92876" lon="4.63792">
        <ele>328.91</ele>
        <time>2016-01-09T12:07:24Z</time>
      </trkpt>
      <trkpt lat="45.92877" lon="4.638">
        <ele>329.87</ele>
        <time>2016-01-09T12:07:25Z</time>
      </trkpt>
      <trkpt lat="45.92877" lon="4.63808">
        <ele>329.87</ele>
        <time>2016-01-09T12:07:26Z</time>
      </trkpt>
      <trkpt lat="45.92876" lon="4.63814">
        <ele>329.87</ele>
        <time>2016-01-09T12:07:27Z</time>
      </trkpt>
      <trkpt lat="45.92875" lon="4.63821">
        <ele>330.83</ele>
        <time>2016-01-09T12:07:28Z</time>
      </trkpt>
      <trkpt lat="45.92874" lon="4.63828">
        <ele>330.35</ele>
        <time>2016-01-09T12:07:29Z</time>
      </trkpt>
      <trkpt lat="45.92873" lon="4.63834">
        <ele>331.31</ele>
        <time>2016-01-09T12:07:30Z</time>
      </trkpt>
      <trkpt lat="45.92871" lon="4.6384">
        <ele>330.83</ele>
        <time>2016-01-09T12:07:31Z</time>
      </trkpt>
      <trkpt lat="45.92862" lon="4.6387">
        <ele>331.79</ele>
        <time>2016-01-09T12:07:36Z</time>
      </trkpt>
      <trkpt lat="45.92837" lon="4.63951">
        <ele>332.27</ele>
        <time>2016-01-09T12:07:51Z</time>
      </trkpt>
      <trkpt lat="45.92837" lon="4.63957">
        <ele>331.79</ele>
        <time>2016-01-09T12:07:52Z</time>
      </trkpt>
      <trkpt lat="45.92847" lon="4.64036">
        <ele>328.43</ele>
        <time>2016-01-09T12:08:02Z</time>
      </trkpt>
      <trkpt lat="45.92849" lon="4.64059">
        <ele>327.47</ele>
        <time>2016-01-09T12:08:04Z</time>
      </trkpt>
      <trkpt lat="45.92851" lon="4.64164">
        <ele>326.5</ele>
        <time>2016-01-09T12:08:14Z</time>
      </trkpt>
      <trkpt lat="45.92852" lon="4.64171">
        <ele>326.02</ele>
        <time>2016-01-09T12:08:15Z</time>
      </trkpt>
      <trkpt lat="45.92852" lon="4.64176">
        <ele>326.5</ele>
        <time>2016-01-09T12:08:16Z</time>
      </trkpt>
      <trkpt lat="45.9283" lon="4.64208">
        <ele>327.95</ele>
        <time>2016-01-09T12:08:26Z</time>
      </trkpt>
      <trkpt lat="45.92802" lon="4.64225">
        <ele>329.39</ele>
        <time>2016-01-09T12:08:37Z</time>
      </trkpt>
      <trkpt lat="45.92773" lon="4.64233">
        <ele>330.83</ele>
        <time>2016-01-09T12:08:50Z</time>
      </trkpt>
      <trkpt lat="45.92771" lon="4.64233">
        <ele>330.35</ele>
        <time>2016-01-09T12:08:51Z</time>
      </trkpt>
      <trkpt lat="45.92769" lon="4.64234">
        <ele>330.83</ele>
        <time>2016-01-09T12:08:52Z</time>
      </trkpt>
      <trkpt lat="45.92748" lon="4.64249">
        <ele>330.83</ele>
        <time>2016-01-09T12:09:04Z</time>
      </trkpt>
      <trkpt lat="45.92746" lon="4.64252">
        <ele>330.35</ele>
        <time>2016-01-09T12:09:05Z</time>
      </trkpt>
      <trkpt lat="45.92744" lon="4.64253">
        <ele>330.83</ele>
        <time>2016-01-09T12:09:06Z</time>
      </trkpt>
      <trkpt lat="45.92741" lon="4.64257">
        <ele>330.83</ele>
        <time>2016-01-09T12:09:15Z</time>
      </trkpt>
      <trkpt lat="45.9272" lon="4.64273">
        <ele>331.31</ele>
        <time>2016-01-09T12:09:27Z</time>
      </trkpt>
      <trkpt lat="45.92718" lon="4.64274">
        <ele>331.31</ele>
        <time>2016-01-09T12:09:28Z</time>
      </trkpt>
      <trkpt lat="45.92716" lon="4.64277">
        <ele>330.83</ele>
        <time>2016-01-09T12:09:29Z</time>
      </trkpt>
      <trkpt lat="45.92715" lon="4.6428">
        <ele>330.83</ele>
        <time>2016-01-09T12:09:30Z</time>
      </trkpt>
      <trkpt lat="45.92712" lon="4.64281">
        <ele>331.31</ele>
        <time>2016-01-09T12:09:31Z</time>
      </trkpt>
      <trkpt lat="45.9271" lon="4.64282">
        <ele>331.31</ele>
        <time>2016-01-09T12:09:32Z</time>
      </trkpt>
      <trkpt lat="45.92707" lon="4.64283">
        <ele>330.35</ele>
        <time>2016-01-09T12:09:33Z</time>
      </trkpt>
      <trkpt lat="45.92705" lon="4.64285">
        <ele>330.35</ele>
        <time>2016-01-09T12:09:34Z</time>
      </trkpt>
      <trkpt lat="45.9267" lon="4.64319">
        <ele>329.87</ele>
        <time>2016-01-09T12:09:50Z</time>
      </trkpt>
      <trkpt lat="45.92639" lon="4.64364">
        <ele>329.39</ele>
        <time>2016-01-09T12:10:03Z</time>
      </trkpt>
      <trkpt lat="45.92623" lon="4.64386">
        <ele>328.91</ele>
        <time>2016-01-09T12:10:08Z</time>
      </trkpt>
      <trkpt lat="45.92619" lon="4.64391">
        <ele>327.95</ele>
        <time>2016-01-09T12:10:09Z</time>
      </trkpt>
      <trkpt lat="45.92579" lon="4.64446">
        <ele>326.5</ele>
        <time>2016-01-09T12:10:19Z</time>
      </trkpt>
      <trkpt lat="45.92563" lon="4.6448">
        <ele>325.06</ele>
        <time>2016-01-09T12:10:24Z</time>
      </trkpt>
      <trkpt lat="45.9256" lon="4.64487">
        <ele>325.06</ele>
        <time>2016-01-09T12:10:25Z</time>
      </trkpt>
      <trkpt lat="45.92558" lon="4.64494">
        <ele>325.06</ele>
        <time>2016-01-09T12:10:26Z</time>
      </trkpt>
      <trkpt lat="45.92557" lon="4.645">
        <ele>324.58</ele>
        <time>2016-01-09T12:10:27Z</time>
      </trkpt>
      <trkpt lat="45.92556" lon="4.64507">
        <ele>324.1</ele>
        <time>2016-01-09T12:10:28Z</time>
      </trkpt>
      <trkpt lat="45.92556" lon="4.64514">
        <ele>324.58</ele>
        <time>2016-01-09T12:10:29Z</time>
      </trkpt>
      <trkpt lat="45.92557" lon="4.64521">
        <ele>324.1</ele>
        <time>2016-01-09T12:10:30Z</time>
      </trkpt>
      <trkpt lat="45.92558" lon="4.64529">
        <ele>324.1</ele>
        <time>2016-01-09T12:10:31Z</time>
      </trkpt>
      <trkpt lat="45.92565" lon="4.64566">
        <ele>322.66</ele>
        <time>2016-01-09T12:10:35Z</time>
      </trkpt>
      <trkpt lat="45.92574" lon="4.64656">
        <ele>320.26</ele>
        <time>2016-01-09T12:10:44Z</time>
      </trkpt>
      <trkpt lat="45.92576" lon="4.64742">
        <ele>318.33</ele>
        <time>2016-01-09T12:10:54Z</time>
      </trkpt>
      <trkpt lat="45.92576" lon="4.64767">
        <ele>316.89</ele>
        <time>2016-01-09T12:10:57Z</time>
      </trkpt>
      <trkpt lat="45.92577" lon="4.64775">
        <ele>316.41</ele>
        <time>2016-01-09T12:10:58Z</time>
      </trkpt>
      <trkpt lat="45.92578" lon="4.64784">
        <ele>316.41</ele>
        <time>2016-01-09T12:10:59Z</time>
      </trkpt>
      <trkpt lat="45.92578" lon="4.64793">
        <ele>316.41</ele>
        <time>2016-01-09T12:11:00Z</time>
      </trkpt>
      <trkpt lat="45.92578" lon="4.64801">
        <ele>315.93</ele>
        <time>2016-01-09T12:11:01Z</time>
      </trkpt>
      <trkpt lat="45.92578" lon="4.64809">
        <ele>315.93</ele>
        <time>2016-01-09T12:11:02Z</time>
      </trkpt>
      <trkpt lat="45.92578" lon="4.64837">
        <ele>315.45</ele>
        <time>2016-01-09T12:11:05Z</time>
      </trkpt>
      <trkpt lat="45.92579" lon="4.64847">
        <ele>315.45</ele>
        <time>2016-01-09T12:11:06Z</time>
      </trkpt>
      <trkpt lat="45.92581" lon="4.64857">
        <ele>315.45</ele>
        <time>2016-01-09T12:11:07Z</time>
      </trkpt>
      <trkpt lat="45.92586" lon="4.64896">
        <ele>314.49</ele>
        <time>2016-01-09T12:11:11Z</time>
      </trkpt>
      <trkpt lat="45.92589" lon="4.64904">
        <ele>314.01</ele>
        <time>2016-01-09T12:11:12Z</time>
      </trkpt>
      <trkpt lat="45.92592" lon="4.64912">
        <ele>314.01</ele>
        <time>2016-01-09T12:11:13Z</time>
      </trkpt>
      <trkpt lat="45.92595" lon="4.6492">
        <ele>313.53</ele>
        <time>2016-01-09T12:11:14Z</time>
      </trkpt>
      <trkpt lat="45.92599" lon="4.64927">
        <ele>314.01</ele>
        <time>2016-01-09T12:11:15Z</time>
      </trkpt>
      <trkpt lat="45.92602" lon="4.64935">
        <ele>314.01</ele>
        <time>2016-01-09T12:11:16Z</time>
      </trkpt>
      <trkpt lat="45.92605" lon="4.64942">
        <ele>314.01</ele>
        <time>2016-01-09T12:11:17Z</time>
      </trkpt>
      <trkpt lat="45.92608" lon="4.64951">
        <ele>314.01</ele>
        <time>2016-01-09T12:11:18Z</time>
      </trkpt>
      <trkpt lat="45.9261" lon="4.64959">
        <ele>313.53</ele>
        <time>2016-01-09T12:11:19Z</time>
      </trkpt>
      <trkpt lat="45.92611" lon="4.64968">
        <ele>313.53</ele>
        <time>2016-01-09T12:11:20Z</time>
      </trkpt>
      <trkpt lat="45.92613" lon="4.64977">
        <ele>313.05</ele>
        <time>2016-01-09T12:11:21Z</time>
      </trkpt>
      <trkpt lat="45.92624" lon="4.65065">
        <ele>311.12</ele>
        <time>2016-01-09T12:11:33Z</time>
      </trkpt>
      <trkpt lat="45.92629" lon="4.65077">
        <ele>310.64</ele>
        <time>2016-01-09T12:11:36Z</time>
      </trkpt>
      <trkpt lat="45.92629" lon="4.65081">
        <ele>310.16</ele>
        <time>2016-01-09T12:11:37Z</time>
      </trkpt>
      <trkpt lat="45.92629" lon="4.65084">
        <ele>310.16</ele>
        <time>2016-01-09T12:11:38Z</time>
      </trkpt>
      <trkpt lat="45.92628" lon="4.65087">
        <ele>310.64</ele>
        <time>2016-01-09T12:11:39Z</time>
      </trkpt>
      <trkpt lat="45.92627" lon="4.65089">
        <ele>310.16</ele>
        <time>2016-01-09T12:11:40Z</time>
      </trkpt>
      <trkpt lat="45.92626" lon="4.65092">
        <ele>310.64</ele>
        <time>2016-01-09T12:11:41Z</time>
      </trkpt>
      <trkpt lat="45.92627" lon="4.65095">
        <ele>310.16</ele>
        <time>2016-01-09T12:11:42Z</time>
      </trkpt>
      <trkpt lat="45.92627" lon="4.65098">
        <ele>310.16</ele>
        <time>2016-01-09T12:11:43Z</time>
      </trkpt>
      <trkpt lat="45.92628" lon="4.65102">
        <ele>310.16</ele>
        <time>2016-01-09T12:11:44Z</time>
      </trkpt>
      <trkpt lat="45.92628" lon="4.65106">
        <ele>309.68</ele>
        <time>2016-01-09T12:11:45Z</time>
      </trkpt>
      <trkpt lat="45.92628" lon="4.6511">
        <ele>310.64</ele>
        <time>2016-01-09T12:11:46Z</time>
      </trkpt>
      <trkpt lat="45.92629" lon="4.65115">
        <ele>309.68</ele>
        <time>2016-01-09T12:11:47Z</time>
      </trkpt>
      <trkpt lat="45.92629" lon="4.65121">
        <ele>309.68</ele>
        <time>2016-01-09T12:11:48Z</time>
      </trkpt>
      <trkpt lat="45.92629" lon="4.65127">
        <ele>310.16</ele>
        <time>2016-01-09T12:11:49Z</time>
      </trkpt>
      <trkpt lat="45.92632" lon="4.65146">
        <ele>309.68</ele>
        <time>2016-01-09T12:11:52Z</time>
      </trkpt>
      <trkpt lat="45.92633" lon="4.65194">
        <ele>308.72</ele>
        <time>2016-01-09T12:11:59Z</time>
      </trkpt>
      <trkpt lat="45.92629" lon="4.65222">
        <ele>308.24</ele>
        <time>2016-01-09T12:12:03Z</time>
      </trkpt>
      <trkpt lat="45.92628" lon="4.65229">
        <ele>308.24</ele>
        <time>2016-01-09T12:12:04Z</time>
      </trkpt>
      <trkpt lat="45.92617" lon="4.65276">
        <ele>307.28</ele>
        <time>2016-01-09T12:12:13Z</time>
      </trkpt>
      <trkpt lat="45.92614" lon="4.65277">
        <ele>306.8</ele>
        <time>2016-01-09T12:12:14Z</time>
      </trkpt>
      <trkpt lat="45.92611" lon="4.65277">
        <ele>306.8</ele>
        <time>2016-01-09T12:12:15Z</time>
      </trkpt>
      <trkpt lat="45.92608" lon="4.65276">
        <ele>306.8</ele>
        <time>2016-01-09T12:12:16Z</time>
      </trkpt>
      <trkpt lat="45.92605" lon="4.65276">
        <ele>306.8</ele>
        <time>2016-01-09T12:12:17Z</time>
      </trkpt>
      <trkpt lat="45.92602" lon="4.65276">
        <ele>306.32</ele>
        <time>2016-01-09T12:12:18Z</time>
      </trkpt>
      <trkpt lat="45.92597" lon="4.65276">
        <ele>306.32</ele>
        <time>2016-01-09T12:12:19Z</time>
      </trkpt>
      <trkpt lat="45.92578" lon="4.65279">
        <ele>306.32</ele>
        <time>2016-01-09T12:12:24Z</time>
      </trkpt>
      <trkpt lat="45.92574" lon="4.6528">
        <ele>306.32</ele>
        <time>2016-01-09T12:12:25Z</time>
      </trkpt>
      <trkpt lat="45.92564" lon="4.65282">
        <ele>306.32</ele>
        <time>2016-01-09T12:12:27Z</time>
      </trkpt>
      <trkpt lat="45.9256" lon="4.65284">
        <ele>305.84</ele>
        <time>2016-01-09T12:12:28Z</time>
      </trkpt>
      <trkpt lat="45.92555" lon="4.65286">
        <ele>305.84</ele>
        <time>2016-01-09T12:12:29Z</time>
      </trkpt>
      <trkpt lat="45.92551" lon="4.65287">
        <ele>305.36</ele>
        <time>2016-01-09T12:12:30Z</time>
      </trkpt>
      <trkpt lat="45.92547" lon="4.65288">
        <ele>304.88</ele>
        <time>2016-01-09T12:12:31Z</time>
      </trkpt>
      <trkpt lat="45.92507" lon="4.65299">
        <ele>304.39</ele>
        <time>2016-01-09T12:12:40Z</time>
      </trkpt>
      <trkpt lat="45.92493" lon="4.65298">
        <ele>303.91</ele>
        <time>2016-01-09T12:12:43Z</time>
      </trkpt>
      <trkpt lat="45.92488" lon="4.65297">
        <ele>304.39</ele>
        <time>2016-01-09T12:12:44Z</time>
      </trkpt>
      <trkpt lat="45.92483" lon="4.65297">
        <ele>304.88</ele>
        <time>2016-01-09T12:12:45Z</time>
      </trkpt>
      <trkpt lat="45.92478" lon="4.65296">
        <ele>304.39</ele>
        <time>2016-01-09T12:12:46Z</time>
      </trkpt>
      <trkpt lat="45.92473" lon="4.65296">
        <ele>304.39</ele>
        <time>2016-01-09T12:12:47Z</time>
      </trkpt>
      <trkpt lat="45.92468" lon="4.65296">
        <ele>304.88</ele>
        <time>2016-01-09T12:12:48Z</time>
      </trkpt>
      <trkpt lat="45.92463" lon="4.65296">
        <ele>304.88</ele>
        <time>2016-01-09T12:12:49Z</time>
      </trkpt>
      <trkpt lat="45.92459" lon="4.65295">
        <ele>304.39</ele>
        <time>2016-01-09T12:12:50Z</time>
      </trkpt>
      <trkpt lat="45.92444" lon="4.65295">
        <ele>303.43</ele>
        <time>2016-01-09T12:12:53Z</time>
      </trkpt>
      <trkpt lat="45.9243" lon="4.65292">
        <ele>304.88</ele>
        <time>2016-01-09T12:12:56Z</time>
      </trkpt>
      <trkpt lat="45.92425" lon="4.65292">
        <ele>304.39</ele>
        <time>2016-01-09T12:12:57Z</time>
      </trkpt>
      <trkpt lat="45.9242" lon="4.65292">
        <ele>304.39</ele>
        <time>2016-01-09T12:12:58Z</time>
      </trkpt>
      <trkpt lat="45.92416" lon="4.65293">
        <ele>304.39</ele>
        <time>2016-01-09T12:12:59Z</time>
      </trkpt>
      <trkpt lat="45.92411" lon="4.65293">
        <ele>303.91</ele>
        <time>2016-01-09T12:13:00Z</time>
      </trkpt>
      <trkpt lat="45.92406" lon="4.65293">
        <ele>304.88</ele>
        <time>2016-01-09T12:13:01Z</time>
      </trkpt>
      <trkpt lat="45.92401" lon="4.65294">
        <ele>303.91</ele>
        <time>2016-01-09T12:13:02Z</time>
      </trkpt>
      <trkpt lat="45.92385" lon="4.65298">
        <ele>303.91</ele>
        <time>2016-01-09T12:13:05Z</time>
      </trkpt>
      <trkpt lat="45.9238" lon="4.65301">
        <ele>303.91</ele>
        <time>2016-01-09T12:13:06Z</time>
      </trkpt>
      <trkpt lat="45.92375" lon="4.65304">
        <ele>303.43</ele>
        <time>2016-01-09T12:13:07Z</time>
      </trkpt>
      <trkpt lat="45.92327" lon="4.6532">
        <ele>302.95</ele>
        <time>2016-01-09T12:13:16Z</time>
      </trkpt>
      <trkpt lat="45.92321" lon="4.6532">
        <ele>302.47</ele>
        <time>2016-01-09T12:13:17Z</time>
      </trkpt>
      <trkpt lat="45.92316" lon="4.6532">
        <ele>302.95</ele>
        <time>2016-01-09T12:13:18Z</time>
      </trkpt>
      <trkpt lat="45.92281" lon="4.65323">
        <ele>301.99</ele>
        <time>2016-01-09T12:13:24Z</time>
      </trkpt>
      <trkpt lat="45.92275" lon="4.65321">
        <ele>301.99</ele>
        <time>2016-01-09T12:13:25Z</time>
      </trkpt>
      <trkpt lat="45.9227" lon="4.65318">
        <ele>301.99</ele>
        <time>2016-01-09T12:13:26Z</time>
      </trkpt>
      <trkpt lat="45.92235" lon="4.65297">
        <ele>300.07</ele>
        <time>2016-01-09T12:13:32Z</time>
      </trkpt>
      <trkpt lat="45.92198" lon="4.6529">
        <ele>299.59</ele>
        <time>2016-01-09T12:13:38Z</time>
      </trkpt>
      <trkpt lat="45.92171" lon="4.65282">
        <ele>299.11</ele>
        <time>2016-01-09T12:13:43Z</time>
      </trkpt>
      <trkpt lat="45.92166" lon="4.6528">
        <ele>299.11</ele>
        <time>2016-01-09T12:13:44Z</time>
      </trkpt>
      <trkpt lat="45.92145" lon="4.65275">
        <ele>299.59</ele>
        <time>2016-01-09T12:13:48Z</time>
      </trkpt>
      <trkpt lat="45.92129" lon="4.6527">
        <ele>300.07</ele>
        <time>2016-01-09T12:13:51Z</time>
      </trkpt>
      <trkpt lat="45.92113" lon="4.65266">
        <ele>300.07</ele>
        <time>2016-01-09T12:13:54Z</time>
      </trkpt>
      <trkpt lat="45.92078" lon="4.65259">
        <ele>300.55</ele>
        <time>2016-01-09T12:14:02Z</time>
      </trkpt>
      <trkpt lat="45.92074" lon="4.65257">
        <ele>300.55</ele>
        <time>2016-01-09T12:14:03Z</time>
      </trkpt>
      <trkpt lat="45.92054" lon="4.65246">
        <ele>301.03</ele>
        <time>2016-01-09T12:14:08Z</time>
      </trkpt>
      <trkpt lat="45.9205" lon="4.65243">
        <ele>300.55</ele>
        <time>2016-01-09T12:14:09Z</time>
      </trkpt>
      <trkpt lat="45.9202" lon="4.65224">
        <ele>301.03</ele>
        <time>2016-01-09T12:14:20Z</time>
      </trkpt>
      <trkpt lat="45.92008" lon="4.65218">
        <ele>301.03</ele>
        <time>2016-01-09T12:14:30Z</time>
      </trkpt>
      <trkpt lat="45.92008" lon="4.65218">
        <ele>301.03</ele>
        <time>2016-01-09T12:14:59Z</time>
      </trkpt>
      <trkpt lat="45.92008" lon="4.65217">
        <ele>301.03</ele>
        <time>2016-01-09T12:15:23Z</time>
      </trkpt>
      <trkpt lat="45.92008" lon="4.65217">
        <ele>301.03</ele>
        <time>2016-01-09T12:15:41Z</time>
      </trkpt>
      <trkpt lat="45.92008" lon="4.65218">
        <ele>296.22</ele>
        <time>2016-01-09T12:15:57Z</time>
      </trkpt>
      <trkpt lat="45.92008" lon="4.65218">
        <ele>301.51</ele>
        <time>2016-01-09T12:15:58Z</time>
      </trkpt>
      <trkpt lat="45.92008" lon="4.65218">
        <ele>300.07</ele>
        <time>2016-01-09T12:16:08Z</time>
      </trkpt>
      <trkpt lat="45.92007" lon="4.65219">
        <ele>301.03</ele>
        <time>2016-01-09T12:16:12Z</time>
      </trkpt>
      <trkpt lat="45.92006" lon="4.6522">
        <ele>301.03</ele>
        <time>2016-01-09T12:16:13Z</time>
      </trkpt>
      <trkpt lat="45.92005" lon="4.65222">
        <ele>301.03</ele>
        <time>2016-01-09T12:16:14Z</time>
      </trkpt>
      <trkpt lat="45.9199" lon="4.65264">
        <ele>299.11</ele>
        <time>2016-01-09T12:16:24Z</time>
      </trkpt>
      <trkpt lat="45.91977" lon="4.65308">
        <ele>296.7</ele>
        <time>2016-01-09T12:16:33Z</time>
      </trkpt>
      <trkpt lat="45.91975" lon="4.65314">
        <ele>297.18</ele>
        <time>2016-01-09T12:16:34Z</time>
      </trkpt>
      <trkpt lat="45.91973" lon="4.6532">
        <ele>296.22</ele>
        <time>2016-01-09T12:16:35Z</time>
      </trkpt>
      <trkpt lat="45.91971" lon="4.65327">
        <ele>295.74</ele>
        <time>2016-01-09T12:16:36Z</time>
      </trkpt>
      <trkpt lat="45.91969" lon="4.65356">
        <ele>293.82</ele>
        <time>2016-01-09T12:16:40Z</time>
      </trkpt>
      <trkpt lat="45.91966" lon="4.65391">
        <ele>290.94</ele>
        <time>2016-01-09T12:16:44Z</time>
      </trkpt>
      <trkpt lat="45.91962" lon="4.6543">
        <ele>289.97</ele>
        <time>2016-01-09T12:16:48Z</time>
      </trkpt>
      <trkpt lat="45.91959" lon="4.65447">
        <ele>289.97</ele>
        <time>2016-01-09T12:16:50Z</time>
      </trkpt>
      <trkpt lat="45.91947" lon="4.65483">
        <ele>291.42</ele>
        <time>2016-01-09T12:16:58Z</time>
      </trkpt>
      <trkpt lat="45.91944" lon="4.65486">
        <ele>291.42</ele>
        <time>2016-01-09T12:17:00Z</time>
      </trkpt>
      <trkpt lat="45.91943" lon="4.6549">
        <ele>290.94</ele>
        <time>2016-01-09T12:17:01Z</time>
      </trkpt>
      <trkpt lat="45.91942" lon="4.65493">
        <ele>290.94</ele>
        <time>2016-01-09T12:17:02Z</time>
      </trkpt>
      <trkpt lat="45.91941" lon="4.65497">
        <ele>291.42</ele>
        <time>2016-01-09T12:17:03Z</time>
      </trkpt>
      <trkpt lat="45.91941" lon="4.655">
        <ele>291.42</ele>
        <time>2016-01-09T12:17:04Z</time>
      </trkpt>
      <trkpt lat="45.9194" lon="4.65502">
        <ele>291.42</ele>
        <time>2016-01-09T12:17:05Z</time>
      </trkpt>
      <trkpt lat="45.91939" lon="4.65505">
        <ele>291.42</ele>
        <time>2016-01-09T12:17:06Z</time>
      </trkpt>
      <trkpt lat="45.91925" lon="4.65532">
        <ele>294.78</ele>
        <time>2016-01-09T12:17:20Z</time>
      </trkpt>
      <trkpt lat="45.91915" lon="4.65543">
        <ele>296.22</ele>
        <time>2016-01-09T12:17:28Z</time>
      </trkpt>
      <trkpt lat="45.91913" lon="4.65543">
        <ele>295.74</ele>
        <time>2016-01-09T12:17:29Z</time>
      </trkpt>
      <trkpt lat="45.91911" lon="4.65544">
        <ele>296.7</ele>
        <time>2016-01-09T12:17:30Z</time>
      </trkpt>
      <trkpt lat="45.9191" lon="4.65544">
        <ele>296.22</ele>
        <time>2016-01-09T12:17:31Z</time>
      </trkpt>
      <trkpt lat="45.91908" lon="4.65546">
        <ele>297.18</ele>
        <time>2016-01-09T12:17:32Z</time>
      </trkpt>
      <trkpt lat="45.91879" lon="4.65551">
        <ele>297.67</ele>
        <time>2016-01-09T12:17:47Z</time>
      </trkpt>
      <trkpt lat="45.91848" lon="4.65557">
        <ele>298.63</ele>
        <time>2016-01-09T12:18:01Z</time>
      </trkpt>
      <trkpt lat="45.91815" lon="4.65564">
        <ele>300.07</ele>
        <time>2016-01-09T12:18:15Z</time>
      </trkpt>
      <trkpt lat="45.91779" lon="4.65568">
        <ele>301.03</ele>
        <time>2016-01-09T12:18:31Z</time>
      </trkpt>
      <trkpt lat="45.91752" lon="4.65589">
        <ele>302.95</ele>
        <time>2016-01-09T12:18:45Z</time>
      </trkpt>
      <trkpt lat="45.91745" lon="4.65616">
        <ele>306.32</ele>
        <time>2016-01-09T12:18:58Z</time>
      </trkpt>
      <trkpt lat="45.91738" lon="4.65645">
        <ele>308.24</ele>
        <time>2016-01-09T12:19:13Z</time>
      </trkpt>
      <trkpt lat="45.91731" lon="4.65676">
        <ele>310.64</ele>
        <time>2016-01-09T12:19:29Z</time>
      </trkpt>
      <trkpt lat="45.91722" lon="4.65703">
        <ele>312.57</ele>
        <time>2016-01-09T12:19:43Z</time>
      </trkpt>
      <trkpt lat="45.91721" lon="4.65709">
        <ele>312.09</ele>
        <time>2016-01-09T12:19:46Z</time>
      </trkpt>
      <trkpt lat="45.9172" lon="4.65711">
        <ele>312.57</ele>
        <time>2016-01-09T12:19:47Z</time>
      </trkpt>
      <trkpt lat="45.91719" lon="4.65713">
        <ele>313.05</ele>
        <time>2016-01-09T12:19:48Z</time>
      </trkpt>
      <trkpt lat="45.91718" lon="4.65715">
        <ele>313.05</ele>
        <time>2016-01-09T12:19:49Z</time>
      </trkpt>
      <trkpt lat="45.91718" lon="4.65716">
        <ele>313.05</ele>
        <time>2016-01-09T12:19:50Z</time>
      </trkpt>
      <trkpt lat="45.91716" lon="4.65718">
        <ele>312.57</ele>
        <time>2016-01-09T12:19:51Z</time>
      </trkpt>
      <trkpt lat="45.91695" lon="4.65753">
        <ele>314.97</ele>
        <time>2016-01-09T12:20:10Z</time>
      </trkpt>
      <trkpt lat="45.91679" lon="4.65779">
        <ele>315.93</ele>
        <time>2016-01-09T12:20:23Z</time>
      </trkpt>
      <trkpt lat="45.91652" lon="4.65822">
        <ele>318.33</ele>
        <time>2016-01-09T12:20:36Z</time>
      </trkpt>
      <trkpt lat="45.9163" lon="4.65877">
        <ele>320.74</ele>
        <time>2016-01-09T12:20:50Z</time>
      </trkpt>
      <trkpt lat="45.91614" lon="4.65921">
        <ele>322.66</ele>
        <time>2016-01-09T12:21:04Z</time>
      </trkpt>
      <trkpt lat="45.91598" lon="4.65949">
        <ele>324.58</ele>
        <time>2016-01-09T12:21:18Z</time>
      </trkpt>
      <trkpt lat="45.91588" lon="4.65965">
        <ele>326.02</ele>
        <time>2016-01-09T12:21:28Z</time>
      </trkpt>
      <trkpt lat="45.91587" lon="4.65967">
        <ele>326.02</ele>
        <time>2016-01-09T12:21:29Z</time>
      </trkpt>
      <trkpt lat="45.91586" lon="4.65969">
        <ele>326.02</ele>
        <time>2016-01-09T12:21:30Z</time>
      </trkpt>
      <trkpt lat="45.91585" lon="4.65971">
        <ele>326.02</ele>
        <time>2016-01-09T12:21:31Z</time>
      </trkpt>
      <trkpt lat="45.91584" lon="4.65973">
        <ele>326.5</ele>
        <time>2016-01-09T12:21:32Z</time>
      </trkpt>
      <trkpt lat="45.91583" lon="4.65974">
        <ele>326.99</ele>
        <time>2016-01-09T12:21:33Z</time>
      </trkpt>
      <trkpt lat="45.91582" lon="4.65976">
        <ele>326.5</ele>
        <time>2016-01-09T12:21:34Z</time>
      </trkpt>
      <trkpt lat="45.91581" lon="4.65978">
        <ele>326.99</ele>
        <time>2016-01-09T12:21:35Z</time>
      </trkpt>
      <trkpt lat="45.9158" lon="4.65979">
        <ele>327.47</ele>
        <time>2016-01-09T12:21:36Z</time>
      </trkpt>
      <trkpt lat="45.91564" lon="4.66001">
        <ele>329.39</ele>
        <time>2016-01-09T12:21:51Z</time>
      </trkpt>
      <trkpt lat="45.9156" lon="4.66008">
        <ele>329.87</ele>
        <time>2016-01-09T12:21:56Z</time>
      </trkpt>
      <trkpt lat="45.9156" lon="4.66009">
        <ele>330.35</ele>
        <time>2016-01-09T12:21:57Z</time>
      </trkpt>
      <trkpt lat="45.91559" lon="4.66011">
        <ele>329.87</ele>
        <time>2016-01-09T12:21:58Z</time>
      </trkpt>
      <trkpt lat="45.91558" lon="4.66012">
        <ele>330.35</ele>
        <time>2016-01-09T12:21:59Z</time>
      </trkpt>
      <trkpt lat="45.91557" lon="4.66013">
        <ele>330.35</ele>
        <time>2016-01-09T12:22:00Z</time>
      </trkpt>
      <trkpt lat="45.91539" lon="4.66038">
        <ele>332.75</ele>
        <time>2016-01-09T12:22:17Z</time>
      </trkpt>
      <trkpt lat="45.91529" lon="4.66057">
        <ele>334.68</ele>
        <time>2016-01-09T12:22:29Z</time>
      </trkpt>
      <trkpt lat="45.91529" lon="4.66086">
        <ele>337.56</ele>
        <time>2016-01-09T12:22:44Z</time>
      </trkpt>
      <trkpt lat="45.91529" lon="4.66088">
        <ele>337.08</ele>
        <time>2016-01-09T12:22:45Z</time>
      </trkpt>
      <trkpt lat="45.91529" lon="4.66089">
        <ele>337.56</ele>
        <time>2016-01-09T12:22:46Z</time>
      </trkpt>
      <trkpt lat="45.91535" lon="4.66116">
        <ele>339.48</ele>
        <time>2016-01-09T12:23:01Z</time>
      </trkpt>
      <trkpt lat="45.9154" lon="4.66149">
        <ele>341.89</ele>
        <time>2016-01-09T12:23:18Z</time>
      </trkpt>
      <trkpt lat="45.91539" lon="4.66152">
        <ele>342.37</ele>
        <time>2016-01-09T12:23:20Z</time>
      </trkpt>
      <trkpt lat="45.91521" lon="4.66157">
        <ele>344.29</ele>
        <time>2016-01-09T12:23:34Z</time>
      </trkpt>
      <trkpt lat="45.91509" lon="4.66169">
        <ele>346.21</ele>
        <time>2016-01-09T12:23:47Z</time>
      </trkpt>
      <trkpt lat="45.91509" lon="4.66182">
        <ele>347.17</ele>
        <time>2016-01-09T12:23:55Z</time>
      </trkpt>
      <trkpt lat="45.91508" lon="4.66188">
        <ele>347.65</ele>
        <time>2016-01-09T12:23:59Z</time>
      </trkpt>
      <trkpt lat="45.91512" lon="4.66216">
        <ele>349.1</ele>
        <time>2016-01-09T12:24:14Z</time>
      </trkpt>
      <trkpt lat="45.91514" lon="4.66224">
        <ele>349.1</ele>
        <time>2016-01-09T12:24:18Z</time>
      </trkpt>
      <trkpt lat="45.91515" lon="4.66234">
        <ele>349.58</ele>
        <time>2016-01-09T12:24:29Z</time>
      </trkpt>
      <trkpt lat="45.91511" lon="4.66239">
        <ele>351.02</ele>
        <time>2016-01-09T12:24:42Z</time>
      </trkpt>
      <trkpt lat="45.9151" lon="4.66238">
        <ele>350.54</ele>
        <time>2016-01-09T12:25:01Z</time>
      </trkpt>
      <trkpt lat="45.9151" lon="4.66238">
        <ele>350.54</ele>
        <time>2016-01-09T12:25:46Z</time>
      </trkpt>
      <trkpt lat="45.9151" lon="4.66238">
        <ele>350.06</ele>
        <time>2016-01-09T12:26:30Z</time>
      </trkpt>
      <trkpt lat="45.9151" lon="4.66238">
        <ele>350.54</ele>
        <time>2016-01-09T12:27:11Z</time>
      </trkpt>
      <trkpt lat="45.9151" lon="4.66238">
        <ele>350.06</ele>
        <time>2016-01-09T12:27:50Z</time>
      </trkpt>
      <trkpt lat="45.9151" lon="4.66238">
        <ele>350.54</ele>
        <time>2016-01-09T12:28:34Z</time>
      </trkpt>
      <trkpt lat="45.9151" lon="4.66239">
        <ele>350.06</ele>
        <time>2016-01-09T12:29:19Z</time>
      </trkpt>
      <trkpt lat="45.9151" lon="4.66239">
        <ele>350.06</ele>
        <time>2016-01-09T12:30:06Z</time>
      </trkpt>
      <trkpt lat="45.9151" lon="4.66239">
        <ele>350.06</ele>
        <time>2016-01-09T12:30:54Z</time>
      </trkpt>
      <trkpt lat="45.9151" lon="4.66242">
        <ele>350.06</ele>
        <time>2016-01-09T12:31:09Z</time>
      </trkpt>
      <trkpt lat="45.91509" lon="4.66243">
        <ele>350.54</ele>
        <time>2016-01-09T12:31:27Z</time>
      </trkpt>
      <trkpt lat="45.91509" lon="4.66243">
        <ele>350.54</ele>
        <time>2016-01-09T12:31:28Z</time>
      </trkpt>
      <trkpt lat="45.91489" lon="4.66239">
        <ele>351.5</ele>
        <time>2016-01-09T12:31:42Z</time>
      </trkpt>
      <trkpt lat="45.91478" lon="4.66235">
        <ele>352.46</ele>
        <time>2016-01-09T12:31:49Z</time>
      </trkpt>
      <trkpt lat="45.9147" lon="4.66256">
        <ele>353.9</ele>
        <time>2016-01-09T12:32:01Z</time>
      </trkpt>
      <trkpt lat="45.91469" lon="4.66258">
        <ele>353.42</ele>
        <time>2016-01-09T12:32:02Z</time>
      </trkpt>
      <trkpt lat="45.91465" lon="4.6629">
        <ele>354.86</ele>
        <time>2016-01-09T12:32:16Z</time>
      </trkpt>
      <trkpt lat="45.91461" lon="4.66322">
        <ele>355.34</ele>
        <time>2016-01-09T12:32:30Z</time>
      </trkpt>
      <trkpt lat="45.9146" lon="4.66335">
        <ele>356.31</ele>
        <time>2016-01-09T12:32:35Z</time>
      </trkpt>
      <trkpt lat="45.91455" lon="4.66363">
        <ele>357.75</ele>
        <time>2016-01-09T12:32:47Z</time>
      </trkpt>
      <trkpt lat="45.91447" lon="4.66362">
        <ele>357.75</ele>
        <time>2016-01-09T12:32:53Z</time>
      </trkpt>
      <trkpt lat="45.91419" lon="4.66356">
        <ele>358.71</ele>
        <time>2016-01-09T12:33:09Z</time>
      </trkpt>
      <trkpt lat="45.91383" lon="4.66346">
        <ele>360.15</ele>
        <time>2016-01-09T12:33:24Z</time>
      </trkpt>
      <trkpt lat="45.91358" lon="4.66347">
        <ele>361.59</ele>
        <time>2016-01-09T12:33:34Z</time>
      </trkpt>
      <trkpt lat="45.91348" lon="4.66387">
        <ele>363.52</ele>
        <time>2016-01-09T12:33:49Z</time>
      </trkpt>
      <trkpt lat="45.9134" lon="4.66409">
        <ele>364.48</ele>
        <time>2016-01-09T12:33:59Z</time>
      </trkpt>
      <trkpt lat="45.91336" lon="4.66423">
        <ele>364.96</ele>
        <time>2016-01-09T12:34:05Z</time>
      </trkpt>
      <trkpt lat="45.91329" lon="4.66446">
        <ele>365.44</ele>
        <time>2016-01-09T12:34:15Z</time>
      </trkpt>
      <trkpt lat="45.9132" lon="4.66468">
        <ele>365.92</ele>
        <time>2016-01-09T12:34:25Z</time>
      </trkpt>
      <trkpt lat="45.91317" lon="4.66506">
        <ele>365.92</ele>
        <time>2016-01-09T12:34:39Z</time>
      </trkpt>
      <trkpt lat="45.91319" lon="4.6654">
        <ele>367.36</ele>
        <time>2016-01-09T12:34:51Z</time>
      </trkpt>
      <trkpt lat="45.91321" lon="4.66579">
        <ele>367.36</ele>
        <time>2016-01-09T12:35:06Z</time>
      </trkpt>
      <trkpt lat="45.91321" lon="4.66611">
        <ele>367.36</ele>
        <time>2016-01-09T12:35:18Z</time>
      </trkpt>
      <trkpt lat="45.91321" lon="4.66661">
        <ele>367.84</ele>
        <time>2016-01-09T12:35:34Z</time>
      </trkpt>
      <trkpt lat="45.91319" lon="4.66731">
        <ele>369.28</ele>
        <time>2016-01-09T12:35:53Z</time>
      </trkpt>
      <trkpt lat="45.91311" lon="4.66779">
        <ele>370.73</ele>
        <time>2016-01-09T12:36:07Z</time>
      </trkpt>
      <trkpt lat="45.91306" lon="4.6682">
        <ele>372.17</ele>
        <time>2016-01-09T12:36:20Z</time>
      </trkpt>
      <trkpt lat="45.9128" lon="4.66825">
        <ele>372.65</ele>
        <time>2016-01-09T12:36:31Z</time>
      </trkpt>
      <trkpt lat="45.91244" lon="4.66822">
        <ele>374.57</ele>
        <time>2016-01-09T12:36:47Z</time>
      </trkpt>
      <trkpt lat="45.91206" lon="4.6682">
        <ele>376.49</ele>
        <time>2016-01-09T12:37:05Z</time>
      </trkpt>
      <trkpt lat="45.9118" lon="4.6682">
        <ele>377.94</ele>
        <time>2016-01-09T12:37:20Z</time>
      </trkpt>
      <trkpt lat="45.91152" lon="4.66838">
        <ele>380.82</ele>
        <time>2016-01-09T12:37:35Z</time>
      </trkpt>
      <trkpt lat="45.91133" lon="4.66848">
        <ele>381.3</ele>
        <time>2016-01-09T12:37:46Z</time>
      </trkpt>
      <trkpt lat="45.91108" lon="4.66859">
        <ele>383.22</ele>
        <time>2016-01-09T12:37:59Z</time>
      </trkpt>
      <trkpt lat="45.91089" lon="4.66871">
        <ele>384.66</ele>
        <time>2016-01-09T12:38:11Z</time>
      </trkpt>
      <trkpt lat="45.91064" lon="4.6688">
        <ele>385.63</ele>
        <time>2016-01-09T12:38:24Z</time>
      </trkpt>
      <trkpt lat="45.9104" lon="4.66891">
        <ele>387.07</ele>
        <time>2016-01-09T12:38:36Z</time>
      </trkpt>
      <trkpt lat="45.91006" lon="4.66901">
        <ele>388.99</ele>
        <time>2016-01-09T12:38:52Z</time>
      </trkpt>
      <trkpt lat="45.90974" lon="4.66898">
        <ele>391.87</ele>
        <time>2016-01-09T12:39:08Z</time>
      </trkpt>
      <trkpt lat="45.90944" lon="4.66895">
        <ele>394.28</ele>
        <time>2016-01-09T12:39:24Z</time>
      </trkpt>
      <trkpt lat="45.90938" lon="4.66894">
        <ele>394.28</ele>
        <time>2016-01-09T12:39:27Z</time>
      </trkpt>
      <trkpt lat="45.90931" lon="4.66897">
        <ele>394.76</ele>
        <time>2016-01-09T12:39:40Z</time>
      </trkpt>
      <trkpt lat="45.90931" lon="4.66897">
        <ele>395.24</ele>
        <time>2016-01-09T12:40:04Z</time>
      </trkpt>
      <trkpt lat="45.90931" lon="4.66897">
        <ele>395.24</ele>
        <time>2016-01-09T12:40:31Z</time>
      </trkpt>
      <trkpt lat="45.90931" lon="4.66898">
        <ele>395.24</ele>
        <time>2016-01-09T12:41:04Z</time>
      </trkpt>
      <trkpt lat="45.90931" lon="4.66897">
        <ele>394.28</ele>
        <time>2016-01-09T12:41:11Z</time>
      </trkpt>
      <trkpt lat="45.9092" lon="4.66892">
        <ele>395.24</ele>
        <time>2016-01-09T12:41:18Z</time>
      </trkpt>
      <trkpt lat="45.90897" lon="4.66898">
        <ele>396.68</ele>
        <time>2016-01-09T12:41:31Z</time>
      </trkpt>
      <trkpt lat="45.90886" lon="4.66901">
        <ele>398.12</ele>
        <time>2016-01-09T12:41:37Z</time>
      </trkpt>
      <trkpt lat="45.90859" lon="4.66911">
        <ele>399.57</ele>
        <time>2016-01-09T12:41:52Z</time>
      </trkpt>
      <trkpt lat="45.90829" lon="4.66914">
        <ele>401.97</ele>
        <time>2016-01-09T12:42:08Z</time>
      </trkpt>
      <trkpt lat="45.90811" lon="4.66916">
        <ele>402.45</ele>
        <time>2016-01-09T12:42:17Z</time>
      </trkpt>
      <trkpt lat="45.90789" lon="4.66914">
        <ele>402.45</ele>
        <time>2016-01-09T12:42:28Z</time>
      </trkpt>
      <trkpt lat="45.9076" lon="4.66921">
        <ele>403.41</ele>
        <time>2016-01-09T12:42:41Z</time>
      </trkpt>
      <trkpt lat="45.90738" lon="4.66928">
        <ele>404.37</ele>
        <time>2016-01-09T12:42:52Z</time>
      </trkpt>
      <trkpt lat="45.90721" lon="4.66937">
        <ele>404.85</ele>
        <time>2016-01-09T12:43:01Z</time>
      </trkpt>
      <trkpt lat="45.90694" lon="4.66949">
        <ele>405.81</ele>
        <time>2016-01-09T12:43:13Z</time>
      </trkpt>
      <trkpt lat="45.90662" lon="4.66956">
        <ele>406.77</ele>
        <time>2016-01-09T12:43:26Z</time>
      </trkpt>
      <trkpt lat="45.90655" lon="4.6696">
        <ele>407.74</ele>
        <time>2016-01-09T12:43:29Z</time>
      </trkpt>
      <trkpt lat="45.90646" lon="4.66969">
        <ele>407.74</ele>
        <time>2016-01-09T12:43:34Z</time>
      </trkpt>
      <trkpt lat="45.90617" lon="4.66994">
        <ele>409.18</ele>
        <time>2016-01-09T12:43:48Z</time>
      </trkpt>
      <trkpt lat="45.90605" lon="4.66998">
        <ele>409.66</ele>
        <time>2016-01-09T12:43:54Z</time>
      </trkpt>
      <trkpt lat="45.90572" lon="4.67017">
        <ele>410.14</ele>
        <time>2016-01-09T12:44:07Z</time>
      </trkpt>
      <trkpt lat="45.90544" lon="4.67036">
        <ele>411.1</ele>
        <time>2016-01-09T12:44:19Z</time>
      </trkpt>
      <trkpt lat="45.9052" lon="4.67099">
        <ele>411.1</ele>
        <time>2016-01-09T12:44:32Z</time>
      </trkpt>
      <trkpt lat="45.90515" lon="4.67116">
        <ele>409.66</ele>
        <time>2016-01-09T12:44:35Z</time>
      </trkpt>
      <trkpt lat="45.90513" lon="4.67121">
        <ele>409.66</ele>
        <time>2016-01-09T12:44:36Z</time>
      </trkpt>
      <trkpt lat="45.90512" lon="4.67127">
        <ele>410.14</ele>
        <time>2016-01-09T12:44:37Z</time>
      </trkpt>
      <trkpt lat="45.90509" lon="4.67139">
        <ele>409.66</ele>
        <time>2016-01-09T12:44:39Z</time>
      </trkpt>
      <trkpt lat="45.90507" lon="4.67145">
        <ele>410.14</ele>
        <time>2016-01-09T12:44:40Z</time>
      </trkpt>
      <trkpt lat="45.90499" lon="4.67169">
        <ele>408.7</ele>
        <time>2016-01-09T12:44:44Z</time>
      </trkpt>
      <trkpt lat="45.90497" lon="4.67175">
        <ele>409.18</ele>
        <time>2016-01-09T12:44:45Z</time>
      </trkpt>
      <trkpt lat="45.90495" lon="4.6718">
        <ele>409.18</ele>
        <time>2016-01-09T12:44:46Z</time>
      </trkpt>
      <trkpt lat="45.90493" lon="4.67186">
        <ele>408.7</ele>
        <time>2016-01-09T12:44:47Z</time>
      </trkpt>
      <trkpt lat="45.90492" lon="4.67191">
        <ele>408.7</ele>
        <time>2016-01-09T12:44:48Z</time>
      </trkpt>
      <trkpt lat="45.9049" lon="4.67197">
        <ele>408.22</ele>
        <time>2016-01-09T12:44:49Z</time>
      </trkpt>
      <trkpt lat="45.90488" lon="4.67203">
        <ele>408.7</ele>
        <time>2016-01-09T12:44:50Z</time>
      </trkpt>
      <trkpt lat="45.90486" lon="4.67209">
        <ele>408.7</ele>
        <time>2016-01-09T12:44:51Z</time>
      </trkpt>
      <trkpt lat="45.90467" lon="4.67277">
        <ele>406.29</ele>
        <time>2016-01-09T12:45:00Z</time>
      </trkpt>
      <trkpt lat="45.90445" lon="4.67353">
        <ele>405.33</ele>
        <time>2016-01-09T12:45:10Z</time>
      </trkpt>
      <trkpt lat="45.90443" lon="4.67385">
        <ele>405.81</ele>
        <time>2016-01-09T12:45:14Z</time>
      </trkpt>
      <trkpt lat="45.90442" lon="4.67393">
        <ele>405.33</ele>
        <time>2016-01-09T12:45:15Z</time>
      </trkpt>
      <trkpt lat="45.90441" lon="4.674">
        <ele>404.85</ele>
        <time>2016-01-09T12:45:16Z</time>
      </trkpt>
      <trkpt lat="45.9044" lon="4.67408">
        <ele>404.85</ele>
        <time>2016-01-09T12:45:17Z</time>
      </trkpt>
      <trkpt lat="45.90438" lon="4.67416">
        <ele>404.37</ele>
        <time>2016-01-09T12:45:18Z</time>
      </trkpt>
      <trkpt lat="45.90436" lon="4.67423">
        <ele>403.89</ele>
        <time>2016-01-09T12:45:19Z</time>
      </trkpt>
      <trkpt lat="45.90433" lon="4.67431">
        <ele>404.37</ele>
        <time>2016-01-09T12:45:20Z</time>
      </trkpt>
      <trkpt lat="45.90429" lon="4.67438">
        <ele>403.41</ele>
        <time>2016-01-09T12:45:21Z</time>
      </trkpt>
      <trkpt lat="45.90424" lon="4.67445">
        <ele>402.93</ele>
        <time>2016-01-09T12:45:22Z</time>
      </trkpt>
      <trkpt lat="45.9042" lon="4.67452">
        <ele>402.93</ele>
        <time>2016-01-09T12:45:23Z</time>
      </trkpt>
      <trkpt lat="45.90382" lon="4.67504">
        <ele>400.05</ele>
        <time>2016-01-09T12:45:30Z</time>
      </trkpt>
      <trkpt lat="45.90344" lon="4.67547">
        <ele>396.2</ele>
        <time>2016-01-09T12:45:35Z</time>
      </trkpt>
      <trkpt lat="45.90318" lon="4.67574">
        <ele>392.36</ele>
        <time>2016-01-09T12:45:38Z</time>
      </trkpt>
      <trkpt lat="45.90289" lon="4.67603">
        <ele>388.51</ele>
        <time>2016-01-09T12:45:41Z</time>
      </trkpt>
      <trkpt lat="45.9026" lon="4.67625">
        <ele>384.66</ele>
        <time>2016-01-09T12:45:44Z</time>
      </trkpt>
      <trkpt lat="45.90238" lon="4.67639">
        <ele>380.82</ele>
        <time>2016-01-09T12:45:47Z</time>
      </trkpt>
      <trkpt lat="45.90223" lon="4.67647">
        <ele>377.45</ele>
        <time>2016-01-09T12:45:51Z</time>
      </trkpt>
      <trkpt lat="45.90222" lon="4.67647">
        <ele>376.97</ele>
        <time>2016-01-09T12:46:01Z</time>
      </trkpt>
      <trkpt lat="45.90222" lon="4.67647">
        <ele>377.45</ele>
        <time>2016-01-09T12:46:25Z</time>
      </trkpt>
      <trkpt lat="45.90222" lon="4.67647">
        <ele>377.45</ele>
        <time>2016-01-09T12:46:59Z</time>
      </trkpt>
      <trkpt lat="45.90219" lon="4.6765">
        <ele>377.45</ele>
        <time>2016-01-09T12:47:06Z</time>
      </trkpt>
      <trkpt lat="45.90218" lon="4.67651">
        <ele>376.97</ele>
        <time>2016-01-09T12:47:07Z</time>
      </trkpt>
      <trkpt lat="45.90216" lon="4.67652">
        <ele>377.45</ele>
        <time>2016-01-09T12:47:08Z</time>
      </trkpt>
      <trkpt lat="45.90198" lon="4.67661">
        <ele>375.53</ele>
        <time>2016-01-09T12:47:13Z</time>
      </trkpt>
      <trkpt lat="45.90175" lon="4.67671">
        <ele>373.61</ele>
        <time>2016-01-09T12:47:17Z</time>
      </trkpt>
      <trkpt lat="45.90157" lon="4.6768">
        <ele>370.24</ele>
        <time>2016-01-09T12:47:20Z</time>
      </trkpt>
      <trkpt lat="45.90133" lon="4.67692">
        <ele>366.88</ele>
        <time>2016-01-09T12:47:24Z</time>
      </trkpt>
      <trkpt lat="45.9012" lon="4.67697">
        <ele>365.44</ele>
        <time>2016-01-09T12:47:26Z</time>
      </trkpt>
      <trkpt lat="45.90101" lon="4.67705">
        <ele>363.04</ele>
        <time>2016-01-09T12:47:29Z</time>
      </trkpt>
      <trkpt lat="45.90089" lon="4.67712">
        <ele>360.15</ele>
        <time>2016-01-09T12:47:31Z</time>
      </trkpt>
      <trkpt lat="45.90076" lon="4.67719">
        <ele>358.71</ele>
        <time>2016-01-09T12:47:33Z</time>
      </trkpt>
      <trkpt lat="45.9007" lon="4.67724">
        <ele>357.75</ele>
        <time>2016-01-09T12:47:34Z</time>
      </trkpt>
      <trkpt lat="45.90045" lon="4.67745">
        <ele>354.38</ele>
        <time>2016-01-09T12:47:38Z</time>
      </trkpt>
      <trkpt lat="45.9004" lon="4.67751">
        <ele>353.9</ele>
        <time>2016-01-09T12:47:39Z</time>
      </trkpt>
      <trkpt lat="45.90012" lon="4.67788">
        <ele>350.54</ele>
        <time>2016-01-09T12:47:44Z</time>
      </trkpt>
      <trkpt lat="45.89986" lon="4.67827">
        <ele>347.17</ele>
        <time>2016-01-09T12:47:49Z</time>
      </trkpt>
      <trkpt lat="45.89957" lon="4.67871">
        <ele>344.77</ele>
        <time>2016-01-09T12:47:54Z</time>
      </trkpt>
      <trkpt lat="45.89941" lon="4.67895">
        <ele>341.41</ele>
        <time>2016-01-09T12:47:57Z</time>
      </trkpt>
      <trkpt lat="45.89914" lon="4.67931">
        <ele>338.04</ele>
        <time>2016-01-09T12:48:02Z</time>
      </trkpt>
      <trkpt lat="45.8991" lon="4.67936">
        <ele>338.04</ele>
        <time>2016-01-09T12:48:03Z</time>
      </trkpt>
      <trkpt lat="45.89907" lon="4.6794">
        <ele>337.56</ele>
        <time>2016-01-09T12:48:04Z</time>
      </trkpt>
      <trkpt lat="45.89902" lon="4.67943">
        <ele>337.08</ele>
        <time>2016-01-09T12:48:05Z</time>
      </trkpt>
      <trkpt lat="45.89887" lon="4.6795">
        <ele>335.64</ele>
        <time>2016-01-09T12:48:08Z</time>
      </trkpt>
      <trkpt lat="45.89882" lon="4.67952">
        <ele>335.64</ele>
        <time>2016-01-09T12:48:09Z</time>
      </trkpt>
      <trkpt lat="45.89878" lon="4.67954">
        <ele>334.68</ele>
        <time>2016-01-09T12:48:10Z</time>
      </trkpt>
      <trkpt lat="45.89874" lon="4.67957">
        <ele>334.68</ele>
        <time>2016-01-09T12:48:11Z</time>
      </trkpt>
      <trkpt lat="45.89872" lon="4.67959">
        <ele>334.2</ele>
        <time>2016-01-09T12:48:12Z</time>
      </trkpt>
      <trkpt lat="45.8987" lon="4.67962">
        <ele>333.71</ele>
        <time>2016-01-09T12:48:13Z</time>
      </trkpt>
      <trkpt lat="45.89869" lon="4.67966">
        <ele>333.23</ele>
        <time>2016-01-09T12:48:14Z</time>
      </trkpt>
      <trkpt lat="45.89867" lon="4.67969">
        <ele>334.2</ele>
        <time>2016-01-09T12:48:15Z</time>
      </trkpt>
      <trkpt lat="45.89865" lon="4.67973">
        <ele>333.23</ele>
        <time>2016-01-09T12:48:16Z</time>
      </trkpt>
      <trkpt lat="45.89863" lon="4.67978">
        <ele>332.75</ele>
        <time>2016-01-09T12:48:17Z</time>
      </trkpt>
      <trkpt lat="45.8986" lon="4.67983">
        <ele>332.27</ele>
        <time>2016-01-09T12:48:18Z</time>
      </trkpt>
      <trkpt lat="45.89855" lon="4.67993">
        <ele>330.83</ele>
        <time>2016-01-09T12:48:20Z</time>
      </trkpt>
      <trkpt lat="45.89845" lon="4.68018">
        <ele>329.39</ele>
        <time>2016-01-09T12:48:25Z</time>
      </trkpt>
      <trkpt lat="45.89842" lon="4.68024">
        <ele>328.91</ele>
        <time>2016-01-09T12:48:26Z</time>
      </trkpt>
      <trkpt lat="45.89835" lon="4.68042">
        <ele>328.43</ele>
        <time>2016-01-09T12:48:29Z</time>
      </trkpt>
      <trkpt lat="45.89832" lon="4.68047">
        <ele>327.95</ele>
        <time>2016-01-09T12:48:30Z</time>
      </trkpt>
      <trkpt lat="45.89829" lon="4.68052">
        <ele>327.47</ele>
        <time>2016-01-09T12:48:31Z</time>
      </trkpt>
      <trkpt lat="45.89822" lon="4.68064">
        <ele>326.5</ele>
        <time>2016-01-09T12:48:33Z</time>
      </trkpt>
      <trkpt lat="45.8979" lon="4.68113">
        <ele>322.18</ele>
        <time>2016-01-09T12:48:39Z</time>
      </trkpt>
      <trkpt lat="45.89776" lon="4.68134">
        <ele>320.26</ele>
        <time>2016-01-09T12:48:41Z</time>
      </trkpt>
      <trkpt lat="45.89771" lon="4.68146">
        <ele>318.81</ele>
        <time>2016-01-09T12:48:42Z</time>
      </trkpt>
      <trkpt lat="45.89766" lon="4.68158">
        <ele>318.81</ele>
        <time>2016-01-09T12:48:43Z</time>
      </trkpt>
      <trkpt lat="45.89762" lon="4.68166">
        <ele>316.89</ele>
        <time>2016-01-09T12:48:44Z</time>
      </trkpt>
      <trkpt lat="45.89755" lon="4.68173">
        <ele>315.93</ele>
        <time>2016-01-09T12:48:45Z</time>
      </trkpt>
      <trkpt lat="45.89748" lon="4.68178">
        <ele>315.45</ele>
        <time>2016-01-09T12:48:46Z</time>
      </trkpt>
      <trkpt lat="45.89741" lon="4.68182">
        <ele>314.97</ele>
        <time>2016-01-09T12:48:47Z</time>
      </trkpt>
      <trkpt lat="45.89708" lon="4.68201">
        <ele>312.09</ele>
        <time>2016-01-09T12:48:51Z</time>
      </trkpt>
      <trkpt lat="45.89639" lon="4.68238">
        <ele>309.68</ele>
        <time>2016-01-09T12:49:00Z</time>
      </trkpt>
      <trkpt lat="45.89633" lon="4.68246">
        <ele>310.16</ele>
        <time>2016-01-09T12:49:01Z</time>
      </trkpt>
      <trkpt lat="45.89621" lon="4.68265">
        <ele>309.2</ele>
        <time>2016-01-09T12:49:03Z</time>
      </trkpt>
      <trkpt lat="45.89609" lon="4.68285">
        <ele>307.76</ele>
        <time>2016-01-09T12:49:05Z</time>
      </trkpt>
      <trkpt lat="45.89602" lon="4.68294">
        <ele>308.24</ele>
        <time>2016-01-09T12:49:06Z</time>
      </trkpt>
      <trkpt lat="45.89594" lon="4.683">
        <ele>307.28</ele>
        <time>2016-01-09T12:49:07Z</time>
      </trkpt>
      <trkpt lat="45.89586" lon="4.68306">
        <ele>306.8</ele>
        <time>2016-01-09T12:49:08Z</time>
      </trkpt>
      <trkpt lat="45.89577" lon="4.68311">
        <ele>305.84</ele>
        <time>2016-01-09T12:49:09Z</time>
      </trkpt>
      <trkpt lat="45.89568" lon="4.68315">
        <ele>305.84</ele>
        <time>2016-01-09T12:49:10Z</time>
      </trkpt>
      <trkpt lat="45.89559" lon="4.68318">
        <ele>304.88</ele>
        <time>2016-01-09T12:49:11Z</time>
      </trkpt>
      <trkpt lat="45.8947" lon="4.68353">
        <ele>301.99</ele>
        <time>2016-01-09T12:49:22Z</time>
      </trkpt>
      <trkpt lat="45.89463" lon="4.6836">
        <ele>301.99</ele>
        <time>2016-01-09T12:49:23Z</time>
      </trkpt>
      <trkpt lat="45.89458" lon="4.68369">
        <ele>301.51</ele>
        <time>2016-01-09T12:49:24Z</time>
      </trkpt>
      <trkpt lat="45.89454" lon="4.6838">
        <ele>301.51</ele>
        <time>2016-01-09T12:49:25Z</time>
      </trkpt>
      <trkpt lat="45.89452" lon="4.68392">
        <ele>301.51</ele>
        <time>2016-01-09T12:49:26Z</time>
      </trkpt>
      <trkpt lat="45.89445" lon="4.68438">
        <ele>300.55</ele>
        <time>2016-01-09T12:49:30Z</time>
      </trkpt>
      <trkpt lat="45.89445" lon="4.6845">
        <ele>300.55</ele>
        <time>2016-01-09T12:49:31Z</time>
      </trkpt>
      <trkpt lat="45.89447" lon="4.68462">
        <ele>300.55</ele>
        <time>2016-01-09T12:49:32Z</time>
      </trkpt>
      <trkpt lat="45.89455" lon="4.685">
        <ele>298.15</ele>
        <time>2016-01-09T12:49:35Z</time>
      </trkpt>
      <trkpt lat="45.89464" lon="4.68554">
        <ele>295.74</ele>
        <time>2016-01-09T12:49:39Z</time>
      </trkpt>
      <trkpt lat="45.89469" lon="4.68582">
        <ele>293.82</ele>
        <time>2016-01-09T12:49:41Z</time>
      </trkpt>
      <trkpt lat="45.89473" lon="4.68596">
        <ele>293.34</ele>
        <time>2016-01-09T12:49:42Z</time>
      </trkpt>
      <trkpt lat="45.89477" lon="4.68609">
        <ele>293.34</ele>
        <time>2016-01-09T12:49:43Z</time>
      </trkpt>
      <trkpt lat="45.8948" lon="4.68622">
        <ele>292.86</ele>
        <time>2016-01-09T12:49:44Z</time>
      </trkpt>
      <trkpt lat="45.89481" lon="4.68634">
        <ele>291.9</ele>
        <time>2016-01-09T12:49:45Z</time>
      </trkpt>
      <trkpt lat="45.8948" lon="4.68646">
        <ele>291.9</ele>
        <time>2016-01-09T12:49:46Z</time>
      </trkpt>
      <trkpt lat="45.89478" lon="4.68656">
        <ele>291.42</ele>
        <time>2016-01-09T12:49:47Z</time>
      </trkpt>
      <trkpt lat="45.89474" lon="4.68665">
        <ele>290.94</ele>
        <time>2016-01-09T12:49:48Z</time>
      </trkpt>
      <trkpt lat="45.89469" lon="4.68673">
        <ele>290.94</ele>
        <time>2016-01-09T12:49:49Z</time>
      </trkpt>
      <trkpt lat="45.89465" lon="4.68681">
        <ele>289.97</ele>
        <time>2016-01-09T12:49:50Z</time>
      </trkpt>
      <trkpt lat="45.89457" lon="4.68694">
        <ele>289.01</ele>
        <time>2016-01-09T12:49:52Z</time>
      </trkpt>
      <trkpt lat="45.89453" lon="4.68698">
        <ele>288.53</ele>
        <time>2016-01-09T12:49:53Z</time>
      </trkpt>
      <trkpt lat="45.8945" lon="4.68699">
        <ele>288.53</ele>
        <time>2016-01-09T12:49:54Z</time>
      </trkpt>
      <trkpt lat="45.89443" lon="4.68698">
        <ele>289.01</ele>
        <time>2016-01-09T12:49:56Z</time>
      </trkpt>
      <trkpt lat="45.89441" lon="4.68697">
        <ele>289.01</ele>
        <time>2016-01-09T12:49:57Z</time>
      </trkpt>
      <trkpt lat="45.8944" lon="4.68697">
        <ele>288.53</ele>
        <time>2016-01-09T12:50:06Z</time>
      </trkpt>
      <trkpt lat="45.8944" lon="4.68697">
        <ele>289.01</ele>
        <time>2016-01-09T12:50:19Z</time>
      </trkpt>
      <trkpt lat="45.89439" lon="4.68697">
        <ele>289.49</ele>
        <time>2016-01-09T12:50:20Z</time>
      </trkpt>
      <trkpt lat="45.89416" lon="4.687">
        <ele>288.53</ele>
        <time>2016-01-09T12:50:34Z</time>
      </trkpt>
      <trkpt lat="45.89412" lon="4.68702">
        <ele>287.09</ele>
        <time>2016-01-09T12:50:36Z</time>
      </trkpt>
      <trkpt lat="45.8941" lon="4.68702">
        <ele>286.13</ele>
        <time>2016-01-09T12:50:37Z</time>
      </trkpt>
      <trkpt lat="45.89409" lon="4.68703">
        <ele>285.65</ele>
        <time>2016-01-09T12:50:38Z</time>
      </trkpt>
      <trkpt lat="45.89407" lon="4.68704">
        <ele>285.17</ele>
        <time>2016-01-09T12:50:39Z</time>
      </trkpt>
      <trkpt lat="45.89405" lon="4.68705">
        <ele>283.73</ele>
        <time>2016-01-09T12:50:40Z</time>
      </trkpt>
      <trkpt lat="45.89394" lon="4.68711">
        <ele>279.88</ele>
        <time>2016-01-09T12:50:45Z</time>
      </trkpt>
      <trkpt lat="45.89378" lon="4.68716">
        <ele>276.52</ele>
        <time>2016-01-09T12:50:50Z</time>
      </trkpt>
      <trkpt lat="45.89374" lon="4.68716">
        <ele>275.56</ele>
        <time>2016-01-09T12:50:52Z</time>
      </trkpt>
      <trkpt lat="45.89352" lon="4.68722">
        <ele>271.71</ele>
        <time>2016-01-09T12:50:58Z</time>
      </trkpt>
      <trkpt lat="45.89347" lon="4.68724">
        <ele>271.71</ele>
        <time>2016-01-09T12:50:59Z</time>
      </trkpt>
      <trkpt lat="45.89324" lon="4.68733">
        <ele>270.75</ele>
        <time>2016-01-09T12:51:03Z</time>
      </trkpt>
      <trkpt lat="45.89319" lon="4.68736">
        <ele>270.27</ele>
        <time>2016-01-09T12:51:04Z</time>
      </trkpt>
      <trkpt lat="45.89307" lon="4.68751">
        <ele>270.27</ele>
        <time>2016-01-09T12:51:07Z</time>
      </trkpt>
      <trkpt lat="45.89292" lon="4.68789">
        <ele>271.71</ele>
        <time>2016-01-09T12:51:17Z</time>
      </trkpt>
      <trkpt lat="45.89291" lon="4.68796">
        <ele>273.15</ele>
        <time>2016-01-09T12:51:21Z</time>
      </trkpt>
      <trkpt lat="45.89289" lon="4.68809">
        <ele>274.11</ele>
        <time>2016-01-09T12:51:34Z</time>
      </trkpt>
      <trkpt lat="45.89284" lon="4.68825">
        <ele>276.52</ele>
        <time>2016-01-09T12:51:50Z</time>
      </trkpt>
      <trkpt lat="45.89284" lon="4.68826">
        <ele>277</ele>
        <time>2016-01-09T12:52:08Z</time>
      </trkpt>
      <trkpt lat="45.89284" lon="4.68826">
        <ele>276.04</ele>
        <time>2016-01-09T12:52:25Z</time>
      </trkpt>
      <trkpt lat="45.89284" lon="4.68826">
        <ele>276.04</ele>
        <time>2016-01-09T12:52:47Z</time>
      </trkpt>
      <trkpt lat="45.89284" lon="4.68826">
        <ele>276.04</ele>
        <time>2016-01-09T12:53:11Z</time>
      </trkpt>
      <trkpt lat="45.89283" lon="4.68828">
        <ele>277</ele>
        <time>2016-01-09T12:53:40Z</time>
      </trkpt>
      <trkpt lat="45.8927" lon="4.68836">
        <ele>277</ele>
        <time>2016-01-09T12:53:53Z</time>
      </trkpt>
      <trkpt lat="45.89262" lon="4.68837">
        <ele>277.96</ele>
        <time>2016-01-09T12:53:59Z</time>
      </trkpt>
      <trkpt lat="45.89261" lon="4.68837">
        <ele>278.44</ele>
        <time>2016-01-09T12:54:00Z</time>
      </trkpt>
      <trkpt lat="45.8926" lon="4.68837">
        <ele>278.44</ele>
        <time>2016-01-09T12:54:01Z</time>
      </trkpt>
      <trkpt lat="45.89259" lon="4.68836">
        <ele>277.96</ele>
        <time>2016-01-09T12:54:02Z</time>
      </trkpt>
      <trkpt lat="45.89257" lon="4.68836">
        <ele>277.96</ele>
        <time>2016-01-09T12:54:03Z</time>
      </trkpt>
      <trkpt lat="45.89256" lon="4.68836">
        <ele>277.96</ele>
        <time>2016-01-09T12:54:04Z</time>
      </trkpt>
      <trkpt lat="45.89245" lon="4.68832">
        <ele>278.92</ele>
        <time>2016-01-09T12:54:13Z</time>
      </trkpt>
      <trkpt lat="45.89231" lon="4.6881">
        <ele>279.88</ele>
        <time>2016-01-09T12:54:27Z</time>
      </trkpt>
      <trkpt lat="45.89208" lon="4.68789">
        <ele>281.8</ele>
        <time>2016-01-09T12:54:41Z</time>
      </trkpt>
      <trkpt lat="45.89184" lon="4.68786">
        <ele>283.25</ele>
        <time>2016-01-09T12:54:53Z</time>
      </trkpt>
      <trkpt lat="45.89156" lon="4.68783">
        <ele>284.21</ele>
        <time>2016-01-09T12:55:06Z</time>
      </trkpt>
      <trkpt lat="45.89141" lon="4.68783">
        <ele>285.17</ele>
        <time>2016-01-09T12:55:17Z</time>
      </trkpt>
      <trkpt lat="45.8914" lon="4.68784">
        <ele>285.17</ele>
        <time>2016-01-09T12:55:20Z</time>
      </trkpt>
      <trkpt lat="45.89139" lon="4.68786">
        <ele>285.17</ele>
        <time>2016-01-09T12:55:21Z</time>
      </trkpt>
      <trkpt lat="45.89139" lon="4.68789">
        <ele>285.17</ele>
        <time>2016-01-09T12:55:22Z</time>
      </trkpt>
      <trkpt lat="45.89144" lon="4.68854">
        <ele>283.25</ele>
        <time>2016-01-09T12:55:34Z</time>
      </trkpt>
      <trkpt lat="45.89152" lon="4.68961">
        <ele>279.88</ele>
        <time>2016-01-09T12:55:46Z</time>
      </trkpt>
      <trkpt lat="45.89146" lon="4.69092">
        <ele>277.48</ele>
        <time>2016-01-09T12:56:00Z</time>
      </trkpt>
      <trkpt lat="45.89144" lon="4.69206">
        <ele>276.04</ele>
        <time>2016-01-09T12:56:16Z</time>
      </trkpt>
      <trkpt lat="45.89144" lon="4.69284">
        <ele>274.11</ele>
        <time>2016-01-09T12:56:27Z</time>
      </trkpt>
      <trkpt lat="45.89142" lon="4.69289">
        <ele>273.63</ele>
        <time>2016-01-09T12:56:28Z</time>
      </trkpt>
      <trkpt lat="45.8914" lon="4.69293">
        <ele>273.15</ele>
        <time>2016-01-09T12:56:29Z</time>
      </trkpt>
      <trkpt lat="45.89138" lon="4.69294">
        <ele>273.15</ele>
        <time>2016-01-09T12:56:30Z</time>
      </trkpt>
      <trkpt lat="45.89137" lon="4.69293">
        <ele>273.63</ele>
        <time>2016-01-09T12:56:31Z</time>
      </trkpt>
      <trkpt lat="45.89135" lon="4.69292">
        <ele>273.15</ele>
        <time>2016-01-09T12:56:32Z</time>
      </trkpt>
      <trkpt lat="45.89133" lon="4.6929">
        <ele>273.63</ele>
        <time>2016-01-09T12:56:33Z</time>
      </trkpt>
      <trkpt lat="45.89131" lon="4.69288">
        <ele>274.11</ele>
        <time>2016-01-09T12:56:34Z</time>
      </trkpt>
      <trkpt lat="45.89129" lon="4.69286">
        <ele>273.15</ele>
        <time>2016-01-09T12:56:35Z</time>
      </trkpt>
      <trkpt lat="45.89126" lon="4.69284">
        <ele>273.63</ele>
        <time>2016-01-09T12:56:36Z</time>
      </trkpt>
      <trkpt lat="45.89093" lon="4.69254">
        <ele>275.07</ele>
        <time>2016-01-09T12:56:50Z</time>
      </trkpt>
      <trkpt lat="45.89053" lon="4.69216">
        <ele>276.52</ele>
        <time>2016-01-09T12:57:07Z</time>
      </trkpt>
      <trkpt lat="45.89018" lon="4.69203">
        <ele>277.96</ele>
        <time>2016-01-09T12:57:20Z</time>
      </trkpt>
      <trkpt lat="45.88983" lon="4.69214">
        <ele>277.96</ele>
        <time>2016-01-09T12:57:33Z</time>
      </trkpt>
      <trkpt lat="45.88933" lon="4.6923">
        <ele>277.48</ele>
        <time>2016-01-09T12:57:48Z</time>
      </trkpt>
      <trkpt lat="45.8889" lon="4.69251">
        <ele>277</ele>
        <time>2016-01-09T12:58:00Z</time>
      </trkpt>
      <trkpt lat="45.88853" lon="4.69284">
        <ele>276.52</ele>
        <time>2016-01-09T12:58:11Z</time>
      </trkpt>
      <trkpt lat="45.8884" lon="4.69294">
        <ele>276.52</ele>
        <time>2016-01-09T12:58:14Z</time>
      </trkpt>
      <trkpt lat="45.88826" lon="4.69302">
        <ele>275.56</ele>
        <time>2016-01-09T12:58:17Z</time>
      </trkpt>
      <trkpt lat="45.88821" lon="4.69304">
        <ele>275.07</ele>
        <time>2016-01-09T12:58:18Z</time>
      </trkpt>
      <trkpt lat="45.88817" lon="4.69306">
        <ele>275.07</ele>
        <time>2016-01-09T12:58:19Z</time>
      </trkpt>
      <trkpt lat="45.8881" lon="4.69307">
        <ele>274.11</ele>
        <time>2016-01-09T12:58:26Z</time>
      </trkpt>
      <trkpt lat="45.88808" lon="4.69309">
        <ele>274.11</ele>
        <time>2016-01-09T12:58:39Z</time>
      </trkpt>
      <trkpt lat="45.88806" lon="4.6931">
        <ele>274.11</ele>
        <time>2016-01-09T12:58:40Z</time>
      </trkpt>
      <trkpt lat="45.88805" lon="4.69313">
        <ele>274.11</ele>
        <time>2016-01-09T12:58:41Z</time>
      </trkpt>
      <trkpt lat="45.88804" lon="4.69317">
        <ele>274.11</ele>
        <time>2016-01-09T12:58:42Z</time>
      </trkpt>
      <trkpt lat="45.88803" lon="4.69322">
        <ele>273.63</ele>
        <time>2016-01-09T12:58:43Z</time>
      </trkpt>
      <trkpt lat="45.88797" lon="4.69382">
        <ele>272.19</ele>
        <time>2016-01-09T12:58:54Z</time>
      </trkpt>
      <trkpt lat="45.88795" lon="4.6939">
        <ele>272.19</ele>
        <time>2016-01-09T12:58:55Z</time>
      </trkpt>
      <trkpt lat="45.88784" lon="4.69457">
        <ele>269.79</ele>
        <time>2016-01-09T12:59:03Z</time>
      </trkpt>
      <trkpt lat="45.88776" lon="4.69475">
        <ele>268.83</ele>
        <time>2016-01-09T12:59:07Z</time>
      </trkpt>
      <trkpt lat="45.88772" lon="4.69476">
        <ele>268.35</ele>
        <time>2016-01-09T12:59:08Z</time>
      </trkpt>
      <trkpt lat="45.88764" lon="4.69477">
        <ele>267.86</ele>
        <time>2016-01-09T12:59:10Z</time>
      </trkpt>
      <trkpt lat="45.8876" lon="4.69478">
        <ele>267.86</ele>
        <time>2016-01-09T12:59:11Z</time>
      </trkpt>
      <trkpt lat="45.88755" lon="4.6948">
        <ele>267.86</ele>
        <time>2016-01-09T12:59:12Z</time>
      </trkpt>
      <trkpt lat="45.8874" lon="4.69486">
        <ele>266.42</ele>
        <time>2016-01-09T12:59:15Z</time>
      </trkpt>
      <trkpt lat="45.88719" lon="4.69498">
        <ele>265.46</ele>
        <time>2016-01-09T12:59:19Z</time>
      </trkpt>
      <trkpt lat="45.88711" lon="4.69507">
        <ele>265.46</ele>
        <time>2016-01-09T12:59:21Z</time>
      </trkpt>
      <trkpt lat="45.88706" lon="4.69509">
        <ele>264.5</ele>
        <time>2016-01-09T12:59:22Z</time>
      </trkpt>
      <trkpt lat="45.88702" lon="4.6951">
        <ele>264.98</ele>
        <time>2016-01-09T12:59:23Z</time>
      </trkpt>
      <trkpt lat="45.88676" lon="4.6951">
        <ele>264.5</ele>
        <time>2016-01-09T12:59:28Z</time>
      </trkpt>
      <trkpt lat="45.88671" lon="4.69512">
        <ele>263.54</ele>
        <time>2016-01-09T12:59:29Z</time>
      </trkpt>
      <trkpt lat="45.88666" lon="4.69515">
        <ele>263.54</ele>
        <time>2016-01-09T12:59:30Z</time>
      </trkpt>
      <trkpt lat="45.88661" lon="4.6952">
        <ele>263.06</ele>
        <time>2016-01-09T12:59:31Z</time>
      </trkpt>
      <trkpt lat="45.88656" lon="4.69526">
        <ele>262.1</ele>
        <time>2016-01-09T12:59:32Z</time>
      </trkpt>
      <trkpt lat="45.8865" lon="4.69532">
        <ele>262.1</ele>
        <time>2016-01-09T12:59:33Z</time>
      </trkpt>
      <trkpt lat="45.88644" lon="4.69536">
        <ele>261.62</ele>
        <time>2016-01-09T12:59:34Z</time>
      </trkpt>
      <trkpt lat="45.88638" lon="4.69542">
        <ele>261.62</ele>
        <time>2016-01-09T12:59:35Z</time>
      </trkpt>
      <trkpt lat="45.88584" lon="4.69587">
        <ele>259.69</ele>
        <time>2016-01-09T12:59:44Z</time>
      </trkpt>
      <trkpt lat="45.88579" lon="4.69594">
        <ele>259.21</ele>
        <time>2016-01-09T12:59:45Z</time>
      </trkpt>
      <trkpt lat="45.88576" lon="4.69602">
        <ele>259.69</ele>
        <time>2016-01-09T12:59:46Z</time>
      </trkpt>
      <trkpt lat="45.88573" lon="4.6961">
        <ele>259.21</ele>
        <time>2016-01-09T12:59:47Z</time>
      </trkpt>
      <trkpt lat="45.8857" lon="4.69618">
        <ele>259.21</ele>
        <time>2016-01-09T12:59:48Z</time>
      </trkpt>
      <trkpt lat="45.88567" lon="4.69627">
        <ele>258.73</ele>
        <time>2016-01-09T12:59:49Z</time>
      </trkpt>
      <trkpt lat="45.88563" lon="4.69635">
        <ele>258.25</ele>
        <time>2016-01-09T12:59:50Z</time>
      </trkpt>
      <trkpt lat="45.88558" lon="4.69642">
        <ele>257.77</ele>
        <time>2016-01-09T12:59:51Z</time>
      </trkpt>
      <trkpt lat="45.88554" lon="4.69648">
        <ele>257.29</ele>
        <time>2016-01-09T12:59:52Z</time>
      </trkpt>
      <trkpt lat="45.88548" lon="4.69653">
        <ele>257.77</ele>
        <time>2016-01-09T12:59:53Z</time>
      </trkpt>
      <trkpt lat="45.88543" lon="4.69658">
        <ele>257.77</ele>
        <time>2016-01-09T12:59:54Z</time>
      </trkpt>
      <trkpt lat="45.88526" lon="4.69671">
        <ele>257.29</ele>
        <time>2016-01-09T12:59:57Z</time>
      </trkpt>
      <trkpt lat="45.88521" lon="4.69675">
        <ele>257.29</ele>
        <time>2016-01-09T12:59:58Z</time>
      </trkpt>
      <trkpt lat="45.88515" lon="4.69679">
        <ele>257.77</ele>
        <time>2016-01-09T12:59:59Z</time>
      </trkpt>
      <trkpt lat="45.88474" lon="4.697">
        <ele>256.33</ele>
        <time>2016-01-09T13:00:06Z</time>
      </trkpt>
      <trkpt lat="45.88447" lon="4.69709">
        <ele>255.37</ele>
        <time>2016-01-09T13:00:11Z</time>
      </trkpt>
      <trkpt lat="45.88376" lon="4.69739">
        <ele>253.93</ele>
        <time>2016-01-09T13:00:25Z</time>
      </trkpt>
      <trkpt lat="45.88366" lon="4.69745">
        <ele>253.44</ele>
        <time>2016-01-09T13:00:27Z</time>
      </trkpt>
      <trkpt lat="45.88355" lon="4.69749">
        <ele>252.96</ele>
        <time>2016-01-09T13:00:29Z</time>
      </trkpt>
      <trkpt lat="45.8835" lon="4.69751">
        <ele>252.96</ele>
        <time>2016-01-09T13:00:30Z</time>
      </trkpt>
      <trkpt lat="45.88314" lon="4.69766">
        <ele>252.48</ele>
        <time>2016-01-09T13:00:37Z</time>
      </trkpt>
      <trkpt lat="45.88265" lon="4.6978">
        <ele>252.48</ele>
        <time>2016-01-09T13:00:47Z</time>
      </trkpt>
      <trkpt lat="45.8826" lon="4.69781">
        <ele>252</ele>
        <time>2016-01-09T13:00:48Z</time>
      </trkpt>
      <trkpt lat="45.88255" lon="4.69782">
        <ele>252.48</ele>
        <time>2016-01-09T13:00:49Z</time>
      </trkpt>
      <trkpt lat="45.8825" lon="4.69783">
        <ele>252.48</ele>
        <time>2016-01-09T13:00:50Z</time>
      </trkpt>
      <trkpt lat="45.88245" lon="4.69785">
        <ele>252</ele>
        <time>2016-01-09T13:00:51Z</time>
      </trkpt>
      <trkpt lat="45.8824" lon="4.69788">
        <ele>252</ele>
        <time>2016-01-09T13:00:52Z</time>
      </trkpt>
      <trkpt lat="45.88227" lon="4.69797">
        <ele>252</ele>
        <time>2016-01-09T13:00:55Z</time>
      </trkpt>
      <trkpt lat="45.88214" lon="4.69808">
        <ele>251.52</ele>
        <time>2016-01-09T13:00:58Z</time>
      </trkpt>
      <trkpt lat="45.8821" lon="4.69811">
        <ele>251.52</ele>
        <time>2016-01-09T13:00:59Z</time>
      </trkpt>
      <trkpt lat="45.88205" lon="4.69815">
        <ele>251.04</ele>
        <time>2016-01-09T13:01:00Z</time>
      </trkpt>
      <trkpt lat="45.88201" lon="4.69819">
        <ele>250.56</ele>
        <time>2016-01-09T13:01:01Z</time>
      </trkpt>
      <trkpt lat="45.88197" lon="4.69824">
        <ele>250.56</ele>
        <time>2016-01-09T13:01:02Z</time>
      </trkpt>
      <trkpt lat="45.88182" lon="4.69838">
        <ele>249.6</ele>
        <time>2016-01-09T13:01:05Z</time>
      </trkpt>
      <trkpt lat="45.88176" lon="4.69841">
        <ele>250.08</ele>
        <time>2016-01-09T13:01:06Z</time>
      </trkpt>
      <trkpt lat="45.88171" lon="4.69845">
        <ele>249.6</ele>
        <time>2016-01-09T13:01:07Z</time>
      </trkpt>
      <trkpt lat="45.8816" lon="4.69849">
        <ele>249.6</ele>
        <time>2016-01-09T13:01:09Z</time>
      </trkpt>
      <trkpt lat="45.88155" lon="4.6985">
        <ele>249.6</ele>
        <time>2016-01-09T13:01:10Z</time>
      </trkpt>
      <trkpt lat="45.8815" lon="4.6985">
        <ele>249.6</ele>
        <time>2016-01-09T13:01:11Z</time>
      </trkpt>
      <trkpt lat="45.88144" lon="4.6985">
        <ele>249.6</ele>
        <time>2016-01-09T13:01:12Z</time>
      </trkpt>
      <trkpt lat="45.88139" lon="4.69849">
        <ele>249.6</ele>
        <time>2016-01-09T13:01:13Z</time>
      </trkpt>
      <trkpt lat="45.88135" lon="4.69847">
        <ele>249.6</ele>
        <time>2016-01-09T13:01:14Z</time>
      </trkpt>
      <trkpt lat="45.8813" lon="4.69846">
        <ele>249.12</ele>
        <time>2016-01-09T13:01:15Z</time>
      </trkpt>
      <trkpt lat="45.88126" lon="4.69846">
        <ele>249.6</ele>
        <time>2016-01-09T13:01:16Z</time>
      </trkpt>
      <trkpt lat="45.88122" lon="4.69847">
        <ele>249.12</ele>
        <time>2016-01-09T13:01:17Z</time>
      </trkpt>
      <trkpt lat="45.88119" lon="4.69846">
        <ele>249.12</ele>
        <time>2016-01-09T13:01:18Z</time>
      </trkpt>
      <trkpt lat="45.88117" lon="4.69846">
        <ele>249.12</ele>
        <time>2016-01-09T13:01:19Z</time>
      </trkpt>
      <trkpt lat="45.88115" lon="4.69848">
        <ele>249.12</ele>
        <time>2016-01-09T13:01:20Z</time>
      </trkpt>
      <trkpt lat="45.88114" lon="4.69852">
        <ele>249.12</ele>
        <time>2016-01-09T13:01:21Z</time>
      </trkpt>
      <trkpt lat="45.88113" lon="4.69857">
        <ele>248.16</ele>
        <time>2016-01-09T13:01:22Z</time>
      </trkpt>
      <trkpt lat="45.8811" lon="4.69868">
        <ele>248.64</ele>
        <time>2016-01-09T13:01:24Z</time>
      </trkpt>
      <trkpt lat="45.88109" lon="4.69875">
        <ele>247.68</ele>
        <time>2016-01-09T13:01:25Z</time>
      </trkpt>
      <trkpt lat="45.88108" lon="4.69886">
        <ele>246.72</ele>
        <time>2016-01-09T13:01:27Z</time>
      </trkpt>
      <trkpt lat="45.88107" lon="4.69898">
        <ele>246.23</ele>
        <time>2016-01-09T13:01:29Z</time>
      </trkpt>
      <trkpt lat="45.88107" lon="4.69915">
        <ele>244.79</ele>
        <time>2016-01-09T13:01:32Z</time>
      </trkpt>
      <trkpt lat="45.88106" lon="4.69982">
        <ele>241.91</ele>
        <time>2016-01-09T13:01:42Z</time>
      </trkpt>
      <trkpt lat="45.88105" lon="4.6999">
        <ele>240.95</ele>
        <time>2016-01-09T13:01:43Z</time>
      </trkpt>
      <trkpt lat="45.88103" lon="4.69996">
        <ele>240.47</ele>
        <time>2016-01-09T13:01:44Z</time>
      </trkpt>
      <trkpt lat="45.88097" lon="4.70011">
        <ele>239.51</ele>
        <time>2016-01-09T13:01:47Z</time>
      </trkpt>
      <trkpt lat="45.88095" lon="4.70017">
        <ele>239.51</ele>
        <time>2016-01-09T13:01:48Z</time>
      </trkpt>
      <trkpt lat="45.88093" lon="4.70023">
        <ele>239.02</ele>
        <time>2016-01-09T13:01:49Z</time>
      </trkpt>
      <trkpt lat="45.8809" lon="4.70037">
        <ele>238.54</ele>
        <time>2016-01-09T13:01:51Z</time>
      </trkpt>
      <trkpt lat="45.88088" lon="4.70043">
        <ele>238.06</ele>
        <time>2016-01-09T13:01:52Z</time>
      </trkpt>
      <trkpt lat="45.88086" lon="4.7005">
        <ele>237.58</ele>
        <time>2016-01-09T13:01:53Z</time>
      </trkpt>
      <trkpt lat="45.8808" lon="4.70073">
        <ele>236.14</ele>
        <time>2016-01-09T13:01:56Z</time>
      </trkpt>
      <trkpt lat="45.88067" lon="4.70105">
        <ele>234.22</ele>
        <time>2016-01-09T13:02:00Z</time>
      </trkpt>
      <trkpt lat="45.88062" lon="4.70112">
        <ele>232.78</ele>
        <time>2016-01-09T13:02:01Z</time>
      </trkpt>
      <trkpt lat="45.88058" lon="4.70119">
        <ele>232.3</ele>
        <time>2016-01-09T13:02:02Z</time>
      </trkpt>
      <trkpt lat="45.88054" lon="4.70125">
        <ele>231.81</ele>
        <time>2016-01-09T13:02:03Z</time>
      </trkpt>
      <trkpt lat="45.8805" lon="4.70131">
        <ele>231.81</ele>
        <time>2016-01-09T13:02:04Z</time>
      </trkpt>
      <trkpt lat="45.88045" lon="4.70141">
        <ele>231.81</ele>
        <time>2016-01-09T13:02:06Z</time>
      </trkpt>
      <trkpt lat="45.88042" lon="4.70146">
        <ele>231.81</ele>
        <time>2016-01-09T13:02:07Z</time>
      </trkpt>
      <trkpt lat="45.8804" lon="4.70152">
        <ele>231.33</ele>
        <time>2016-01-09T13:02:08Z</time>
      </trkpt>
      <trkpt lat="45.88038" lon="4.70157">
        <ele>231.81</ele>
        <time>2016-01-09T13:02:09Z</time>
      </trkpt>
      <trkpt lat="45.88036" lon="4.70163">
        <ele>231.81</ele>
        <time>2016-01-09T13:02:10Z</time>
      </trkpt>
      <trkpt lat="45.88024" lon="4.70181">
        <ele>230.85</ele>
        <time>2016-01-09T13:02:14Z</time>
      </trkpt>
      <trkpt lat="45.88021" lon="4.70185">
        <ele>231.33</ele>
        <time>2016-01-09T13:02:15Z</time>
      </trkpt>
      <trkpt lat="45.88017" lon="4.70188">
        <ele>231.33</ele>
        <time>2016-01-09T13:02:16Z</time>
      </trkpt>
      <trkpt lat="45.88013" lon="4.70191">
        <ele>231.33</ele>
        <time>2016-01-09T13:02:17Z</time>
      </trkpt>
      <trkpt lat="45.8801" lon="4.70193">
        <ele>231.33</ele>
        <time>2016-01-09T13:02:18Z</time>
      </trkpt>
      <trkpt lat="45.88007" lon="4.70195">
        <ele>231.81</ele>
        <time>2016-01-09T13:02:19Z</time>
      </trkpt>
      <trkpt lat="45.88003" lon="4.70197">
        <ele>231.33</ele>
        <time>2016-01-09T13:02:20Z</time>
      </trkpt>
      <trkpt lat="45.88" lon="4.70199">
        <ele>231.81</ele>
        <time>2016-01-09T13:02:21Z</time>
      </trkpt>
      <trkpt lat="45.87973" lon="4.70234">
        <ele>233.26</ele>
        <time>2016-01-09T13:02:32Z</time>
      </trkpt>
      <trkpt lat="45.87962" lon="4.70289">
        <ele>233.26</ele>
        <time>2016-01-09T13:02:44Z</time>
      </trkpt>
      <trkpt lat="45.87955" lon="4.70346">
        <ele>231.81</ele>
        <time>2016-01-09T13:02:56Z</time>
      </trkpt>
      <trkpt lat="45.8795" lon="4.70361">
        <ele>231.81</ele>
        <time>2016-01-09T13:02:59Z</time>
      </trkpt>
      <trkpt lat="45.87948" lon="4.70367">
        <ele>231.33</ele>
        <time>2016-01-09T13:03:00Z</time>
      </trkpt>
      <trkpt lat="45.87947" lon="4.70373">
        <ele>231.33</ele>
        <time>2016-01-09T13:03:01Z</time>
      </trkpt>
      <trkpt lat="45.87947" lon="4.70386">
        <ele>231.33</ele>
        <time>2016-01-09T13:03:03Z</time>
      </trkpt>
      <trkpt lat="45.87946" lon="4.70393">
        <ele>231.81</ele>
        <time>2016-01-09T13:03:04Z</time>
      </trkpt>
      <trkpt lat="45.87925" lon="4.70487">
        <ele>228.45</ele>
        <time>2016-01-09T13:03:15Z</time>
      </trkpt>
      <trkpt lat="45.87905" lon="4.70612">
        <ele>226.05</ele>
        <time>2016-01-09T13:03:28Z</time>
      </trkpt>
      <trkpt lat="45.87885" lon="4.70763">
        <ele>225.09</ele>
        <time>2016-01-09T13:03:45Z</time>
      </trkpt>
      <trkpt lat="45.87882" lon="4.70783">
        <ele>225.09</ele>
        <time>2016-01-09T13:03:49Z</time>
      </trkpt>
      <trkpt lat="45.87881" lon="4.70789">
        <ele>225.09</ele>
        <time>2016-01-09T13:03:50Z</time>
      </trkpt>
      <trkpt lat="45.87865" lon="4.70871">
        <ele>224.61</ele>
        <time>2016-01-09T13:04:02Z</time>
      </trkpt>
      <trkpt lat="45.87861" lon="4.70892">
        <ele>224.12</ele>
        <time>2016-01-09T13:04:05Z</time>
      </trkpt>
      <trkpt lat="45.87842" lon="4.70974">
        <ele>224.12</ele>
        <time>2016-01-09T13:04:19Z</time>
      </trkpt>
      <trkpt lat="45.87838" lon="4.70984">
        <ele>225.09</ele>
        <time>2016-01-09T13:04:22Z</time>
      </trkpt>
      <trkpt lat="45.87838" lon="4.70986">
        <ele>224.61</ele>
        <time>2016-01-09T13:04:23Z</time>
      </trkpt>
      <trkpt lat="45.87837" lon="4.70989">
        <ele>224.61</ele>
        <time>2016-01-09T13:04:24Z</time>
      </trkpt>
      <trkpt lat="45.87825" lon="4.71036">
        <ele>224.12</ele>
        <time>2016-01-09T13:04:36Z</time>
      </trkpt>
      <trkpt lat="45.87808" lon="4.71097">
        <ele>225.57</ele>
        <time>2016-01-09T13:04:49Z</time>
      </trkpt>
      <trkpt lat="45.87793" lon="4.71161">
        <ele>226.05</ele>
        <time>2016-01-09T13:05:03Z</time>
      </trkpt>
      <trkpt lat="45.87791" lon="4.71164">
        <ele>226.53</ele>
        <time>2016-01-09T13:05:04Z</time>
      </trkpt>
      <trkpt lat="45.87782" lon="4.71173">
        <ele>226.53</ele>
        <time>2016-01-09T13:05:07Z</time>
      </trkpt>
      <trkpt lat="45.87731" lon="4.71221">
        <ele>227.01</ele>
        <time>2016-01-09T13:05:21Z</time>
      </trkpt>
      <trkpt lat="45.87728" lon="4.71224">
        <ele>226.53</ele>
        <time>2016-01-09T13:05:22Z</time>
      </trkpt>
      <trkpt lat="45.87721" lon="4.71232">
        <ele>227.01</ele>
        <time>2016-01-09T13:05:24Z</time>
      </trkpt>
      <trkpt lat="45.87685" lon="4.71265">
        <ele>227.01</ele>
        <time>2016-01-09T13:05:34Z</time>
      </trkpt>
      <trkpt lat="45.87677" lon="4.71274">
        <ele>227.49</ele>
        <time>2016-01-09T13:05:36Z</time>
      </trkpt>
      <trkpt lat="45.87674" lon="4.71279">
        <ele>226.53</ele>
        <time>2016-01-09T13:05:37Z</time>
      </trkpt>
      <trkpt lat="45.87666" lon="4.7129">
        <ele>226.53</ele>
        <time>2016-01-09T13:05:40Z</time>
      </trkpt>
      <trkpt lat="45.87664" lon="4.71295">
        <ele>227.01</ele>
        <time>2016-01-09T13:05:41Z</time>
      </trkpt>
      <trkpt lat="45.87661" lon="4.71297">
        <ele>226.53</ele>
        <time>2016-01-09T13:05:42Z</time>
      </trkpt>
      <trkpt lat="45.87659" lon="4.71298">
        <ele>227.01</ele>
        <time>2016-01-09T13:05:43Z</time>
      </trkpt>
      <trkpt lat="45.87657" lon="4.71301">
        <ele>226.53</ele>
        <time>2016-01-09T13:05:44Z</time>
      </trkpt>
      <trkpt lat="45.87655" lon="4.71304">
        <ele>227.49</ele>
        <time>2016-01-09T13:05:45Z</time>
      </trkpt>
      <trkpt lat="45.87653" lon="4.71307">
        <ele>227.01</ele>
        <time>2016-01-09T13:05:46Z</time>
      </trkpt>
      <trkpt lat="45.87648" lon="4.71313">
        <ele>227.49</ele>
        <time>2016-01-09T13:05:49Z</time>
      </trkpt>
      <trkpt lat="45.87646" lon="4.71313">
        <ele>226.53</ele>
        <time>2016-01-09T13:05:50Z</time>
      </trkpt>
      <trkpt lat="45.87643" lon="4.71314">
        <ele>227.49</ele>
        <time>2016-01-09T13:05:51Z</time>
      </trkpt>
      <trkpt lat="45.87641" lon="4.71314">
        <ele>227.49</ele>
        <time>2016-01-09T13:05:52Z</time>
      </trkpt>
      <trkpt lat="45.87638" lon="4.71315">
        <ele>227.49</ele>
        <time>2016-01-09T13:05:53Z</time>
      </trkpt>
      <trkpt lat="45.87637" lon="4.71317">
        <ele>227.49</ele>
        <time>2016-01-09T13:05:54Z</time>
      </trkpt>
      <trkpt lat="45.87636" lon="4.71321">
        <ele>227.49</ele>
        <time>2016-01-09T13:05:55Z</time>
      </trkpt>
      <trkpt lat="45.87635" lon="4.71325">
        <ele>227.49</ele>
        <time>2016-01-09T13:05:56Z</time>
      </trkpt>
      <trkpt lat="45.87635" lon="4.7133">
        <ele>227.01</ele>
        <time>2016-01-09T13:05:57Z</time>
      </trkpt>
      <trkpt lat="45.87639" lon="4.71353">
        <ele>231.81</ele>
        <time>2016-01-09T13:06:06Z</time>
      </trkpt>
      <trkpt lat="45.87639" lon="4.71353">
        <ele>229.41</ele>
        <time>2016-01-09T13:06:07Z</time>
      </trkpt>
      <trkpt lat="45.87639" lon="4.71353">
        <ele>233.74</ele>
        <time>2016-01-09T13:06:08Z</time>
      </trkpt>
      <trkpt lat="45.87639" lon="4.71353">
        <ele>227.49</ele>
        <time>2016-01-09T13:06:09Z</time>
      </trkpt>
      <trkpt lat="45.87639" lon="4.71353">
        <ele>227.01</ele>
        <time>2016-01-09T13:06:24Z</time>
      </trkpt>
      <trkpt lat="45.87639" lon="4.71353">
        <ele>227.01</ele>
        <time>2016-01-09T13:06:43Z</time>
      </trkpt>
      <trkpt lat="45.87638" lon="4.71353">
        <ele>227.49</ele>
        <time>2016-01-09T13:06:59Z</time>
      </trkpt>
      <trkpt lat="45.87638" lon="4.71353">
        <ele>229.41</ele>
        <time>2016-01-09T13:07:19Z</time>
      </trkpt>
      <trkpt lat="45.87638" lon="4.71353">
        <ele>225.09</ele>
        <time>2016-01-09T13:07:20Z</time>
      </trkpt>
      <trkpt lat="45.87638" lon="4.71353">
        <ele>227.49</ele>
        <time>2016-01-09T13:07:21Z</time>
      </trkpt>
      <trkpt lat="45.87639" lon="4.71353">
        <ele>231.33</ele>
        <time>2016-01-09T13:07:27Z</time>
      </trkpt>
      <trkpt lat="45.87639" lon="4.71353">
        <ele>227.97</ele>
        <time>2016-01-09T13:07:28Z</time>
      </trkpt>
    </trkseg>
  </trk>
</gpx>